<?xml version="1.0" encoding="UTF-8" standalone="no" ?>
<gpx xmlns="http://www.topografix.com/GPX/1/1" xmlns:xsi="http://www.w3.org/2001/XMLSchema-instance" xsi:schemaLocation="http://www.topografix.com/GPX/1/1 http://www.topografix.com/GPX/1/1/gpx.xsd" version="1.1" creator="VisuGPX - https://www.visugpx.com">
  <metadata>
    <name>S 702</name>
  </metadata>
  <trk>
    <name><![CDATA[Vélo du matin]]></name>
    <trkseg>
      <trkpt lat="49.28643" lon="-0.11946">
        <ele>4.5</ele>
        <time>2023-11-19T07:52:12Z</time>
      </trkpt>
      <trkpt lat="49.28649" lon="-0.11936">
        <ele>4.5</ele>
        <time>2023-11-19T07:52:14Z</time>
      </trkpt>
      <trkpt lat="49.28649" lon="-0.11935">
        <ele>4.5</ele>
        <time>2023-11-19T07:52:15Z</time>
      </trkpt>
      <trkpt lat="49.28649" lon="-0.11935">
        <ele>4.5</ele>
        <time>2023-11-19T07:52:16Z</time>
      </trkpt>
      <trkpt lat="49.28649" lon="-0.11935">
        <ele>4.5</ele>
        <time>2023-11-19T07:52:17Z</time>
      </trkpt>
      <trkpt lat="49.28648" lon="-0.11935">
        <ele>4.5</ele>
        <time>2023-11-19T07:52:18Z</time>
      </trkpt>
      <trkpt lat="49.28648" lon="-0.11935">
        <ele>4.5</ele>
        <time>2023-11-19T07:52:19Z</time>
      </trkpt>
      <trkpt lat="49.28648" lon="-0.11935">
        <ele>4.5</ele>
        <time>2023-11-19T07:52:20Z</time>
      </trkpt>
      <trkpt lat="49.28648" lon="-0.11935">
        <ele>4.5</ele>
        <time>2023-11-19T07:52:21Z</time>
      </trkpt>
      <trkpt lat="49.28648" lon="-0.11935">
        <ele>4.5</ele>
        <time>2023-11-19T07:52:22Z</time>
      </trkpt>
      <trkpt lat="49.28648" lon="-0.11935">
        <ele>4.5</ele>
        <time>2023-11-19T07:52:23Z</time>
      </trkpt>
      <trkpt lat="49.28648" lon="-0.11935">
        <ele>4.5</ele>
        <time>2023-11-19T07:52:24Z</time>
      </trkpt>
      <trkpt lat="49.28648" lon="-0.11935">
        <ele>4.5</ele>
        <time>2023-11-19T07:52:25Z</time>
      </trkpt>
      <trkpt lat="49.28647" lon="-0.11928">
        <ele>4.5</ele>
        <time>2023-11-19T07:55:21Z</time>
      </trkpt>
      <trkpt lat="49.28647" lon="-0.11927">
        <ele>4.5</ele>
        <time>2023-11-19T07:55:22Z</time>
      </trkpt>
      <trkpt lat="49.28647" lon="-0.11927">
        <ele>4.5</ele>
        <time>2023-11-19T07:55:23Z</time>
      </trkpt>
      <trkpt lat="49.28647" lon="-0.11927">
        <ele>4.5</ele>
        <time>2023-11-19T07:55:24Z</time>
      </trkpt>
      <trkpt lat="49.28647" lon="-0.11927">
        <ele>4.5</ele>
        <time>2023-11-19T07:55:25Z</time>
      </trkpt>
      <trkpt lat="49.28647" lon="-0.11927">
        <ele>4.5</ele>
        <time>2023-11-19T07:55:26Z</time>
      </trkpt>
      <trkpt lat="49.28648" lon="-0.11926">
        <ele>4.5</ele>
        <time>2023-11-19T07:55:27Z</time>
      </trkpt>
      <trkpt lat="49.28648" lon="-0.11926">
        <ele>4.5</ele>
        <time>2023-11-19T07:55:28Z</time>
      </trkpt>
      <trkpt lat="49.28648" lon="-0.11926">
        <ele>4.5</ele>
        <time>2023-11-19T07:55:29Z</time>
      </trkpt>
      <trkpt lat="49.28648" lon="-0.11926">
        <ele>4.5</ele>
        <time>2023-11-19T07:55:30Z</time>
      </trkpt>
      <trkpt lat="49.28648" lon="-0.11926">
        <ele>4.5</ele>
        <time>2023-11-19T07:55:31Z</time>
      </trkpt>
      <trkpt lat="49.28648" lon="-0.11926">
        <ele>4.5</ele>
        <time>2023-11-19T07:55:32Z</time>
      </trkpt>
      <trkpt lat="49.28648" lon="-0.11926">
        <ele>4.5</ele>
        <time>2023-11-19T07:55:33Z</time>
      </trkpt>
      <trkpt lat="49.28645" lon="-0.11932">
        <ele>4.5</ele>
        <time>2023-11-19T07:56:06Z</time>
      </trkpt>
      <trkpt lat="49.28645" lon="-0.11933">
        <ele>4.5</ele>
        <time>2023-11-19T07:56:07Z</time>
      </trkpt>
      <trkpt lat="49.28644" lon="-0.11933">
        <ele>4.5</ele>
        <time>2023-11-19T07:56:08Z</time>
      </trkpt>
      <trkpt lat="49.28643" lon="-0.11934">
        <ele>4.5</ele>
        <time>2023-11-19T07:56:09Z</time>
      </trkpt>
      <trkpt lat="49.28642" lon="-0.11934">
        <ele>4.5</ele>
        <time>2023-11-19T07:56:10Z</time>
      </trkpt>
      <trkpt lat="49.28642" lon="-0.11934">
        <ele>4.5</ele>
        <time>2023-11-19T07:56:11Z</time>
      </trkpt>
      <trkpt lat="49.28641" lon="-0.11934">
        <ele>4.5</ele>
        <time>2023-11-19T07:56:12Z</time>
      </trkpt>
      <trkpt lat="49.28642" lon="-0.11935">
        <ele>4.5</ele>
        <time>2023-11-19T07:56:13Z</time>
      </trkpt>
      <trkpt lat="49.28642" lon="-0.11935">
        <ele>4.5</ele>
        <time>2023-11-19T07:56:14Z</time>
      </trkpt>
      <trkpt lat="49.28642" lon="-0.11935">
        <ele>4.5</ele>
        <time>2023-11-19T07:56:15Z</time>
      </trkpt>
      <trkpt lat="49.28642" lon="-0.11935">
        <ele>4.5</ele>
        <time>2023-11-19T07:56:16Z</time>
      </trkpt>
      <trkpt lat="49.28642" lon="-0.11935">
        <ele>4.5</ele>
        <time>2023-11-19T07:56:17Z</time>
      </trkpt>
      <trkpt lat="49.28642" lon="-0.11935">
        <ele>4.5</ele>
        <time>2023-11-19T07:56:18Z</time>
      </trkpt>
      <trkpt lat="49.28642" lon="-0.11935">
        <ele>4.5</ele>
        <time>2023-11-19T07:56:19Z</time>
      </trkpt>
      <trkpt lat="49.28642" lon="-0.11935">
        <ele>4.5</ele>
        <time>2023-11-19T07:56:20Z</time>
      </trkpt>
      <trkpt lat="49.28642" lon="-0.11934">
        <ele>4.5</ele>
        <time>2023-11-19T07:56:21Z</time>
      </trkpt>
      <trkpt lat="49.28642" lon="-0.11934">
        <ele>4.5</ele>
        <time>2023-11-19T07:56:22Z</time>
      </trkpt>
      <trkpt lat="49.28642" lon="-0.11934">
        <ele>4.5</ele>
        <time>2023-11-19T07:56:23Z</time>
      </trkpt>
      <trkpt lat="49.28645" lon="-0.1193">
        <ele>4.5</ele>
        <time>2023-11-19T07:56:44Z</time>
      </trkpt>
      <trkpt lat="49.28645" lon="-0.11929">
        <ele>4.5</ele>
        <time>2023-11-19T07:56:45Z</time>
      </trkpt>
      <trkpt lat="49.28645" lon="-0.11929">
        <ele>4.5</ele>
        <time>2023-11-19T07:56:46Z</time>
      </trkpt>
      <trkpt lat="49.28646" lon="-0.11929">
        <ele>4.5</ele>
        <time>2023-11-19T07:56:47Z</time>
      </trkpt>
      <trkpt lat="49.28646" lon="-0.11929">
        <ele>4.5</ele>
        <time>2023-11-19T07:56:48Z</time>
      </trkpt>
      <trkpt lat="49.28646" lon="-0.11929">
        <ele>4.5</ele>
        <time>2023-11-19T07:56:49Z</time>
      </trkpt>
      <trkpt lat="49.28646" lon="-0.11929">
        <ele>4.5</ele>
        <time>2023-11-19T07:56:50Z</time>
      </trkpt>
      <trkpt lat="49.28646" lon="-0.11929">
        <ele>4.5</ele>
        <time>2023-11-19T07:56:51Z</time>
      </trkpt>
      <trkpt lat="49.28646" lon="-0.11929">
        <ele>4.5</ele>
        <time>2023-11-19T07:56:52Z</time>
      </trkpt>
      <trkpt lat="49.28646" lon="-0.11929">
        <ele>4.5</ele>
        <time>2023-11-19T07:56:53Z</time>
      </trkpt>
      <trkpt lat="49.28646" lon="-0.11929">
        <ele>4.5</ele>
        <time>2023-11-19T07:56:54Z</time>
      </trkpt>
      <trkpt lat="49.28646" lon="-0.11929">
        <ele>4.5</ele>
        <time>2023-11-19T07:56:55Z</time>
      </trkpt>
      <trkpt lat="49.28646" lon="-0.11929">
        <ele>4.5</ele>
        <time>2023-11-19T07:56:56Z</time>
      </trkpt>
      <trkpt lat="49.28646" lon="-0.11929">
        <ele>4.5</ele>
        <time>2023-11-19T07:56:57Z</time>
      </trkpt>
      <trkpt lat="49.28646" lon="-0.11929">
        <ele>4.5</ele>
        <time>2023-11-19T07:56:58Z</time>
      </trkpt>
      <trkpt lat="49.28644" lon="-0.11925">
        <ele>4.5</ele>
        <time>2023-11-19T08:05:00Z</time>
      </trkpt>
      <trkpt lat="49.28643" lon="-0.11924">
        <ele>4.5</ele>
        <time>2023-11-19T08:05:01Z</time>
      </trkpt>
      <trkpt lat="49.28643" lon="-0.11923">
        <ele>4.5</ele>
        <time>2023-11-19T08:05:02Z</time>
      </trkpt>
      <trkpt lat="49.28643" lon="-0.11922">
        <ele>4.5</ele>
        <time>2023-11-19T08:05:03Z</time>
      </trkpt>
      <trkpt lat="49.28643" lon="-0.11922">
        <ele>4.5</ele>
        <time>2023-11-19T08:05:04Z</time>
      </trkpt>
      <trkpt lat="49.28643" lon="-0.11922">
        <ele>4.5</ele>
        <time>2023-11-19T08:05:05Z</time>
      </trkpt>
      <trkpt lat="49.28643" lon="-0.11922">
        <ele>4.5</ele>
        <time>2023-11-19T08:05:06Z</time>
      </trkpt>
      <trkpt lat="49.28643" lon="-0.11922">
        <ele>4.5</ele>
        <time>2023-11-19T08:05:07Z</time>
      </trkpt>
      <trkpt lat="49.28643" lon="-0.11922">
        <ele>4.5</ele>
        <time>2023-11-19T08:05:08Z</time>
      </trkpt>
      <trkpt lat="49.28643" lon="-0.11922">
        <ele>4.5</ele>
        <time>2023-11-19T08:05:09Z</time>
      </trkpt>
      <trkpt lat="49.28643" lon="-0.11922">
        <ele>4.5</ele>
        <time>2023-11-19T08:05:10Z</time>
      </trkpt>
      <trkpt lat="49.28643" lon="-0.11922">
        <ele>4.5</ele>
        <time>2023-11-19T08:05:11Z</time>
      </trkpt>
      <trkpt lat="49.28643" lon="-0.11922">
        <ele>4.5</ele>
        <time>2023-11-19T08:05:12Z</time>
      </trkpt>
      <trkpt lat="49.28643" lon="-0.11922">
        <ele>4.5</ele>
        <time>2023-11-19T08:05:13Z</time>
      </trkpt>
      <trkpt lat="49.28643" lon="-0.11919">
        <ele>4.5</ele>
        <time>2023-11-19T08:06:41Z</time>
      </trkpt>
      <trkpt lat="49.28644" lon="-0.11917">
        <ele>4.5</ele>
        <time>2023-11-19T08:06:42Z</time>
      </trkpt>
      <trkpt lat="49.28644" lon="-0.11914">
        <ele>4.5</ele>
        <time>2023-11-19T08:06:43Z</time>
      </trkpt>
      <trkpt lat="49.28644" lon="-0.11912">
        <ele>4.5</ele>
        <time>2023-11-19T08:06:44Z</time>
      </trkpt>
      <trkpt lat="49.28643" lon="-0.1191">
        <ele>4.5</ele>
        <time>2023-11-19T08:06:45Z</time>
      </trkpt>
      <trkpt lat="49.28643" lon="-0.11907">
        <ele>4.6</ele>
        <time>2023-11-19T08:06:46Z</time>
      </trkpt>
      <trkpt lat="49.28643" lon="-0.11905">
        <ele>4.6</ele>
        <time>2023-11-19T08:06:47Z</time>
      </trkpt>
      <trkpt lat="49.28643" lon="-0.11903">
        <ele>4.6</ele>
        <time>2023-11-19T08:06:48Z</time>
      </trkpt>
      <trkpt lat="49.28643" lon="-0.119">
        <ele>4.6</ele>
        <time>2023-11-19T08:06:49Z</time>
      </trkpt>
      <trkpt lat="49.28643" lon="-0.11895">
        <ele>4.6</ele>
        <time>2023-11-19T08:06:50Z</time>
      </trkpt>
      <trkpt lat="49.28644" lon="-0.11893">
        <ele>4.6</ele>
        <time>2023-11-19T08:06:51Z</time>
      </trkpt>
      <trkpt lat="49.28644" lon="-0.11888">
        <ele>4.6</ele>
        <time>2023-11-19T08:06:52Z</time>
      </trkpt>
      <trkpt lat="49.28644" lon="-0.11886">
        <ele>4.6</ele>
        <time>2023-11-19T08:06:53Z</time>
      </trkpt>
      <trkpt lat="49.28644" lon="-0.11881">
        <ele>4.6</ele>
        <time>2023-11-19T08:06:54Z</time>
      </trkpt>
      <trkpt lat="49.28642" lon="-0.11877">
        <ele>4.6</ele>
        <time>2023-11-19T08:06:55Z</time>
      </trkpt>
      <trkpt lat="49.28641" lon="-0.11873">
        <ele>4.6</ele>
        <time>2023-11-19T08:06:56Z</time>
      </trkpt>
      <trkpt lat="49.28638" lon="-0.11869">
        <ele>4.6</ele>
        <time>2023-11-19T08:06:57Z</time>
      </trkpt>
      <trkpt lat="49.28636" lon="-0.11865">
        <ele>4.6</ele>
        <time>2023-11-19T08:06:58Z</time>
      </trkpt>
      <trkpt lat="49.28633" lon="-0.11861">
        <ele>4.5</ele>
        <time>2023-11-19T08:06:59Z</time>
      </trkpt>
      <trkpt lat="49.28631" lon="-0.11857">
        <ele>4.5</ele>
        <time>2023-11-19T08:07:00Z</time>
      </trkpt>
      <trkpt lat="49.28629" lon="-0.1185">
        <ele>4.6</ele>
        <time>2023-11-19T08:07:01Z</time>
      </trkpt>
      <trkpt lat="49.28629" lon="-0.11842">
        <ele>4.6</ele>
        <time>2023-11-19T08:07:02Z</time>
      </trkpt>
      <trkpt lat="49.2863" lon="-0.11835">
        <ele>4.6</ele>
        <time>2023-11-19T08:07:03Z</time>
      </trkpt>
      <trkpt lat="49.28631" lon="-0.11828">
        <ele>4.6</ele>
        <time>2023-11-19T08:07:04Z</time>
      </trkpt>
      <trkpt lat="49.28633" lon="-0.11822">
        <ele>4.6</ele>
        <time>2023-11-19T08:07:05Z</time>
      </trkpt>
      <trkpt lat="49.28634" lon="-0.11816">
        <ele>4.6</ele>
        <time>2023-11-19T08:07:06Z</time>
      </trkpt>
      <trkpt lat="49.28636" lon="-0.1181">
        <ele>4.7</ele>
        <time>2023-11-19T08:07:07Z</time>
      </trkpt>
      <trkpt lat="49.28637" lon="-0.11803">
        <ele>4.7</ele>
        <time>2023-11-19T08:07:08Z</time>
      </trkpt>
      <trkpt lat="49.28638" lon="-0.11795">
        <ele>4.7</ele>
        <time>2023-11-19T08:07:09Z</time>
      </trkpt>
      <trkpt lat="49.2864" lon="-0.11788">
        <ele>4.8</ele>
        <time>2023-11-19T08:07:10Z</time>
      </trkpt>
      <trkpt lat="49.28641" lon="-0.1178">
        <ele>4.8</ele>
        <time>2023-11-19T08:07:11Z</time>
      </trkpt>
      <trkpt lat="49.28642" lon="-0.11772">
        <ele>4.8</ele>
        <time>2023-11-19T08:07:12Z</time>
      </trkpt>
      <trkpt lat="49.28643" lon="-0.11764">
        <ele>4.8</ele>
        <time>2023-11-19T08:07:13Z</time>
      </trkpt>
      <trkpt lat="49.28645" lon="-0.11757">
        <ele>4.9</ele>
        <time>2023-11-19T08:07:14Z</time>
      </trkpt>
      <trkpt lat="49.28647" lon="-0.11749">
        <ele>4.9</ele>
        <time>2023-11-19T08:07:15Z</time>
      </trkpt>
      <trkpt lat="49.28648" lon="-0.11741">
        <ele>4.9</ele>
        <time>2023-11-19T08:07:16Z</time>
      </trkpt>
      <trkpt lat="49.2865" lon="-0.11733">
        <ele>4.9</ele>
        <time>2023-11-19T08:07:17Z</time>
      </trkpt>
      <trkpt lat="49.28652" lon="-0.11725">
        <ele>5</ele>
        <time>2023-11-19T08:07:18Z</time>
      </trkpt>
      <trkpt lat="49.28654" lon="-0.11717">
        <ele>5</ele>
        <time>2023-11-19T08:07:19Z</time>
      </trkpt>
      <trkpt lat="49.28656" lon="-0.1171">
        <ele>5</ele>
        <time>2023-11-19T08:07:20Z</time>
      </trkpt>
      <trkpt lat="49.28657" lon="-0.11702">
        <ele>5</ele>
        <time>2023-11-19T08:07:21Z</time>
      </trkpt>
      <trkpt lat="49.28658" lon="-0.11695">
        <ele>5.1</ele>
        <time>2023-11-19T08:07:22Z</time>
      </trkpt>
      <trkpt lat="49.28658" lon="-0.11689">
        <ele>5.1</ele>
        <time>2023-11-19T08:07:23Z</time>
      </trkpt>
      <trkpt lat="49.28657" lon="-0.11683">
        <ele>5.1</ele>
        <time>2023-11-19T08:07:24Z</time>
      </trkpt>
      <trkpt lat="49.28655" lon="-0.11679">
        <ele>5.1</ele>
        <time>2023-11-19T08:07:25Z</time>
      </trkpt>
      <trkpt lat="49.2865" lon="-0.11677">
        <ele>5.1</ele>
        <time>2023-11-19T08:07:26Z</time>
      </trkpt>
      <trkpt lat="49.28646" lon="-0.11678">
        <ele>5.2</ele>
        <time>2023-11-19T08:07:27Z</time>
      </trkpt>
      <trkpt lat="49.28641" lon="-0.1168">
        <ele>5.2</ele>
        <time>2023-11-19T08:07:28Z</time>
      </trkpt>
      <trkpt lat="49.28636" lon="-0.11682">
        <ele>5.2</ele>
        <time>2023-11-19T08:07:29Z</time>
      </trkpt>
      <trkpt lat="49.28631" lon="-0.11683">
        <ele>5.2</ele>
        <time>2023-11-19T08:07:30Z</time>
      </trkpt>
      <trkpt lat="49.28625" lon="-0.11685">
        <ele>5.3</ele>
        <time>2023-11-19T08:07:31Z</time>
      </trkpt>
      <trkpt lat="49.2862" lon="-0.11687">
        <ele>5.3</ele>
        <time>2023-11-19T08:07:32Z</time>
      </trkpt>
      <trkpt lat="49.28615" lon="-0.1169">
        <ele>5.3</ele>
        <time>2023-11-19T08:07:33Z</time>
      </trkpt>
      <trkpt lat="49.28609" lon="-0.11692">
        <ele>5.3</ele>
        <time>2023-11-19T08:07:34Z</time>
      </trkpt>
      <trkpt lat="49.28603" lon="-0.11694">
        <ele>5.4</ele>
        <time>2023-11-19T08:07:35Z</time>
      </trkpt>
      <trkpt lat="49.28597" lon="-0.11696">
        <ele>5.4</ele>
        <time>2023-11-19T08:07:36Z</time>
      </trkpt>
      <trkpt lat="49.28592" lon="-0.11697">
        <ele>5.4</ele>
        <time>2023-11-19T08:07:37Z</time>
      </trkpt>
      <trkpt lat="49.28586" lon="-0.11699">
        <ele>5.4</ele>
        <time>2023-11-19T08:07:38Z</time>
      </trkpt>
      <trkpt lat="49.2858" lon="-0.11701">
        <ele>5.4</ele>
        <time>2023-11-19T08:07:39Z</time>
      </trkpt>
      <trkpt lat="49.28574" lon="-0.11702">
        <ele>5.4</ele>
        <time>2023-11-19T08:07:40Z</time>
      </trkpt>
      <trkpt lat="49.28568" lon="-0.11703">
        <ele>5.3</ele>
        <time>2023-11-19T08:07:41Z</time>
      </trkpt>
      <trkpt lat="49.28561" lon="-0.11704">
        <ele>5.3</ele>
        <time>2023-11-19T08:07:42Z</time>
      </trkpt>
      <trkpt lat="49.28554" lon="-0.11705">
        <ele>5.3</ele>
        <time>2023-11-19T08:07:43Z</time>
      </trkpt>
      <trkpt lat="49.28548" lon="-0.11706">
        <ele>5.3</ele>
        <time>2023-11-19T08:07:44Z</time>
      </trkpt>
      <trkpt lat="49.28541" lon="-0.11706">
        <ele>5.3</ele>
        <time>2023-11-19T08:07:45Z</time>
      </trkpt>
      <trkpt lat="49.28534" lon="-0.11707">
        <ele>5.3</ele>
        <time>2023-11-19T08:07:46Z</time>
      </trkpt>
      <trkpt lat="49.28526" lon="-0.11706">
        <ele>5.3</ele>
        <time>2023-11-19T08:07:47Z</time>
      </trkpt>
      <trkpt lat="49.28519" lon="-0.11704">
        <ele>5.2</ele>
        <time>2023-11-19T08:07:48Z</time>
      </trkpt>
      <trkpt lat="49.28512" lon="-0.11702">
        <ele>5.2</ele>
        <time>2023-11-19T08:07:49Z</time>
      </trkpt>
      <trkpt lat="49.28505" lon="-0.117">
        <ele>5.2</ele>
        <time>2023-11-19T08:07:50Z</time>
      </trkpt>
      <trkpt lat="49.28498" lon="-0.11698">
        <ele>5.2</ele>
        <time>2023-11-19T08:07:51Z</time>
      </trkpt>
      <trkpt lat="49.28492" lon="-0.11696">
        <ele>5.2</ele>
        <time>2023-11-19T08:07:52Z</time>
      </trkpt>
      <trkpt lat="49.28485" lon="-0.11695">
        <ele>5.2</ele>
        <time>2023-11-19T08:07:53Z</time>
      </trkpt>
      <trkpt lat="49.28479" lon="-0.11694">
        <ele>5.2</ele>
        <time>2023-11-19T08:07:54Z</time>
      </trkpt>
      <trkpt lat="49.28473" lon="-0.11692">
        <ele>5.2</ele>
        <time>2023-11-19T08:07:55Z</time>
      </trkpt>
      <trkpt lat="49.28467" lon="-0.11691">
        <ele>5.2</ele>
        <time>2023-11-19T08:07:56Z</time>
      </trkpt>
      <trkpt lat="49.28461" lon="-0.1169">
        <ele>5.2</ele>
        <time>2023-11-19T08:07:57Z</time>
      </trkpt>
      <trkpt lat="49.28454" lon="-0.11689">
        <ele>5.1</ele>
        <time>2023-11-19T08:07:58Z</time>
      </trkpt>
      <trkpt lat="49.28448" lon="-0.11687">
        <ele>5.1</ele>
        <time>2023-11-19T08:07:59Z</time>
      </trkpt>
      <trkpt lat="49.28442" lon="-0.11685">
        <ele>5.1</ele>
        <time>2023-11-19T08:08:00Z</time>
      </trkpt>
      <trkpt lat="49.28435" lon="-0.11684">
        <ele>5.1</ele>
        <time>2023-11-19T08:08:01Z</time>
      </trkpt>
      <trkpt lat="49.28429" lon="-0.11682">
        <ele>5.1</ele>
        <time>2023-11-19T08:08:02Z</time>
      </trkpt>
      <trkpt lat="49.28422" lon="-0.1168">
        <ele>5.1</ele>
        <time>2023-11-19T08:08:03Z</time>
      </trkpt>
      <trkpt lat="49.28416" lon="-0.11678">
        <ele>5.1</ele>
        <time>2023-11-19T08:08:04Z</time>
      </trkpt>
      <trkpt lat="49.28409" lon="-0.11676">
        <ele>5</ele>
        <time>2023-11-19T08:08:05Z</time>
      </trkpt>
      <trkpt lat="49.28402" lon="-0.11675">
        <ele>5</ele>
        <time>2023-11-19T08:08:06Z</time>
      </trkpt>
      <trkpt lat="49.28395" lon="-0.11673">
        <ele>5</ele>
        <time>2023-11-19T08:08:07Z</time>
      </trkpt>
      <trkpt lat="49.28389" lon="-0.11672">
        <ele>5</ele>
        <time>2023-11-19T08:08:08Z</time>
      </trkpt>
      <trkpt lat="49.28382" lon="-0.1167">
        <ele>5</ele>
        <time>2023-11-19T08:08:09Z</time>
      </trkpt>
      <trkpt lat="49.28375" lon="-0.11669">
        <ele>5</ele>
        <time>2023-11-19T08:08:10Z</time>
      </trkpt>
      <trkpt lat="49.28369" lon="-0.11667">
        <ele>5</ele>
        <time>2023-11-19T08:08:11Z</time>
      </trkpt>
      <trkpt lat="49.28363" lon="-0.11666">
        <ele>4.9</ele>
        <time>2023-11-19T08:08:12Z</time>
      </trkpt>
      <trkpt lat="49.28356" lon="-0.11664">
        <ele>4.9</ele>
        <time>2023-11-19T08:08:13Z</time>
      </trkpt>
      <trkpt lat="49.28349" lon="-0.11663">
        <ele>4.9</ele>
        <time>2023-11-19T08:08:14Z</time>
      </trkpt>
      <trkpt lat="49.28343" lon="-0.11662">
        <ele>4.9</ele>
        <time>2023-11-19T08:08:15Z</time>
      </trkpt>
      <trkpt lat="49.28336" lon="-0.1166">
        <ele>4.9</ele>
        <time>2023-11-19T08:08:16Z</time>
      </trkpt>
      <trkpt lat="49.2833" lon="-0.11659">
        <ele>4.9</ele>
        <time>2023-11-19T08:08:17Z</time>
      </trkpt>
      <trkpt lat="49.28324" lon="-0.11657">
        <ele>4.8</ele>
        <time>2023-11-19T08:08:18Z</time>
      </trkpt>
      <trkpt lat="49.28317" lon="-0.11656">
        <ele>4.8</ele>
        <time>2023-11-19T08:08:19Z</time>
      </trkpt>
      <trkpt lat="49.28312" lon="-0.11656">
        <ele>4.8</ele>
        <time>2023-11-19T08:08:20Z</time>
      </trkpt>
      <trkpt lat="49.28306" lon="-0.11658">
        <ele>4.9</ele>
        <time>2023-11-19T08:08:21Z</time>
      </trkpt>
      <trkpt lat="49.283" lon="-0.11661">
        <ele>4.9</ele>
        <time>2023-11-19T08:08:22Z</time>
      </trkpt>
      <trkpt lat="49.28294" lon="-0.11665">
        <ele>4.9</ele>
        <time>2023-11-19T08:08:23Z</time>
      </trkpt>
      <trkpt lat="49.28289" lon="-0.11668">
        <ele>4.9</ele>
        <time>2023-11-19T08:08:24Z</time>
      </trkpt>
      <trkpt lat="49.28283" lon="-0.11669">
        <ele>5.1</ele>
        <time>2023-11-19T08:08:25Z</time>
      </trkpt>
      <trkpt lat="49.28277" lon="-0.11669">
        <ele>5.3</ele>
        <time>2023-11-19T08:08:26Z</time>
      </trkpt>
      <trkpt lat="49.28271" lon="-0.11667">
        <ele>5.6</ele>
        <time>2023-11-19T08:08:27Z</time>
      </trkpt>
      <trkpt lat="49.28265" lon="-0.11663">
        <ele>5.8</ele>
        <time>2023-11-19T08:08:28Z</time>
      </trkpt>
      <trkpt lat="49.28259" lon="-0.11659">
        <ele>6</ele>
        <time>2023-11-19T08:08:29Z</time>
      </trkpt>
      <trkpt lat="49.28253" lon="-0.11655">
        <ele>5.9</ele>
        <time>2023-11-19T08:08:30Z</time>
      </trkpt>
      <trkpt lat="49.28246" lon="-0.1165">
        <ele>5.9</ele>
        <time>2023-11-19T08:08:31Z</time>
      </trkpt>
      <trkpt lat="49.2824" lon="-0.11647">
        <ele>5.9</ele>
        <time>2023-11-19T08:08:32Z</time>
      </trkpt>
      <trkpt lat="49.28233" lon="-0.11645">
        <ele>5.9</ele>
        <time>2023-11-19T08:08:33Z</time>
      </trkpt>
      <trkpt lat="49.28226" lon="-0.11645">
        <ele>5.9</ele>
        <time>2023-11-19T08:08:34Z</time>
      </trkpt>
      <trkpt lat="49.28219" lon="-0.11645">
        <ele>6</ele>
        <time>2023-11-19T08:08:35Z</time>
      </trkpt>
      <trkpt lat="49.28212" lon="-0.11646">
        <ele>6</ele>
        <time>2023-11-19T08:08:36Z</time>
      </trkpt>
      <trkpt lat="49.28205" lon="-0.11646">
        <ele>6</ele>
        <time>2023-11-19T08:08:37Z</time>
      </trkpt>
      <trkpt lat="49.28198" lon="-0.11646">
        <ele>6</ele>
        <time>2023-11-19T08:08:38Z</time>
      </trkpt>
      <trkpt lat="49.28191" lon="-0.11645">
        <ele>6</ele>
        <time>2023-11-19T08:08:39Z</time>
      </trkpt>
      <trkpt lat="49.28185" lon="-0.11644">
        <ele>6</ele>
        <time>2023-11-19T08:08:40Z</time>
      </trkpt>
      <trkpt lat="49.28178" lon="-0.11644">
        <ele>6</ele>
        <time>2023-11-19T08:08:41Z</time>
      </trkpt>
      <trkpt lat="49.28172" lon="-0.11644">
        <ele>5.9</ele>
        <time>2023-11-19T08:08:42Z</time>
      </trkpt>
      <trkpt lat="49.28165" lon="-0.11644">
        <ele>5.8</ele>
        <time>2023-11-19T08:08:43Z</time>
      </trkpt>
      <trkpt lat="49.28158" lon="-0.11643">
        <ele>5.8</ele>
        <time>2023-11-19T08:08:44Z</time>
      </trkpt>
      <trkpt lat="49.28151" lon="-0.11643">
        <ele>5.7</ele>
        <time>2023-11-19T08:08:45Z</time>
      </trkpt>
      <trkpt lat="49.28144" lon="-0.11643">
        <ele>5.6</ele>
        <time>2023-11-19T08:08:46Z</time>
      </trkpt>
      <trkpt lat="49.28137" lon="-0.11643">
        <ele>5.6</ele>
        <time>2023-11-19T08:08:47Z</time>
      </trkpt>
      <trkpt lat="49.2813" lon="-0.11643">
        <ele>5.5</ele>
        <time>2023-11-19T08:08:48Z</time>
      </trkpt>
      <trkpt lat="49.28123" lon="-0.11643">
        <ele>5.4</ele>
        <time>2023-11-19T08:08:49Z</time>
      </trkpt>
      <trkpt lat="49.28115" lon="-0.11643">
        <ele>5.3</ele>
        <time>2023-11-19T08:08:50Z</time>
      </trkpt>
      <trkpt lat="49.28108" lon="-0.11642">
        <ele>5.2</ele>
        <time>2023-11-19T08:08:51Z</time>
      </trkpt>
      <trkpt lat="49.28101" lon="-0.11642">
        <ele>5.1</ele>
        <time>2023-11-19T08:08:52Z</time>
      </trkpt>
      <trkpt lat="49.28094" lon="-0.11642">
        <ele>5</ele>
        <time>2023-11-19T08:08:53Z</time>
      </trkpt>
      <trkpt lat="49.28086" lon="-0.11642">
        <ele>4.9</ele>
        <time>2023-11-19T08:08:54Z</time>
      </trkpt>
      <trkpt lat="49.2808" lon="-0.11642">
        <ele>4.9</ele>
        <time>2023-11-19T08:08:55Z</time>
      </trkpt>
      <trkpt lat="49.28073" lon="-0.11642">
        <ele>4.8</ele>
        <time>2023-11-19T08:08:56Z</time>
      </trkpt>
      <trkpt lat="49.28065" lon="-0.11642">
        <ele>4.7</ele>
        <time>2023-11-19T08:08:57Z</time>
      </trkpt>
      <trkpt lat="49.28059" lon="-0.11642">
        <ele>4.6</ele>
        <time>2023-11-19T08:08:58Z</time>
      </trkpt>
      <trkpt lat="49.28052" lon="-0.11641">
        <ele>4.6</ele>
        <time>2023-11-19T08:08:59Z</time>
      </trkpt>
      <trkpt lat="49.28046" lon="-0.11641">
        <ele>4.5</ele>
        <time>2023-11-19T08:09:00Z</time>
      </trkpt>
      <trkpt lat="49.2804" lon="-0.11641">
        <ele>4.5</ele>
        <time>2023-11-19T08:09:01Z</time>
      </trkpt>
      <trkpt lat="49.28033" lon="-0.11641">
        <ele>4.5</ele>
        <time>2023-11-19T08:09:02Z</time>
      </trkpt>
      <trkpt lat="49.28027" lon="-0.11641">
        <ele>4.5</ele>
        <time>2023-11-19T08:09:03Z</time>
      </trkpt>
      <trkpt lat="49.2802" lon="-0.11641">
        <ele>4.5</ele>
        <time>2023-11-19T08:09:04Z</time>
      </trkpt>
      <trkpt lat="49.28013" lon="-0.11641">
        <ele>4.4</ele>
        <time>2023-11-19T08:09:05Z</time>
      </trkpt>
      <trkpt lat="49.28006" lon="-0.11642">
        <ele>4.4</ele>
        <time>2023-11-19T08:09:06Z</time>
      </trkpt>
      <trkpt lat="49.27999" lon="-0.11643">
        <ele>4.4</ele>
        <time>2023-11-19T08:09:07Z</time>
      </trkpt>
      <trkpt lat="49.27992" lon="-0.11643">
        <ele>4.4</ele>
        <time>2023-11-19T08:09:08Z</time>
      </trkpt>
      <trkpt lat="49.27985" lon="-0.11643">
        <ele>4.5</ele>
        <time>2023-11-19T08:09:09Z</time>
      </trkpt>
      <trkpt lat="49.27979" lon="-0.11643">
        <ele>4.5</ele>
        <time>2023-11-19T08:09:10Z</time>
      </trkpt>
      <trkpt lat="49.27972" lon="-0.11643">
        <ele>4.5</ele>
        <time>2023-11-19T08:09:11Z</time>
      </trkpt>
      <trkpt lat="49.27966" lon="-0.11643">
        <ele>4.5</ele>
        <time>2023-11-19T08:09:12Z</time>
      </trkpt>
      <trkpt lat="49.2796" lon="-0.11643">
        <ele>4.6</ele>
        <time>2023-11-19T08:09:13Z</time>
      </trkpt>
      <trkpt lat="49.27954" lon="-0.11644">
        <ele>4.6</ele>
        <time>2023-11-19T08:09:14Z</time>
      </trkpt>
      <trkpt lat="49.27947" lon="-0.11644">
        <ele>4.6</ele>
        <time>2023-11-19T08:09:15Z</time>
      </trkpt>
      <trkpt lat="49.2794" lon="-0.11644">
        <ele>4.6</ele>
        <time>2023-11-19T08:09:16Z</time>
      </trkpt>
      <trkpt lat="49.27933" lon="-0.11644">
        <ele>4.6</ele>
        <time>2023-11-19T08:09:17Z</time>
      </trkpt>
      <trkpt lat="49.27926" lon="-0.11644">
        <ele>4.6</ele>
        <time>2023-11-19T08:09:18Z</time>
      </trkpt>
      <trkpt lat="49.27919" lon="-0.11645">
        <ele>4.6</ele>
        <time>2023-11-19T08:09:19Z</time>
      </trkpt>
      <trkpt lat="49.27912" lon="-0.11644">
        <ele>4.6</ele>
        <time>2023-11-19T08:09:20Z</time>
      </trkpt>
      <trkpt lat="49.27905" lon="-0.11644">
        <ele>4.6</ele>
        <time>2023-11-19T08:09:21Z</time>
      </trkpt>
      <trkpt lat="49.27899" lon="-0.11644">
        <ele>4.6</ele>
        <time>2023-11-19T08:09:22Z</time>
      </trkpt>
      <trkpt lat="49.27892" lon="-0.11645">
        <ele>4.6</ele>
        <time>2023-11-19T08:09:23Z</time>
      </trkpt>
      <trkpt lat="49.27885" lon="-0.11645">
        <ele>4.6</ele>
        <time>2023-11-19T08:09:24Z</time>
      </trkpt>
      <trkpt lat="49.27878" lon="-0.11646">
        <ele>4.6</ele>
        <time>2023-11-19T08:09:25Z</time>
      </trkpt>
      <trkpt lat="49.27871" lon="-0.11647">
        <ele>4.6</ele>
        <time>2023-11-19T08:09:26Z</time>
      </trkpt>
      <trkpt lat="49.27865" lon="-0.11648">
        <ele>4.6</ele>
        <time>2023-11-19T08:09:27Z</time>
      </trkpt>
      <trkpt lat="49.27858" lon="-0.1165">
        <ele>4.5</ele>
        <time>2023-11-19T08:09:28Z</time>
      </trkpt>
      <trkpt lat="49.27852" lon="-0.11652">
        <ele>4.5</ele>
        <time>2023-11-19T08:09:29Z</time>
      </trkpt>
      <trkpt lat="49.27845" lon="-0.11654">
        <ele>4.5</ele>
        <time>2023-11-19T08:09:30Z</time>
      </trkpt>
      <trkpt lat="49.27839" lon="-0.11658">
        <ele>4.4</ele>
        <time>2023-11-19T08:09:31Z</time>
      </trkpt>
      <trkpt lat="49.27833" lon="-0.11662">
        <ele>4.4</ele>
        <time>2023-11-19T08:09:32Z</time>
      </trkpt>
      <trkpt lat="49.27826" lon="-0.11665">
        <ele>4.3</ele>
        <time>2023-11-19T08:09:33Z</time>
      </trkpt>
      <trkpt lat="49.2782" lon="-0.11669">
        <ele>4.2</ele>
        <time>2023-11-19T08:09:34Z</time>
      </trkpt>
      <trkpt lat="49.27813" lon="-0.11673">
        <ele>4.2</ele>
        <time>2023-11-19T08:09:35Z</time>
      </trkpt>
      <trkpt lat="49.27807" lon="-0.11676">
        <ele>4.1</ele>
        <time>2023-11-19T08:09:36Z</time>
      </trkpt>
      <trkpt lat="49.278" lon="-0.1168">
        <ele>4</ele>
        <time>2023-11-19T08:09:37Z</time>
      </trkpt>
      <trkpt lat="49.27794" lon="-0.11684">
        <ele>4</ele>
        <time>2023-11-19T08:09:38Z</time>
      </trkpt>
      <trkpt lat="49.27788" lon="-0.11687">
        <ele>3.9</ele>
        <time>2023-11-19T08:09:39Z</time>
      </trkpt>
      <trkpt lat="49.27781" lon="-0.11691">
        <ele>3.8</ele>
        <time>2023-11-19T08:09:40Z</time>
      </trkpt>
      <trkpt lat="49.27774" lon="-0.11694">
        <ele>3.8</ele>
        <time>2023-11-19T08:09:41Z</time>
      </trkpt>
      <trkpt lat="49.27768" lon="-0.11698">
        <ele>3.8</ele>
        <time>2023-11-19T08:09:42Z</time>
      </trkpt>
      <trkpt lat="49.27761" lon="-0.11702">
        <ele>3.7</ele>
        <time>2023-11-19T08:09:43Z</time>
      </trkpt>
      <trkpt lat="49.27755" lon="-0.11706">
        <ele>3.7</ele>
        <time>2023-11-19T08:09:44Z</time>
      </trkpt>
      <trkpt lat="49.27748" lon="-0.1171">
        <ele>3.7</ele>
        <time>2023-11-19T08:09:45Z</time>
      </trkpt>
      <trkpt lat="49.27742" lon="-0.11713">
        <ele>3.7</ele>
        <time>2023-11-19T08:09:46Z</time>
      </trkpt>
      <trkpt lat="49.27736" lon="-0.11715">
        <ele>3.7</ele>
        <time>2023-11-19T08:09:47Z</time>
      </trkpt>
      <trkpt lat="49.27729" lon="-0.11717">
        <ele>3.7</ele>
        <time>2023-11-19T08:09:48Z</time>
      </trkpt>
      <trkpt lat="49.27722" lon="-0.11718">
        <ele>3.7</ele>
        <time>2023-11-19T08:09:49Z</time>
      </trkpt>
      <trkpt lat="49.27715" lon="-0.11719">
        <ele>3.7</ele>
        <time>2023-11-19T08:09:50Z</time>
      </trkpt>
      <trkpt lat="49.27708" lon="-0.11719">
        <ele>3.7</ele>
        <time>2023-11-19T08:09:51Z</time>
      </trkpt>
      <trkpt lat="49.27701" lon="-0.11718">
        <ele>3.7</ele>
        <time>2023-11-19T08:09:52Z</time>
      </trkpt>
      <trkpt lat="49.27694" lon="-0.11718">
        <ele>3.7</ele>
        <time>2023-11-19T08:09:53Z</time>
      </trkpt>
      <trkpt lat="49.27688" lon="-0.11717">
        <ele>3.7</ele>
        <time>2023-11-19T08:09:54Z</time>
      </trkpt>
      <trkpt lat="49.27681" lon="-0.11715">
        <ele>3.7</ele>
        <time>2023-11-19T08:09:55Z</time>
      </trkpt>
      <trkpt lat="49.27675" lon="-0.11713">
        <ele>3.8</ele>
        <time>2023-11-19T08:09:56Z</time>
      </trkpt>
      <trkpt lat="49.27669" lon="-0.1171">
        <ele>3.8</ele>
        <time>2023-11-19T08:09:57Z</time>
      </trkpt>
      <trkpt lat="49.27663" lon="-0.11707">
        <ele>3.8</ele>
        <time>2023-11-19T08:09:58Z</time>
      </trkpt>
      <trkpt lat="49.27656" lon="-0.11703">
        <ele>3.9</ele>
        <time>2023-11-19T08:09:59Z</time>
      </trkpt>
      <trkpt lat="49.27649" lon="-0.11699">
        <ele>3.9</ele>
        <time>2023-11-19T08:10:00Z</time>
      </trkpt>
      <trkpt lat="49.27642" lon="-0.11695">
        <ele>4</ele>
        <time>2023-11-19T08:10:01Z</time>
      </trkpt>
      <trkpt lat="49.27636" lon="-0.1169">
        <ele>4</ele>
        <time>2023-11-19T08:10:02Z</time>
      </trkpt>
      <trkpt lat="49.27629" lon="-0.11686">
        <ele>4</ele>
        <time>2023-11-19T08:10:03Z</time>
      </trkpt>
      <trkpt lat="49.27622" lon="-0.11682">
        <ele>4</ele>
        <time>2023-11-19T08:10:04Z</time>
      </trkpt>
      <trkpt lat="49.27616" lon="-0.11679">
        <ele>4</ele>
        <time>2023-11-19T08:10:05Z</time>
      </trkpt>
      <trkpt lat="49.2761" lon="-0.11675">
        <ele>4</ele>
        <time>2023-11-19T08:10:06Z</time>
      </trkpt>
      <trkpt lat="49.27603" lon="-0.11672">
        <ele>4</ele>
        <time>2023-11-19T08:10:07Z</time>
      </trkpt>
      <trkpt lat="49.27597" lon="-0.11669">
        <ele>4</ele>
        <time>2023-11-19T08:10:08Z</time>
      </trkpt>
      <trkpt lat="49.2759" lon="-0.11667">
        <ele>4</ele>
        <time>2023-11-19T08:10:09Z</time>
      </trkpt>
      <trkpt lat="49.27584" lon="-0.11665">
        <ele>4</ele>
        <time>2023-11-19T08:10:10Z</time>
      </trkpt>
      <trkpt lat="49.27577" lon="-0.11664">
        <ele>4</ele>
        <time>2023-11-19T08:10:11Z</time>
      </trkpt>
      <trkpt lat="49.27571" lon="-0.11663">
        <ele>4</ele>
        <time>2023-11-19T08:10:12Z</time>
      </trkpt>
      <trkpt lat="49.27565" lon="-0.11663">
        <ele>4</ele>
        <time>2023-11-19T08:10:13Z</time>
      </trkpt>
      <trkpt lat="49.2756" lon="-0.11664">
        <ele>4</ele>
        <time>2023-11-19T08:10:14Z</time>
      </trkpt>
      <trkpt lat="49.27554" lon="-0.11665">
        <ele>4</ele>
        <time>2023-11-19T08:10:15Z</time>
      </trkpt>
      <trkpt lat="49.27548" lon="-0.11667">
        <ele>4</ele>
        <time>2023-11-19T08:10:16Z</time>
      </trkpt>
      <trkpt lat="49.27541" lon="-0.11667">
        <ele>4</ele>
        <time>2023-11-19T08:10:17Z</time>
      </trkpt>
      <trkpt lat="49.27533" lon="-0.11667">
        <ele>3.9</ele>
        <time>2023-11-19T08:10:18Z</time>
      </trkpt>
      <trkpt lat="49.27527" lon="-0.11666">
        <ele>3.9</ele>
        <time>2023-11-19T08:10:19Z</time>
      </trkpt>
      <trkpt lat="49.2752" lon="-0.11666">
        <ele>3.9</ele>
        <time>2023-11-19T08:10:20Z</time>
      </trkpt>
      <trkpt lat="49.27513" lon="-0.11666">
        <ele>3.9</ele>
        <time>2023-11-19T08:10:21Z</time>
      </trkpt>
      <trkpt lat="49.27506" lon="-0.11666">
        <ele>4</ele>
        <time>2023-11-19T08:10:22Z</time>
      </trkpt>
      <trkpt lat="49.27499" lon="-0.11667">
        <ele>4</ele>
        <time>2023-11-19T08:10:23Z</time>
      </trkpt>
      <trkpt lat="49.27493" lon="-0.11667">
        <ele>4</ele>
        <time>2023-11-19T08:10:24Z</time>
      </trkpt>
      <trkpt lat="49.27487" lon="-0.11668">
        <ele>4</ele>
        <time>2023-11-19T08:10:25Z</time>
      </trkpt>
      <trkpt lat="49.27482" lon="-0.11668">
        <ele>4.1</ele>
        <time>2023-11-19T08:10:26Z</time>
      </trkpt>
      <trkpt lat="49.27476" lon="-0.11668">
        <ele>4.1</ele>
        <time>2023-11-19T08:10:27Z</time>
      </trkpt>
      <trkpt lat="49.27471" lon="-0.11668">
        <ele>4.2</ele>
        <time>2023-11-19T08:10:28Z</time>
      </trkpt>
      <trkpt lat="49.27465" lon="-0.11669">
        <ele>4.2</ele>
        <time>2023-11-19T08:10:29Z</time>
      </trkpt>
      <trkpt lat="49.2746" lon="-0.11669">
        <ele>4.3</ele>
        <time>2023-11-19T08:10:30Z</time>
      </trkpt>
      <trkpt lat="49.27456" lon="-0.11669">
        <ele>4.3</ele>
        <time>2023-11-19T08:10:31Z</time>
      </trkpt>
      <trkpt lat="49.27451" lon="-0.11669">
        <ele>4.4</ele>
        <time>2023-11-19T08:10:32Z</time>
      </trkpt>
      <trkpt lat="49.27447" lon="-0.11669">
        <ele>4.5</ele>
        <time>2023-11-19T08:10:33Z</time>
      </trkpt>
      <trkpt lat="49.27443" lon="-0.11668">
        <ele>4.5</ele>
        <time>2023-11-19T08:10:34Z</time>
      </trkpt>
      <trkpt lat="49.2744" lon="-0.11668">
        <ele>4.6</ele>
        <time>2023-11-19T08:10:35Z</time>
      </trkpt>
      <trkpt lat="49.27436" lon="-0.11668">
        <ele>4.7</ele>
        <time>2023-11-19T08:10:36Z</time>
      </trkpt>
      <trkpt lat="49.27434" lon="-0.11668">
        <ele>4.7</ele>
        <time>2023-11-19T08:10:37Z</time>
      </trkpt>
      <trkpt lat="49.27431" lon="-0.11668">
        <ele>4.8</ele>
        <time>2023-11-19T08:10:38Z</time>
      </trkpt>
      <trkpt lat="49.27427" lon="-0.11666">
        <ele>4.9</ele>
        <time>2023-11-19T08:10:39Z</time>
      </trkpt>
      <trkpt lat="49.27425" lon="-0.11666">
        <ele>4.9</ele>
        <time>2023-11-19T08:10:40Z</time>
      </trkpt>
      <trkpt lat="49.27423" lon="-0.11663">
        <ele>4.9</ele>
        <time>2023-11-19T08:10:41Z</time>
      </trkpt>
      <trkpt lat="49.27421" lon="-0.11657">
        <ele>5</ele>
        <time>2023-11-19T08:10:42Z</time>
      </trkpt>
      <trkpt lat="49.27419" lon="-0.11649">
        <ele>5</ele>
        <time>2023-11-19T08:10:43Z</time>
      </trkpt>
      <trkpt lat="49.27419" lon="-0.11641">
        <ele>5</ele>
        <time>2023-11-19T08:10:44Z</time>
      </trkpt>
      <trkpt lat="49.27419" lon="-0.11633">
        <ele>4.9</ele>
        <time>2023-11-19T08:10:45Z</time>
      </trkpt>
      <trkpt lat="49.27419" lon="-0.11624">
        <ele>4.9</ele>
        <time>2023-11-19T08:10:46Z</time>
      </trkpt>
      <trkpt lat="49.27419" lon="-0.11615">
        <ele>4.9</ele>
        <time>2023-11-19T08:10:47Z</time>
      </trkpt>
      <trkpt lat="49.27419" lon="-0.11606">
        <ele>4.9</ele>
        <time>2023-11-19T08:10:48Z</time>
      </trkpt>
      <trkpt lat="49.2742" lon="-0.11597">
        <ele>5</ele>
        <time>2023-11-19T08:10:49Z</time>
      </trkpt>
      <trkpt lat="49.2742" lon="-0.11587">
        <ele>5</ele>
        <time>2023-11-19T08:10:50Z</time>
      </trkpt>
      <trkpt lat="49.2742" lon="-0.11577">
        <ele>5</ele>
        <time>2023-11-19T08:10:51Z</time>
      </trkpt>
      <trkpt lat="49.2742" lon="-0.11568">
        <ele>5</ele>
        <time>2023-11-19T08:10:52Z</time>
      </trkpt>
      <trkpt lat="49.27421" lon="-0.11558">
        <ele>5</ele>
        <time>2023-11-19T08:10:53Z</time>
      </trkpt>
      <trkpt lat="49.27421" lon="-0.11548">
        <ele>5</ele>
        <time>2023-11-19T08:10:54Z</time>
      </trkpt>
      <trkpt lat="49.27421" lon="-0.11538">
        <ele>5</ele>
        <time>2023-11-19T08:10:55Z</time>
      </trkpt>
      <trkpt lat="49.27421" lon="-0.11528">
        <ele>4.9</ele>
        <time>2023-11-19T08:10:56Z</time>
      </trkpt>
      <trkpt lat="49.27422" lon="-0.11517">
        <ele>4.9</ele>
        <time>2023-11-19T08:10:57Z</time>
      </trkpt>
      <trkpt lat="49.27422" lon="-0.11506">
        <ele>4.9</ele>
        <time>2023-11-19T08:10:58Z</time>
      </trkpt>
      <trkpt lat="49.27422" lon="-0.11495">
        <ele>4.9</ele>
        <time>2023-11-19T08:10:59Z</time>
      </trkpt>
      <trkpt lat="49.27422" lon="-0.11484">
        <ele>4.9</ele>
        <time>2023-11-19T08:11:00Z</time>
      </trkpt>
      <trkpt lat="49.27422" lon="-0.11473">
        <ele>5</ele>
        <time>2023-11-19T08:11:01Z</time>
      </trkpt>
      <trkpt lat="49.27423" lon="-0.11462">
        <ele>5</ele>
        <time>2023-11-19T08:11:02Z</time>
      </trkpt>
      <trkpt lat="49.27423" lon="-0.11451">
        <ele>5</ele>
        <time>2023-11-19T08:11:03Z</time>
      </trkpt>
      <trkpt lat="49.27423" lon="-0.1144">
        <ele>5</ele>
        <time>2023-11-19T08:11:04Z</time>
      </trkpt>
      <trkpt lat="49.27423" lon="-0.11429">
        <ele>5.1</ele>
        <time>2023-11-19T08:11:05Z</time>
      </trkpt>
      <trkpt lat="49.27423" lon="-0.11418">
        <ele>5.1</ele>
        <time>2023-11-19T08:11:06Z</time>
      </trkpt>
      <trkpt lat="49.27423" lon="-0.11407">
        <ele>5.1</ele>
        <time>2023-11-19T08:11:07Z</time>
      </trkpt>
      <trkpt lat="49.27424" lon="-0.11396">
        <ele>5.2</ele>
        <time>2023-11-19T08:11:08Z</time>
      </trkpt>
      <trkpt lat="49.27424" lon="-0.11386">
        <ele>5.2</ele>
        <time>2023-11-19T08:11:09Z</time>
      </trkpt>
      <trkpt lat="49.27424" lon="-0.11376">
        <ele>5.2</ele>
        <time>2023-11-19T08:11:10Z</time>
      </trkpt>
      <trkpt lat="49.27425" lon="-0.11365">
        <ele>5.3</ele>
        <time>2023-11-19T08:11:11Z</time>
      </trkpt>
      <trkpt lat="49.27425" lon="-0.11354">
        <ele>5.3</ele>
        <time>2023-11-19T08:11:12Z</time>
      </trkpt>
      <trkpt lat="49.27425" lon="-0.11342">
        <ele>5.4</ele>
        <time>2023-11-19T08:11:13Z</time>
      </trkpt>
      <trkpt lat="49.27425" lon="-0.11332">
        <ele>5.5</ele>
        <time>2023-11-19T08:11:14Z</time>
      </trkpt>
      <trkpt lat="49.27425" lon="-0.11321">
        <ele>5.6</ele>
        <time>2023-11-19T08:11:15Z</time>
      </trkpt>
      <trkpt lat="49.27425" lon="-0.1131">
        <ele>5.6</ele>
        <time>2023-11-19T08:11:16Z</time>
      </trkpt>
      <trkpt lat="49.27425" lon="-0.113">
        <ele>5.7</ele>
        <time>2023-11-19T08:11:17Z</time>
      </trkpt>
      <trkpt lat="49.27425" lon="-0.11289">
        <ele>5.7</ele>
        <time>2023-11-19T08:11:18Z</time>
      </trkpt>
      <trkpt lat="49.27425" lon="-0.11278">
        <ele>5.8</ele>
        <time>2023-11-19T08:11:19Z</time>
      </trkpt>
      <trkpt lat="49.27425" lon="-0.11267">
        <ele>5.8</ele>
        <time>2023-11-19T08:11:20Z</time>
      </trkpt>
      <trkpt lat="49.27425" lon="-0.11256">
        <ele>5.9</ele>
        <time>2023-11-19T08:11:21Z</time>
      </trkpt>
      <trkpt lat="49.27426" lon="-0.11245">
        <ele>5.9</ele>
        <time>2023-11-19T08:11:22Z</time>
      </trkpt>
      <trkpt lat="49.27426" lon="-0.11234">
        <ele>5.9</ele>
        <time>2023-11-19T08:11:23Z</time>
      </trkpt>
      <trkpt lat="49.27426" lon="-0.11223">
        <ele>6</ele>
        <time>2023-11-19T08:11:24Z</time>
      </trkpt>
      <trkpt lat="49.27426" lon="-0.11213">
        <ele>6</ele>
        <time>2023-11-19T08:11:25Z</time>
      </trkpt>
      <trkpt lat="49.27426" lon="-0.11202">
        <ele>6.1</ele>
        <time>2023-11-19T08:11:26Z</time>
      </trkpt>
      <trkpt lat="49.27426" lon="-0.11191">
        <ele>6.1</ele>
        <time>2023-11-19T08:11:27Z</time>
      </trkpt>
      <trkpt lat="49.27427" lon="-0.1118">
        <ele>6.2</ele>
        <time>2023-11-19T08:11:28Z</time>
      </trkpt>
      <trkpt lat="49.27427" lon="-0.11169">
        <ele>6.2</ele>
        <time>2023-11-19T08:11:29Z</time>
      </trkpt>
      <trkpt lat="49.27427" lon="-0.11159">
        <ele>6.2</ele>
        <time>2023-11-19T08:11:30Z</time>
      </trkpt>
      <trkpt lat="49.27428" lon="-0.11148">
        <ele>6.3</ele>
        <time>2023-11-19T08:11:31Z</time>
      </trkpt>
      <trkpt lat="49.27428" lon="-0.11137">
        <ele>6.3</ele>
        <time>2023-11-19T08:11:32Z</time>
      </trkpt>
      <trkpt lat="49.27429" lon="-0.11127">
        <ele>6.4</ele>
        <time>2023-11-19T08:11:33Z</time>
      </trkpt>
      <trkpt lat="49.27429" lon="-0.11116">
        <ele>6.4</ele>
        <time>2023-11-19T08:11:34Z</time>
      </trkpt>
      <trkpt lat="49.27429" lon="-0.11106">
        <ele>6.4</ele>
        <time>2023-11-19T08:11:35Z</time>
      </trkpt>
      <trkpt lat="49.27429" lon="-0.11094">
        <ele>6.4</ele>
        <time>2023-11-19T08:11:36Z</time>
      </trkpt>
      <trkpt lat="49.27429" lon="-0.11083">
        <ele>6.4</ele>
        <time>2023-11-19T08:11:37Z</time>
      </trkpt>
      <trkpt lat="49.2743" lon="-0.11072">
        <ele>6.4</ele>
        <time>2023-11-19T08:11:38Z</time>
      </trkpt>
      <trkpt lat="49.2743" lon="-0.11062">
        <ele>6.4</ele>
        <time>2023-11-19T08:11:39Z</time>
      </trkpt>
      <trkpt lat="49.2743" lon="-0.11051">
        <ele>6.3</ele>
        <time>2023-11-19T08:11:40Z</time>
      </trkpt>
      <trkpt lat="49.2743" lon="-0.11041">
        <ele>6.3</ele>
        <time>2023-11-19T08:11:41Z</time>
      </trkpt>
      <trkpt lat="49.27431" lon="-0.1103">
        <ele>6.3</ele>
        <time>2023-11-19T08:11:42Z</time>
      </trkpt>
      <trkpt lat="49.27431" lon="-0.11019">
        <ele>6.3</ele>
        <time>2023-11-19T08:11:43Z</time>
      </trkpt>
      <trkpt lat="49.2743" lon="-0.11009">
        <ele>6.3</ele>
        <time>2023-11-19T08:11:44Z</time>
      </trkpt>
      <trkpt lat="49.2743" lon="-0.10998">
        <ele>6.3</ele>
        <time>2023-11-19T08:11:45Z</time>
      </trkpt>
      <trkpt lat="49.27431" lon="-0.10988">
        <ele>6.3</ele>
        <time>2023-11-19T08:11:46Z</time>
      </trkpt>
      <trkpt lat="49.27431" lon="-0.10977">
        <ele>6.3</ele>
        <time>2023-11-19T08:11:47Z</time>
      </trkpt>
      <trkpt lat="49.27431" lon="-0.10966">
        <ele>6.3</ele>
        <time>2023-11-19T08:11:48Z</time>
      </trkpt>
      <trkpt lat="49.27432" lon="-0.10955">
        <ele>6.2</ele>
        <time>2023-11-19T08:11:49Z</time>
      </trkpt>
      <trkpt lat="49.27432" lon="-0.10944">
        <ele>6.2</ele>
        <time>2023-11-19T08:11:50Z</time>
      </trkpt>
      <trkpt lat="49.27432" lon="-0.10933">
        <ele>6.2</ele>
        <time>2023-11-19T08:11:51Z</time>
      </trkpt>
      <trkpt lat="49.27432" lon="-0.10922">
        <ele>6.2</ele>
        <time>2023-11-19T08:11:52Z</time>
      </trkpt>
      <trkpt lat="49.27432" lon="-0.10911">
        <ele>6.2</ele>
        <time>2023-11-19T08:11:53Z</time>
      </trkpt>
      <trkpt lat="49.27431" lon="-0.10901">
        <ele>6.1</ele>
        <time>2023-11-19T08:11:54Z</time>
      </trkpt>
      <trkpt lat="49.27431" lon="-0.1089">
        <ele>6.1</ele>
        <time>2023-11-19T08:11:55Z</time>
      </trkpt>
      <trkpt lat="49.2743" lon="-0.10879">
        <ele>6</ele>
        <time>2023-11-19T08:11:56Z</time>
      </trkpt>
      <trkpt lat="49.27429" lon="-0.10868">
        <ele>6</ele>
        <time>2023-11-19T08:11:57Z</time>
      </trkpt>
      <trkpt lat="49.27429" lon="-0.10857">
        <ele>5.9</ele>
        <time>2023-11-19T08:11:58Z</time>
      </trkpt>
      <trkpt lat="49.27427" lon="-0.10847">
        <ele>5.9</ele>
        <time>2023-11-19T08:11:59Z</time>
      </trkpt>
      <trkpt lat="49.27426" lon="-0.10836">
        <ele>5.9</ele>
        <time>2023-11-19T08:12:00Z</time>
      </trkpt>
      <trkpt lat="49.27425" lon="-0.10825">
        <ele>5.8</ele>
        <time>2023-11-19T08:12:01Z</time>
      </trkpt>
      <trkpt lat="49.27424" lon="-0.10814">
        <ele>5.8</ele>
        <time>2023-11-19T08:12:02Z</time>
      </trkpt>
      <trkpt lat="49.27422" lon="-0.10804">
        <ele>5.8</ele>
        <time>2023-11-19T08:12:03Z</time>
      </trkpt>
      <trkpt lat="49.27421" lon="-0.10793">
        <ele>5.8</ele>
        <time>2023-11-19T08:12:04Z</time>
      </trkpt>
      <trkpt lat="49.27419" lon="-0.10783">
        <ele>5.7</ele>
        <time>2023-11-19T08:12:05Z</time>
      </trkpt>
      <trkpt lat="49.27417" lon="-0.10773">
        <ele>5.7</ele>
        <time>2023-11-19T08:12:06Z</time>
      </trkpt>
      <trkpt lat="49.27415" lon="-0.10762">
        <ele>5.6</ele>
        <time>2023-11-19T08:12:07Z</time>
      </trkpt>
      <trkpt lat="49.27413" lon="-0.10751">
        <ele>5.6</ele>
        <time>2023-11-19T08:12:08Z</time>
      </trkpt>
      <trkpt lat="49.27411" lon="-0.1074">
        <ele>5.5</ele>
        <time>2023-11-19T08:12:09Z</time>
      </trkpt>
      <trkpt lat="49.27408" lon="-0.1073">
        <ele>5.5</ele>
        <time>2023-11-19T08:12:10Z</time>
      </trkpt>
      <trkpt lat="49.27406" lon="-0.10719">
        <ele>5.5</ele>
        <time>2023-11-19T08:12:11Z</time>
      </trkpt>
      <trkpt lat="49.27403" lon="-0.10709">
        <ele>5.4</ele>
        <time>2023-11-19T08:12:12Z</time>
      </trkpt>
      <trkpt lat="49.27401" lon="-0.10699">
        <ele>5.4</ele>
        <time>2023-11-19T08:12:13Z</time>
      </trkpt>
      <trkpt lat="49.27399" lon="-0.10689">
        <ele>5.4</ele>
        <time>2023-11-19T08:12:14Z</time>
      </trkpt>
      <trkpt lat="49.27396" lon="-0.1068">
        <ele>5.4</ele>
        <time>2023-11-19T08:12:15Z</time>
      </trkpt>
      <trkpt lat="49.27393" lon="-0.1067">
        <ele>5.4</ele>
        <time>2023-11-19T08:12:16Z</time>
      </trkpt>
      <trkpt lat="49.2739" lon="-0.1066">
        <ele>5.3</ele>
        <time>2023-11-19T08:12:17Z</time>
      </trkpt>
      <trkpt lat="49.27386" lon="-0.1065">
        <ele>5.3</ele>
        <time>2023-11-19T08:12:18Z</time>
      </trkpt>
      <trkpt lat="49.27383" lon="-0.10641">
        <ele>5.3</ele>
        <time>2023-11-19T08:12:19Z</time>
      </trkpt>
      <trkpt lat="49.27379" lon="-0.10631">
        <ele>5.3</ele>
        <time>2023-11-19T08:12:20Z</time>
      </trkpt>
      <trkpt lat="49.27376" lon="-0.10622">
        <ele>5.2</ele>
        <time>2023-11-19T08:12:21Z</time>
      </trkpt>
      <trkpt lat="49.27372" lon="-0.10613">
        <ele>5.2</ele>
        <time>2023-11-19T08:12:22Z</time>
      </trkpt>
      <trkpt lat="49.27368" lon="-0.10604">
        <ele>5.2</ele>
        <time>2023-11-19T08:12:23Z</time>
      </trkpt>
      <trkpt lat="49.27364" lon="-0.10595">
        <ele>5.2</ele>
        <time>2023-11-19T08:12:24Z</time>
      </trkpt>
      <trkpt lat="49.27361" lon="-0.10586">
        <ele>5.1</ele>
        <time>2023-11-19T08:12:25Z</time>
      </trkpt>
      <trkpt lat="49.27357" lon="-0.10578">
        <ele>5.1</ele>
        <time>2023-11-19T08:12:26Z</time>
      </trkpt>
      <trkpt lat="49.27352" lon="-0.1057">
        <ele>5</ele>
        <time>2023-11-19T08:12:27Z</time>
      </trkpt>
      <trkpt lat="49.27348" lon="-0.10561">
        <ele>5</ele>
        <time>2023-11-19T08:12:28Z</time>
      </trkpt>
      <trkpt lat="49.27344" lon="-0.10553">
        <ele>5</ele>
        <time>2023-11-19T08:12:29Z</time>
      </trkpt>
      <trkpt lat="49.27339" lon="-0.10545">
        <ele>5</ele>
        <time>2023-11-19T08:12:30Z</time>
      </trkpt>
      <trkpt lat="49.27335" lon="-0.10536">
        <ele>5</ele>
        <time>2023-11-19T08:12:31Z</time>
      </trkpt>
      <trkpt lat="49.2733" lon="-0.10528">
        <ele>5</ele>
        <time>2023-11-19T08:12:32Z</time>
      </trkpt>
      <trkpt lat="49.27325" lon="-0.10519">
        <ele>4.9</ele>
        <time>2023-11-19T08:12:33Z</time>
      </trkpt>
      <trkpt lat="49.2732" lon="-0.10511">
        <ele>4.9</ele>
        <time>2023-11-19T08:12:34Z</time>
      </trkpt>
      <trkpt lat="49.27315" lon="-0.10504">
        <ele>4.9</ele>
        <time>2023-11-19T08:12:35Z</time>
      </trkpt>
      <trkpt lat="49.27309" lon="-0.10497">
        <ele>4.9</ele>
        <time>2023-11-19T08:12:36Z</time>
      </trkpt>
      <trkpt lat="49.27304" lon="-0.1049">
        <ele>4.8</ele>
        <time>2023-11-19T08:12:37Z</time>
      </trkpt>
      <trkpt lat="49.27298" lon="-0.10483">
        <ele>4.8</ele>
        <time>2023-11-19T08:12:38Z</time>
      </trkpt>
      <trkpt lat="49.27293" lon="-0.10476">
        <ele>4.8</ele>
        <time>2023-11-19T08:12:39Z</time>
      </trkpt>
      <trkpt lat="49.27287" lon="-0.1047">
        <ele>4.7</ele>
        <time>2023-11-19T08:12:40Z</time>
      </trkpt>
      <trkpt lat="49.27282" lon="-0.10463">
        <ele>4.7</ele>
        <time>2023-11-19T08:12:41Z</time>
      </trkpt>
      <trkpt lat="49.27276" lon="-0.10456">
        <ele>4.7</ele>
        <time>2023-11-19T08:12:42Z</time>
      </trkpt>
      <trkpt lat="49.2727" lon="-0.1045">
        <ele>4.7</ele>
        <time>2023-11-19T08:12:43Z</time>
      </trkpt>
      <trkpt lat="49.27264" lon="-0.10444">
        <ele>4.6</ele>
        <time>2023-11-19T08:12:44Z</time>
      </trkpt>
      <trkpt lat="49.27258" lon="-0.10437">
        <ele>4.6</ele>
        <time>2023-11-19T08:12:45Z</time>
      </trkpt>
      <trkpt lat="49.27251" lon="-0.10431">
        <ele>4.6</ele>
        <time>2023-11-19T08:12:46Z</time>
      </trkpt>
      <trkpt lat="49.27245" lon="-0.10426">
        <ele>4.6</ele>
        <time>2023-11-19T08:12:47Z</time>
      </trkpt>
      <trkpt lat="49.27239" lon="-0.10421">
        <ele>4.6</ele>
        <time>2023-11-19T08:12:48Z</time>
      </trkpt>
      <trkpt lat="49.27233" lon="-0.10416">
        <ele>4.6</ele>
        <time>2023-11-19T08:12:49Z</time>
      </trkpt>
      <trkpt lat="49.27227" lon="-0.10411">
        <ele>4.6</ele>
        <time>2023-11-19T08:12:50Z</time>
      </trkpt>
      <trkpt lat="49.2722" lon="-0.10406">
        <ele>4.6</ele>
        <time>2023-11-19T08:12:51Z</time>
      </trkpt>
      <trkpt lat="49.27214" lon="-0.10401">
        <ele>4.6</ele>
        <time>2023-11-19T08:12:52Z</time>
      </trkpt>
      <trkpt lat="49.27208" lon="-0.10397">
        <ele>4.6</ele>
        <time>2023-11-19T08:12:53Z</time>
      </trkpt>
      <trkpt lat="49.27201" lon="-0.10393">
        <ele>4.7</ele>
        <time>2023-11-19T08:12:54Z</time>
      </trkpt>
      <trkpt lat="49.27195" lon="-0.10389">
        <ele>4.7</ele>
        <time>2023-11-19T08:12:55Z</time>
      </trkpt>
      <trkpt lat="49.27189" lon="-0.10385">
        <ele>4.7</ele>
        <time>2023-11-19T08:12:56Z</time>
      </trkpt>
      <trkpt lat="49.27182" lon="-0.1038">
        <ele>4.7</ele>
        <time>2023-11-19T08:12:57Z</time>
      </trkpt>
      <trkpt lat="49.27175" lon="-0.10376">
        <ele>4.7</ele>
        <time>2023-11-19T08:12:58Z</time>
      </trkpt>
      <trkpt lat="49.27168" lon="-0.10372">
        <ele>4.7</ele>
        <time>2023-11-19T08:12:59Z</time>
      </trkpt>
      <trkpt lat="49.27162" lon="-0.10368">
        <ele>4.8</ele>
        <time>2023-11-19T08:13:00Z</time>
      </trkpt>
      <trkpt lat="49.27155" lon="-0.10365">
        <ele>4.8</ele>
        <time>2023-11-19T08:13:01Z</time>
      </trkpt>
      <trkpt lat="49.27148" lon="-0.10362">
        <ele>4.8</ele>
        <time>2023-11-19T08:13:02Z</time>
      </trkpt>
      <trkpt lat="49.27142" lon="-0.10359">
        <ele>4.8</ele>
        <time>2023-11-19T08:13:03Z</time>
      </trkpt>
      <trkpt lat="49.27135" lon="-0.10356">
        <ele>4.8</ele>
        <time>2023-11-19T08:13:04Z</time>
      </trkpt>
      <trkpt lat="49.27129" lon="-0.10354">
        <ele>4.9</ele>
        <time>2023-11-19T08:13:05Z</time>
      </trkpt>
      <trkpt lat="49.27122" lon="-0.10352">
        <ele>4.9</ele>
        <time>2023-11-19T08:13:06Z</time>
      </trkpt>
      <trkpt lat="49.27115" lon="-0.1035">
        <ele>4.9</ele>
        <time>2023-11-19T08:13:07Z</time>
      </trkpt>
      <trkpt lat="49.27109" lon="-0.10348">
        <ele>5</ele>
        <time>2023-11-19T08:13:08Z</time>
      </trkpt>
      <trkpt lat="49.27102" lon="-0.10346">
        <ele>5</ele>
        <time>2023-11-19T08:13:09Z</time>
      </trkpt>
      <trkpt lat="49.27096" lon="-0.10344">
        <ele>5.1</ele>
        <time>2023-11-19T08:13:10Z</time>
      </trkpt>
      <trkpt lat="49.27089" lon="-0.10342">
        <ele>5.2</ele>
        <time>2023-11-19T08:13:11Z</time>
      </trkpt>
      <trkpt lat="49.27083" lon="-0.1034">
        <ele>5.3</ele>
        <time>2023-11-19T08:13:12Z</time>
      </trkpt>
      <trkpt lat="49.27076" lon="-0.10339">
        <ele>5.5</ele>
        <time>2023-11-19T08:13:13Z</time>
      </trkpt>
      <trkpt lat="49.27069" lon="-0.10338">
        <ele>5.6</ele>
        <time>2023-11-19T08:13:14Z</time>
      </trkpt>
      <trkpt lat="49.27063" lon="-0.10337">
        <ele>5.7</ele>
        <time>2023-11-19T08:13:15Z</time>
      </trkpt>
      <trkpt lat="49.27056" lon="-0.10336">
        <ele>5.8</ele>
        <time>2023-11-19T08:13:16Z</time>
      </trkpt>
      <trkpt lat="49.2705" lon="-0.10336">
        <ele>5.9</ele>
        <time>2023-11-19T08:13:17Z</time>
      </trkpt>
      <trkpt lat="49.27043" lon="-0.10336">
        <ele>6</ele>
        <time>2023-11-19T08:13:18Z</time>
      </trkpt>
      <trkpt lat="49.27036" lon="-0.10336">
        <ele>6.1</ele>
        <time>2023-11-19T08:13:19Z</time>
      </trkpt>
      <trkpt lat="49.2703" lon="-0.10336">
        <ele>6.2</ele>
        <time>2023-11-19T08:13:20Z</time>
      </trkpt>
      <trkpt lat="49.27023" lon="-0.10336">
        <ele>6.3</ele>
        <time>2023-11-19T08:13:21Z</time>
      </trkpt>
      <trkpt lat="49.27016" lon="-0.10336">
        <ele>6.4</ele>
        <time>2023-11-19T08:13:22Z</time>
      </trkpt>
      <trkpt lat="49.27009" lon="-0.10336">
        <ele>6.5</ele>
        <time>2023-11-19T08:13:23Z</time>
      </trkpt>
      <trkpt lat="49.27003" lon="-0.10336">
        <ele>6.6</ele>
        <time>2023-11-19T08:13:24Z</time>
      </trkpt>
      <trkpt lat="49.26996" lon="-0.10336">
        <ele>6.7</ele>
        <time>2023-11-19T08:13:25Z</time>
      </trkpt>
      <trkpt lat="49.26989" lon="-0.10337">
        <ele>6.7</ele>
        <time>2023-11-19T08:13:26Z</time>
      </trkpt>
      <trkpt lat="49.26982" lon="-0.10338">
        <ele>6.8</ele>
        <time>2023-11-19T08:13:27Z</time>
      </trkpt>
      <trkpt lat="49.26975" lon="-0.1034">
        <ele>6.8</ele>
        <time>2023-11-19T08:13:28Z</time>
      </trkpt>
      <trkpt lat="49.26968" lon="-0.10341">
        <ele>6.9</ele>
        <time>2023-11-19T08:13:29Z</time>
      </trkpt>
      <trkpt lat="49.26961" lon="-0.10342">
        <ele>6.9</ele>
        <time>2023-11-19T08:13:30Z</time>
      </trkpt>
      <trkpt lat="49.26954" lon="-0.10344">
        <ele>6.9</ele>
        <time>2023-11-19T08:13:31Z</time>
      </trkpt>
      <trkpt lat="49.26947" lon="-0.10345">
        <ele>6.9</ele>
        <time>2023-11-19T08:13:32Z</time>
      </trkpt>
      <trkpt lat="49.2694" lon="-0.10346">
        <ele>6.9</ele>
        <time>2023-11-19T08:13:33Z</time>
      </trkpt>
      <trkpt lat="49.26933" lon="-0.10348">
        <ele>6.9</ele>
        <time>2023-11-19T08:13:34Z</time>
      </trkpt>
      <trkpt lat="49.26927" lon="-0.10349">
        <ele>6.9</ele>
        <time>2023-11-19T08:13:35Z</time>
      </trkpt>
      <trkpt lat="49.2692" lon="-0.10351">
        <ele>7</ele>
        <time>2023-11-19T08:13:36Z</time>
      </trkpt>
      <trkpt lat="49.26913" lon="-0.10353">
        <ele>7</ele>
        <time>2023-11-19T08:13:37Z</time>
      </trkpt>
      <trkpt lat="49.26907" lon="-0.10355">
        <ele>7</ele>
        <time>2023-11-19T08:13:38Z</time>
      </trkpt>
      <trkpt lat="49.269" lon="-0.10356">
        <ele>6.9</ele>
        <time>2023-11-19T08:13:39Z</time>
      </trkpt>
      <trkpt lat="49.26893" lon="-0.10359">
        <ele>6.9</ele>
        <time>2023-11-19T08:13:40Z</time>
      </trkpt>
      <trkpt lat="49.26886" lon="-0.10361">
        <ele>6.9</ele>
        <time>2023-11-19T08:13:41Z</time>
      </trkpt>
      <trkpt lat="49.26879" lon="-0.10363">
        <ele>6.8</ele>
        <time>2023-11-19T08:13:42Z</time>
      </trkpt>
      <trkpt lat="49.26872" lon="-0.10365">
        <ele>6.8</ele>
        <time>2023-11-19T08:13:43Z</time>
      </trkpt>
      <trkpt lat="49.26866" lon="-0.10368">
        <ele>6.7</ele>
        <time>2023-11-19T08:13:44Z</time>
      </trkpt>
      <trkpt lat="49.26859" lon="-0.1037">
        <ele>6.7</ele>
        <time>2023-11-19T08:13:45Z</time>
      </trkpt>
      <trkpt lat="49.26852" lon="-0.10373">
        <ele>6.7</ele>
        <time>2023-11-19T08:13:46Z</time>
      </trkpt>
      <trkpt lat="49.26845" lon="-0.10375">
        <ele>6.6</ele>
        <time>2023-11-19T08:13:47Z</time>
      </trkpt>
      <trkpt lat="49.26838" lon="-0.10378">
        <ele>6.6</ele>
        <time>2023-11-19T08:13:48Z</time>
      </trkpt>
      <trkpt lat="49.26832" lon="-0.1038">
        <ele>6.6</ele>
        <time>2023-11-19T08:13:49Z</time>
      </trkpt>
      <trkpt lat="49.26825" lon="-0.10383">
        <ele>6.6</ele>
        <time>2023-11-19T08:13:50Z</time>
      </trkpt>
      <trkpt lat="49.26818" lon="-0.10385">
        <ele>6.5</ele>
        <time>2023-11-19T08:13:51Z</time>
      </trkpt>
      <trkpt lat="49.26811" lon="-0.10387">
        <ele>6.5</ele>
        <time>2023-11-19T08:13:52Z</time>
      </trkpt>
      <trkpt lat="49.26805" lon="-0.10389">
        <ele>6.5</ele>
        <time>2023-11-19T08:13:53Z</time>
      </trkpt>
      <trkpt lat="49.26798" lon="-0.10392">
        <ele>6.6</ele>
        <time>2023-11-19T08:13:54Z</time>
      </trkpt>
      <trkpt lat="49.26791" lon="-0.10394">
        <ele>6.6</ele>
        <time>2023-11-19T08:13:55Z</time>
      </trkpt>
      <trkpt lat="49.26785" lon="-0.10396">
        <ele>6.6</ele>
        <time>2023-11-19T08:13:56Z</time>
      </trkpt>
      <trkpt lat="49.26778" lon="-0.10399">
        <ele>6.5</ele>
        <time>2023-11-19T08:13:57Z</time>
      </trkpt>
      <trkpt lat="49.26771" lon="-0.10401">
        <ele>6.5</ele>
        <time>2023-11-19T08:13:58Z</time>
      </trkpt>
      <trkpt lat="49.26764" lon="-0.10403">
        <ele>6.5</ele>
        <time>2023-11-19T08:13:59Z</time>
      </trkpt>
      <trkpt lat="49.26757" lon="-0.10405">
        <ele>6.4</ele>
        <time>2023-11-19T08:14:00Z</time>
      </trkpt>
      <trkpt lat="49.26751" lon="-0.10408">
        <ele>6.4</ele>
        <time>2023-11-19T08:14:01Z</time>
      </trkpt>
      <trkpt lat="49.26744" lon="-0.1041">
        <ele>6.3</ele>
        <time>2023-11-19T08:14:02Z</time>
      </trkpt>
      <trkpt lat="49.26737" lon="-0.10412">
        <ele>6.3</ele>
        <time>2023-11-19T08:14:03Z</time>
      </trkpt>
      <trkpt lat="49.2673" lon="-0.10414">
        <ele>6.2</ele>
        <time>2023-11-19T08:14:04Z</time>
      </trkpt>
      <trkpt lat="49.26724" lon="-0.10416">
        <ele>6.2</ele>
        <time>2023-11-19T08:14:05Z</time>
      </trkpt>
      <trkpt lat="49.26717" lon="-0.10419">
        <ele>6.1</ele>
        <time>2023-11-19T08:14:06Z</time>
      </trkpt>
      <trkpt lat="49.2671" lon="-0.10422">
        <ele>6.1</ele>
        <time>2023-11-19T08:14:07Z</time>
      </trkpt>
      <trkpt lat="49.26703" lon="-0.10424">
        <ele>6</ele>
        <time>2023-11-19T08:14:08Z</time>
      </trkpt>
      <trkpt lat="49.26697" lon="-0.10426">
        <ele>6</ele>
        <time>2023-11-19T08:14:09Z</time>
      </trkpt>
      <trkpt lat="49.2669" lon="-0.10428">
        <ele>5.9</ele>
        <time>2023-11-19T08:14:10Z</time>
      </trkpt>
      <trkpt lat="49.26683" lon="-0.1043">
        <ele>5.9</ele>
        <time>2023-11-19T08:14:11Z</time>
      </trkpt>
      <trkpt lat="49.26676" lon="-0.10433">
        <ele>5.9</ele>
        <time>2023-11-19T08:14:12Z</time>
      </trkpt>
      <trkpt lat="49.26669" lon="-0.10436">
        <ele>5.9</ele>
        <time>2023-11-19T08:14:13Z</time>
      </trkpt>
      <trkpt lat="49.26662" lon="-0.10438">
        <ele>5.9</ele>
        <time>2023-11-19T08:14:14Z</time>
      </trkpt>
      <trkpt lat="49.26656" lon="-0.10441">
        <ele>5.8</ele>
        <time>2023-11-19T08:14:15Z</time>
      </trkpt>
      <trkpt lat="49.26649" lon="-0.10443">
        <ele>5.8</ele>
        <time>2023-11-19T08:14:16Z</time>
      </trkpt>
      <trkpt lat="49.26643" lon="-0.10444">
        <ele>5.7</ele>
        <time>2023-11-19T08:14:17Z</time>
      </trkpt>
      <trkpt lat="49.26636" lon="-0.10446">
        <ele>5.7</ele>
        <time>2023-11-19T08:14:18Z</time>
      </trkpt>
      <trkpt lat="49.26629" lon="-0.10448">
        <ele>5.7</ele>
        <time>2023-11-19T08:14:19Z</time>
      </trkpt>
      <trkpt lat="49.26622" lon="-0.1045">
        <ele>5.6</ele>
        <time>2023-11-19T08:14:20Z</time>
      </trkpt>
      <trkpt lat="49.26615" lon="-0.10452">
        <ele>5.6</ele>
        <time>2023-11-19T08:14:21Z</time>
      </trkpt>
      <trkpt lat="49.26609" lon="-0.10453">
        <ele>5.6</ele>
        <time>2023-11-19T08:14:22Z</time>
      </trkpt>
      <trkpt lat="49.26602" lon="-0.10454">
        <ele>5.6</ele>
        <time>2023-11-19T08:14:23Z</time>
      </trkpt>
      <trkpt lat="49.26595" lon="-0.10456">
        <ele>5.5</ele>
        <time>2023-11-19T08:14:24Z</time>
      </trkpt>
      <trkpt lat="49.26588" lon="-0.10456">
        <ele>5.5</ele>
        <time>2023-11-19T08:14:25Z</time>
      </trkpt>
      <trkpt lat="49.26581" lon="-0.10457">
        <ele>5.5</ele>
        <time>2023-11-19T08:14:26Z</time>
      </trkpt>
      <trkpt lat="49.26574" lon="-0.10458">
        <ele>5.4</ele>
        <time>2023-11-19T08:14:27Z</time>
      </trkpt>
      <trkpt lat="49.26568" lon="-0.10459">
        <ele>5.4</ele>
        <time>2023-11-19T08:14:28Z</time>
      </trkpt>
      <trkpt lat="49.26561" lon="-0.1046">
        <ele>5.3</ele>
        <time>2023-11-19T08:14:29Z</time>
      </trkpt>
      <trkpt lat="49.26554" lon="-0.10461">
        <ele>5.3</ele>
        <time>2023-11-19T08:14:30Z</time>
      </trkpt>
      <trkpt lat="49.26547" lon="-0.10462">
        <ele>5.3</ele>
        <time>2023-11-19T08:14:31Z</time>
      </trkpt>
      <trkpt lat="49.2654" lon="-0.10463">
        <ele>5.4</ele>
        <time>2023-11-19T08:14:32Z</time>
      </trkpt>
      <trkpt lat="49.26533" lon="-0.10463">
        <ele>5.4</ele>
        <time>2023-11-19T08:14:33Z</time>
      </trkpt>
      <trkpt lat="49.26527" lon="-0.10464">
        <ele>5.4</ele>
        <time>2023-11-19T08:14:34Z</time>
      </trkpt>
      <trkpt lat="49.2652" lon="-0.10465">
        <ele>5.4</ele>
        <time>2023-11-19T08:14:35Z</time>
      </trkpt>
      <trkpt lat="49.26513" lon="-0.10465">
        <ele>5.4</ele>
        <time>2023-11-19T08:14:36Z</time>
      </trkpt>
      <trkpt lat="49.26506" lon="-0.10466">
        <ele>5.4</ele>
        <time>2023-11-19T08:14:37Z</time>
      </trkpt>
      <trkpt lat="49.26499" lon="-0.10466">
        <ele>5.5</ele>
        <time>2023-11-19T08:14:38Z</time>
      </trkpt>
      <trkpt lat="49.26492" lon="-0.10466">
        <ele>5.5</ele>
        <time>2023-11-19T08:14:39Z</time>
      </trkpt>
      <trkpt lat="49.26485" lon="-0.10466">
        <ele>5.5</ele>
        <time>2023-11-19T08:14:40Z</time>
      </trkpt>
      <trkpt lat="49.26477" lon="-0.10466">
        <ele>5.6</ele>
        <time>2023-11-19T08:14:41Z</time>
      </trkpt>
      <trkpt lat="49.2647" lon="-0.10466">
        <ele>5.6</ele>
        <time>2023-11-19T08:14:42Z</time>
      </trkpt>
      <trkpt lat="49.26464" lon="-0.10466">
        <ele>5.7</ele>
        <time>2023-11-19T08:14:43Z</time>
      </trkpt>
      <trkpt lat="49.26457" lon="-0.10466">
        <ele>5.7</ele>
        <time>2023-11-19T08:14:44Z</time>
      </trkpt>
      <trkpt lat="49.2645" lon="-0.10466">
        <ele>5.7</ele>
        <time>2023-11-19T08:14:45Z</time>
      </trkpt>
      <trkpt lat="49.26444" lon="-0.10465">
        <ele>5.8</ele>
        <time>2023-11-19T08:14:46Z</time>
      </trkpt>
      <trkpt lat="49.26437" lon="-0.10465">
        <ele>5.8</ele>
        <time>2023-11-19T08:14:47Z</time>
      </trkpt>
      <trkpt lat="49.2643" lon="-0.10464">
        <ele>5.8</ele>
        <time>2023-11-19T08:14:48Z</time>
      </trkpt>
      <trkpt lat="49.26424" lon="-0.10464">
        <ele>5.9</ele>
        <time>2023-11-19T08:14:49Z</time>
      </trkpt>
      <trkpt lat="49.26417" lon="-0.10463">
        <ele>5.9</ele>
        <time>2023-11-19T08:14:50Z</time>
      </trkpt>
      <trkpt lat="49.2641" lon="-0.10462">
        <ele>5.9</ele>
        <time>2023-11-19T08:14:51Z</time>
      </trkpt>
      <trkpt lat="49.26403" lon="-0.10461">
        <ele>5.9</ele>
        <time>2023-11-19T08:14:52Z</time>
      </trkpt>
      <trkpt lat="49.26396" lon="-0.10461">
        <ele>6</ele>
        <time>2023-11-19T08:14:53Z</time>
      </trkpt>
      <trkpt lat="49.26389" lon="-0.10461">
        <ele>6</ele>
        <time>2023-11-19T08:14:54Z</time>
      </trkpt>
      <trkpt lat="49.26382" lon="-0.1046">
        <ele>6</ele>
        <time>2023-11-19T08:14:55Z</time>
      </trkpt>
      <trkpt lat="49.26375" lon="-0.1046">
        <ele>6</ele>
        <time>2023-11-19T08:14:56Z</time>
      </trkpt>
      <trkpt lat="49.26368" lon="-0.10459">
        <ele>6</ele>
        <time>2023-11-19T08:14:57Z</time>
      </trkpt>
      <trkpt lat="49.26361" lon="-0.10458">
        <ele>6</ele>
        <time>2023-11-19T08:14:58Z</time>
      </trkpt>
      <trkpt lat="49.26354" lon="-0.10457">
        <ele>6.1</ele>
        <time>2023-11-19T08:14:59Z</time>
      </trkpt>
      <trkpt lat="49.26347" lon="-0.10456">
        <ele>6.1</ele>
        <time>2023-11-19T08:15:00Z</time>
      </trkpt>
      <trkpt lat="49.2634" lon="-0.10455">
        <ele>6.1</ele>
        <time>2023-11-19T08:15:01Z</time>
      </trkpt>
      <trkpt lat="49.26333" lon="-0.10454">
        <ele>6.1</ele>
        <time>2023-11-19T08:15:02Z</time>
      </trkpt>
      <trkpt lat="49.26326" lon="-0.10453">
        <ele>6.1</ele>
        <time>2023-11-19T08:15:03Z</time>
      </trkpt>
      <trkpt lat="49.26319" lon="-0.10452">
        <ele>6.2</ele>
        <time>2023-11-19T08:15:04Z</time>
      </trkpt>
      <trkpt lat="49.26312" lon="-0.10451">
        <ele>6.2</ele>
        <time>2023-11-19T08:15:05Z</time>
      </trkpt>
      <trkpt lat="49.26305" lon="-0.1045">
        <ele>6.2</ele>
        <time>2023-11-19T08:15:06Z</time>
      </trkpt>
      <trkpt lat="49.26298" lon="-0.1045">
        <ele>6.2</ele>
        <time>2023-11-19T08:15:07Z</time>
      </trkpt>
      <trkpt lat="49.26291" lon="-0.10449">
        <ele>6.2</ele>
        <time>2023-11-19T08:15:08Z</time>
      </trkpt>
      <trkpt lat="49.26284" lon="-0.10448">
        <ele>6.3</ele>
        <time>2023-11-19T08:15:09Z</time>
      </trkpt>
      <trkpt lat="49.26277" lon="-0.10448">
        <ele>6.3</ele>
        <time>2023-11-19T08:15:10Z</time>
      </trkpt>
      <trkpt lat="49.2627" lon="-0.10447">
        <ele>6.3</ele>
        <time>2023-11-19T08:15:11Z</time>
      </trkpt>
      <trkpt lat="49.26263" lon="-0.10446">
        <ele>6.4</ele>
        <time>2023-11-19T08:15:12Z</time>
      </trkpt>
      <trkpt lat="49.26256" lon="-0.10446">
        <ele>6.4</ele>
        <time>2023-11-19T08:15:13Z</time>
      </trkpt>
      <trkpt lat="49.26249" lon="-0.10445">
        <ele>6.4</ele>
        <time>2023-11-19T08:15:14Z</time>
      </trkpt>
      <trkpt lat="49.26242" lon="-0.10444">
        <ele>6.4</ele>
        <time>2023-11-19T08:15:15Z</time>
      </trkpt>
      <trkpt lat="49.26236" lon="-0.10444">
        <ele>6.4</ele>
        <time>2023-11-19T08:15:16Z</time>
      </trkpt>
      <trkpt lat="49.26229" lon="-0.10443">
        <ele>6.4</ele>
        <time>2023-11-19T08:15:17Z</time>
      </trkpt>
      <trkpt lat="49.26222" lon="-0.10443">
        <ele>6.4</ele>
        <time>2023-11-19T08:15:18Z</time>
      </trkpt>
      <trkpt lat="49.26215" lon="-0.10442">
        <ele>6.4</ele>
        <time>2023-11-19T08:15:19Z</time>
      </trkpt>
      <trkpt lat="49.26208" lon="-0.10441">
        <ele>6.4</ele>
        <time>2023-11-19T08:15:20Z</time>
      </trkpt>
      <trkpt lat="49.26201" lon="-0.1044">
        <ele>6.4</ele>
        <time>2023-11-19T08:15:21Z</time>
      </trkpt>
      <trkpt lat="49.26194" lon="-0.1044">
        <ele>6.4</ele>
        <time>2023-11-19T08:15:22Z</time>
      </trkpt>
      <trkpt lat="49.26186" lon="-0.10439">
        <ele>6.4</ele>
        <time>2023-11-19T08:15:23Z</time>
      </trkpt>
      <trkpt lat="49.26179" lon="-0.10439">
        <ele>6.5</ele>
        <time>2023-11-19T08:15:24Z</time>
      </trkpt>
      <trkpt lat="49.26173" lon="-0.10438">
        <ele>6.5</ele>
        <time>2023-11-19T08:15:25Z</time>
      </trkpt>
      <trkpt lat="49.26166" lon="-0.10437">
        <ele>6.5</ele>
        <time>2023-11-19T08:15:26Z</time>
      </trkpt>
      <trkpt lat="49.26159" lon="-0.10436">
        <ele>6.5</ele>
        <time>2023-11-19T08:15:27Z</time>
      </trkpt>
      <trkpt lat="49.26151" lon="-0.10436">
        <ele>6.5</ele>
        <time>2023-11-19T08:15:28Z</time>
      </trkpt>
      <trkpt lat="49.26144" lon="-0.10435">
        <ele>6.5</ele>
        <time>2023-11-19T08:15:29Z</time>
      </trkpt>
      <trkpt lat="49.26137" lon="-0.10434">
        <ele>6.5</ele>
        <time>2023-11-19T08:15:30Z</time>
      </trkpt>
      <trkpt lat="49.2613" lon="-0.10434">
        <ele>6.5</ele>
        <time>2023-11-19T08:15:31Z</time>
      </trkpt>
      <trkpt lat="49.26123" lon="-0.10433">
        <ele>6.4</ele>
        <time>2023-11-19T08:15:32Z</time>
      </trkpt>
      <trkpt lat="49.26115" lon="-0.10432">
        <ele>6.4</ele>
        <time>2023-11-19T08:15:33Z</time>
      </trkpt>
      <trkpt lat="49.26108" lon="-0.10432">
        <ele>6.3</ele>
        <time>2023-11-19T08:15:34Z</time>
      </trkpt>
      <trkpt lat="49.261" lon="-0.10431">
        <ele>6.3</ele>
        <time>2023-11-19T08:15:35Z</time>
      </trkpt>
      <trkpt lat="49.26093" lon="-0.1043">
        <ele>6.3</ele>
        <time>2023-11-19T08:15:36Z</time>
      </trkpt>
      <trkpt lat="49.26086" lon="-0.1043">
        <ele>6.2</ele>
        <time>2023-11-19T08:15:37Z</time>
      </trkpt>
      <trkpt lat="49.26078" lon="-0.1043">
        <ele>6.2</ele>
        <time>2023-11-19T08:15:38Z</time>
      </trkpt>
      <trkpt lat="49.2607" lon="-0.10429">
        <ele>6.1</ele>
        <time>2023-11-19T08:15:39Z</time>
      </trkpt>
      <trkpt lat="49.26063" lon="-0.10429">
        <ele>6.1</ele>
        <time>2023-11-19T08:15:40Z</time>
      </trkpt>
      <trkpt lat="49.26055" lon="-0.10428">
        <ele>6.1</ele>
        <time>2023-11-19T08:15:41Z</time>
      </trkpt>
      <trkpt lat="49.26048" lon="-0.10428">
        <ele>6</ele>
        <time>2023-11-19T08:15:42Z</time>
      </trkpt>
      <trkpt lat="49.26041" lon="-0.10427">
        <ele>6</ele>
        <time>2023-11-19T08:15:43Z</time>
      </trkpt>
      <trkpt lat="49.26033" lon="-0.10427">
        <ele>6</ele>
        <time>2023-11-19T08:15:44Z</time>
      </trkpt>
      <trkpt lat="49.26026" lon="-0.10426">
        <ele>5.9</ele>
        <time>2023-11-19T08:15:45Z</time>
      </trkpt>
      <trkpt lat="49.26018" lon="-0.10425">
        <ele>5.9</ele>
        <time>2023-11-19T08:15:46Z</time>
      </trkpt>
      <trkpt lat="49.2601" lon="-0.10425">
        <ele>5.9</ele>
        <time>2023-11-19T08:15:47Z</time>
      </trkpt>
      <trkpt lat="49.26003" lon="-0.10425">
        <ele>5.8</ele>
        <time>2023-11-19T08:15:48Z</time>
      </trkpt>
      <trkpt lat="49.25996" lon="-0.10424">
        <ele>5.7</ele>
        <time>2023-11-19T08:15:49Z</time>
      </trkpt>
      <trkpt lat="49.25989" lon="-0.10424">
        <ele>5.7</ele>
        <time>2023-11-19T08:15:50Z</time>
      </trkpt>
      <trkpt lat="49.25982" lon="-0.10423">
        <ele>5.6</ele>
        <time>2023-11-19T08:15:51Z</time>
      </trkpt>
      <trkpt lat="49.25974" lon="-0.10423">
        <ele>5.6</ele>
        <time>2023-11-19T08:15:52Z</time>
      </trkpt>
      <trkpt lat="49.25967" lon="-0.10422">
        <ele>5.6</ele>
        <time>2023-11-19T08:15:53Z</time>
      </trkpt>
      <trkpt lat="49.2596" lon="-0.10422">
        <ele>5.5</ele>
        <time>2023-11-19T08:15:54Z</time>
      </trkpt>
      <trkpt lat="49.25953" lon="-0.10421">
        <ele>5.5</ele>
        <time>2023-11-19T08:15:55Z</time>
      </trkpt>
      <trkpt lat="49.25945" lon="-0.1042">
        <ele>5.5</ele>
        <time>2023-11-19T08:15:56Z</time>
      </trkpt>
      <trkpt lat="49.25938" lon="-0.10419">
        <ele>5.5</ele>
        <time>2023-11-19T08:15:57Z</time>
      </trkpt>
      <trkpt lat="49.2593" lon="-0.10418">
        <ele>5.4</ele>
        <time>2023-11-19T08:15:58Z</time>
      </trkpt>
      <trkpt lat="49.25923" lon="-0.10416">
        <ele>5.4</ele>
        <time>2023-11-19T08:15:59Z</time>
      </trkpt>
      <trkpt lat="49.25915" lon="-0.10415">
        <ele>5.3</ele>
        <time>2023-11-19T08:16:00Z</time>
      </trkpt>
      <trkpt lat="49.25908" lon="-0.10414">
        <ele>5.3</ele>
        <time>2023-11-19T08:16:01Z</time>
      </trkpt>
      <trkpt lat="49.25901" lon="-0.10413">
        <ele>5.3</ele>
        <time>2023-11-19T08:16:02Z</time>
      </trkpt>
      <trkpt lat="49.25894" lon="-0.10412">
        <ele>5.3</ele>
        <time>2023-11-19T08:16:03Z</time>
      </trkpt>
      <trkpt lat="49.25887" lon="-0.10411">
        <ele>5.3</ele>
        <time>2023-11-19T08:16:04Z</time>
      </trkpt>
      <trkpt lat="49.25879" lon="-0.1041">
        <ele>5.2</ele>
        <time>2023-11-19T08:16:05Z</time>
      </trkpt>
      <trkpt lat="49.25872" lon="-0.10409">
        <ele>5.2</ele>
        <time>2023-11-19T08:16:06Z</time>
      </trkpt>
      <trkpt lat="49.25865" lon="-0.10408">
        <ele>5.2</ele>
        <time>2023-11-19T08:16:07Z</time>
      </trkpt>
      <trkpt lat="49.25858" lon="-0.10407">
        <ele>5.2</ele>
        <time>2023-11-19T08:16:08Z</time>
      </trkpt>
      <trkpt lat="49.25852" lon="-0.10406">
        <ele>5.2</ele>
        <time>2023-11-19T08:16:09Z</time>
      </trkpt>
      <trkpt lat="49.25846" lon="-0.10405">
        <ele>5.2</ele>
        <time>2023-11-19T08:16:10Z</time>
      </trkpt>
      <trkpt lat="49.25839" lon="-0.10405">
        <ele>5.2</ele>
        <time>2023-11-19T08:16:11Z</time>
      </trkpt>
      <trkpt lat="49.25833" lon="-0.10404">
        <ele>5.2</ele>
        <time>2023-11-19T08:16:12Z</time>
      </trkpt>
      <trkpt lat="49.25827" lon="-0.10403">
        <ele>5.2</ele>
        <time>2023-11-19T08:16:13Z</time>
      </trkpt>
      <trkpt lat="49.25821" lon="-0.10403">
        <ele>5.3</ele>
        <time>2023-11-19T08:16:14Z</time>
      </trkpt>
      <trkpt lat="49.25814" lon="-0.10404">
        <ele>5.3</ele>
        <time>2023-11-19T08:16:15Z</time>
      </trkpt>
      <trkpt lat="49.25808" lon="-0.10405">
        <ele>5.3</ele>
        <time>2023-11-19T08:16:16Z</time>
      </trkpt>
      <trkpt lat="49.25802" lon="-0.10408">
        <ele>5.4</ele>
        <time>2023-11-19T08:16:17Z</time>
      </trkpt>
      <trkpt lat="49.25796" lon="-0.10413">
        <ele>5.3</ele>
        <time>2023-11-19T08:16:18Z</time>
      </trkpt>
      <trkpt lat="49.2579" lon="-0.10418">
        <ele>5.3</ele>
        <time>2023-11-19T08:16:19Z</time>
      </trkpt>
      <trkpt lat="49.25784" lon="-0.10422">
        <ele>5.2</ele>
        <time>2023-11-19T08:16:20Z</time>
      </trkpt>
      <trkpt lat="49.25779" lon="-0.10422">
        <ele>5.1</ele>
        <time>2023-11-19T08:16:21Z</time>
      </trkpt>
      <trkpt lat="49.25772" lon="-0.10421">
        <ele>4.9</ele>
        <time>2023-11-19T08:16:22Z</time>
      </trkpt>
      <trkpt lat="49.25766" lon="-0.10418">
        <ele>4.8</ele>
        <time>2023-11-19T08:16:23Z</time>
      </trkpt>
      <trkpt lat="49.2576" lon="-0.10413">
        <ele>4.7</ele>
        <time>2023-11-19T08:16:24Z</time>
      </trkpt>
      <trkpt lat="49.25754" lon="-0.10408">
        <ele>4.7</ele>
        <time>2023-11-19T08:16:25Z</time>
      </trkpt>
      <trkpt lat="49.25748" lon="-0.10404">
        <ele>4.7</ele>
        <time>2023-11-19T08:16:26Z</time>
      </trkpt>
      <trkpt lat="49.25742" lon="-0.10401">
        <ele>4.7</ele>
        <time>2023-11-19T08:16:27Z</time>
      </trkpt>
      <trkpt lat="49.25735" lon="-0.10399">
        <ele>4.6</ele>
        <time>2023-11-19T08:16:28Z</time>
      </trkpt>
      <trkpt lat="49.25728" lon="-0.10398">
        <ele>4.6</ele>
        <time>2023-11-19T08:16:29Z</time>
      </trkpt>
      <trkpt lat="49.25721" lon="-0.10397">
        <ele>4.5</ele>
        <time>2023-11-19T08:16:30Z</time>
      </trkpt>
      <trkpt lat="49.25714" lon="-0.10396">
        <ele>4.5</ele>
        <time>2023-11-19T08:16:31Z</time>
      </trkpt>
      <trkpt lat="49.25707" lon="-0.10396">
        <ele>4.5</ele>
        <time>2023-11-19T08:16:32Z</time>
      </trkpt>
      <trkpt lat="49.257" lon="-0.10395">
        <ele>4.5</ele>
        <time>2023-11-19T08:16:33Z</time>
      </trkpt>
      <trkpt lat="49.25693" lon="-0.10395">
        <ele>4.5</ele>
        <time>2023-11-19T08:16:34Z</time>
      </trkpt>
      <trkpt lat="49.25686" lon="-0.10394">
        <ele>4.5</ele>
        <time>2023-11-19T08:16:35Z</time>
      </trkpt>
      <trkpt lat="49.2568" lon="-0.10393">
        <ele>4.5</ele>
        <time>2023-11-19T08:16:36Z</time>
      </trkpt>
      <trkpt lat="49.25673" lon="-0.10392">
        <ele>4.5</ele>
        <time>2023-11-19T08:16:37Z</time>
      </trkpt>
      <trkpt lat="49.25666" lon="-0.10391">
        <ele>4.5</ele>
        <time>2023-11-19T08:16:38Z</time>
      </trkpt>
      <trkpt lat="49.25659" lon="-0.1039">
        <ele>4.5</ele>
        <time>2023-11-19T08:16:39Z</time>
      </trkpt>
      <trkpt lat="49.25652" lon="-0.10389">
        <ele>4.5</ele>
        <time>2023-11-19T08:16:40Z</time>
      </trkpt>
      <trkpt lat="49.25645" lon="-0.10388">
        <ele>4.5</ele>
        <time>2023-11-19T08:16:41Z</time>
      </trkpt>
      <trkpt lat="49.25639" lon="-0.10387">
        <ele>4.5</ele>
        <time>2023-11-19T08:16:42Z</time>
      </trkpt>
      <trkpt lat="49.25632" lon="-0.10386">
        <ele>4.5</ele>
        <time>2023-11-19T08:16:43Z</time>
      </trkpt>
      <trkpt lat="49.25625" lon="-0.10386">
        <ele>4.5</ele>
        <time>2023-11-19T08:16:44Z</time>
      </trkpt>
      <trkpt lat="49.25619" lon="-0.10385">
        <ele>4.5</ele>
        <time>2023-11-19T08:16:45Z</time>
      </trkpt>
      <trkpt lat="49.25612" lon="-0.10383">
        <ele>4.4</ele>
        <time>2023-11-19T08:16:46Z</time>
      </trkpt>
      <trkpt lat="49.25606" lon="-0.10382">
        <ele>4.4</ele>
        <time>2023-11-19T08:16:47Z</time>
      </trkpt>
      <trkpt lat="49.25599" lon="-0.10381">
        <ele>4.4</ele>
        <time>2023-11-19T08:16:48Z</time>
      </trkpt>
      <trkpt lat="49.25592" lon="-0.1038">
        <ele>4.4</ele>
        <time>2023-11-19T08:16:49Z</time>
      </trkpt>
      <trkpt lat="49.25585" lon="-0.10379">
        <ele>4.3</ele>
        <time>2023-11-19T08:16:50Z</time>
      </trkpt>
      <trkpt lat="49.25579" lon="-0.10378">
        <ele>4.3</ele>
        <time>2023-11-19T08:16:51Z</time>
      </trkpt>
      <trkpt lat="49.25572" lon="-0.10376">
        <ele>4.3</ele>
        <time>2023-11-19T08:16:52Z</time>
      </trkpt>
      <trkpt lat="49.25565" lon="-0.10375">
        <ele>4.3</ele>
        <time>2023-11-19T08:16:53Z</time>
      </trkpt>
      <trkpt lat="49.25558" lon="-0.10374">
        <ele>4.3</ele>
        <time>2023-11-19T08:16:54Z</time>
      </trkpt>
      <trkpt lat="49.25551" lon="-0.10373">
        <ele>4.3</ele>
        <time>2023-11-19T08:16:55Z</time>
      </trkpt>
      <trkpt lat="49.25545" lon="-0.10372">
        <ele>4.3</ele>
        <time>2023-11-19T08:16:56Z</time>
      </trkpt>
      <trkpt lat="49.25538" lon="-0.10371">
        <ele>4.3</ele>
        <time>2023-11-19T08:16:57Z</time>
      </trkpt>
      <trkpt lat="49.25531" lon="-0.10369">
        <ele>4.3</ele>
        <time>2023-11-19T08:16:58Z</time>
      </trkpt>
      <trkpt lat="49.25525" lon="-0.10367">
        <ele>4.3</ele>
        <time>2023-11-19T08:16:59Z</time>
      </trkpt>
      <trkpt lat="49.25518" lon="-0.10366">
        <ele>4.3</ele>
        <time>2023-11-19T08:17:00Z</time>
      </trkpt>
      <trkpt lat="49.25511" lon="-0.10365">
        <ele>4.3</ele>
        <time>2023-11-19T08:17:01Z</time>
      </trkpt>
      <trkpt lat="49.25505" lon="-0.10364">
        <ele>4.3</ele>
        <time>2023-11-19T08:17:02Z</time>
      </trkpt>
      <trkpt lat="49.25499" lon="-0.10362">
        <ele>4.3</ele>
        <time>2023-11-19T08:17:03Z</time>
      </trkpt>
      <trkpt lat="49.25492" lon="-0.10361">
        <ele>4.3</ele>
        <time>2023-11-19T08:17:04Z</time>
      </trkpt>
      <trkpt lat="49.25485" lon="-0.1036">
        <ele>4.3</ele>
        <time>2023-11-19T08:17:05Z</time>
      </trkpt>
      <trkpt lat="49.25479" lon="-0.10359">
        <ele>4.3</ele>
        <time>2023-11-19T08:17:06Z</time>
      </trkpt>
      <trkpt lat="49.25472" lon="-0.10358">
        <ele>4.4</ele>
        <time>2023-11-19T08:17:07Z</time>
      </trkpt>
      <trkpt lat="49.25465" lon="-0.10357">
        <ele>4.4</ele>
        <time>2023-11-19T08:17:08Z</time>
      </trkpt>
      <trkpt lat="49.25458" lon="-0.10357">
        <ele>4.4</ele>
        <time>2023-11-19T08:17:09Z</time>
      </trkpt>
      <trkpt lat="49.25452" lon="-0.10356">
        <ele>4.4</ele>
        <time>2023-11-19T08:17:10Z</time>
      </trkpt>
      <trkpt lat="49.25445" lon="-0.10355">
        <ele>4.4</ele>
        <time>2023-11-19T08:17:11Z</time>
      </trkpt>
      <trkpt lat="49.25439" lon="-0.10354">
        <ele>4.4</ele>
        <time>2023-11-19T08:17:12Z</time>
      </trkpt>
      <trkpt lat="49.25432" lon="-0.10354">
        <ele>4.3</ele>
        <time>2023-11-19T08:17:13Z</time>
      </trkpt>
      <trkpt lat="49.25426" lon="-0.10353">
        <ele>4.3</ele>
        <time>2023-11-19T08:17:14Z</time>
      </trkpt>
      <trkpt lat="49.25419" lon="-0.10352">
        <ele>4.3</ele>
        <time>2023-11-19T08:17:15Z</time>
      </trkpt>
      <trkpt lat="49.25413" lon="-0.10351">
        <ele>4.3</ele>
        <time>2023-11-19T08:17:16Z</time>
      </trkpt>
      <trkpt lat="49.25406" lon="-0.1035">
        <ele>4.3</ele>
        <time>2023-11-19T08:17:17Z</time>
      </trkpt>
      <trkpt lat="49.25399" lon="-0.1035">
        <ele>4.3</ele>
        <time>2023-11-19T08:17:18Z</time>
      </trkpt>
      <trkpt lat="49.25392" lon="-0.10348">
        <ele>4.3</ele>
        <time>2023-11-19T08:17:19Z</time>
      </trkpt>
      <trkpt lat="49.25386" lon="-0.10347">
        <ele>4.3</ele>
        <time>2023-11-19T08:17:20Z</time>
      </trkpt>
      <trkpt lat="49.25379" lon="-0.10347">
        <ele>4.4</ele>
        <time>2023-11-19T08:17:21Z</time>
      </trkpt>
      <trkpt lat="49.25373" lon="-0.10346">
        <ele>4.4</ele>
        <time>2023-11-19T08:17:22Z</time>
      </trkpt>
      <trkpt lat="49.25366" lon="-0.10346">
        <ele>4.4</ele>
        <time>2023-11-19T08:17:23Z</time>
      </trkpt>
      <trkpt lat="49.25359" lon="-0.10346">
        <ele>4.4</ele>
        <time>2023-11-19T08:17:24Z</time>
      </trkpt>
      <trkpt lat="49.25352" lon="-0.10345">
        <ele>4.4</ele>
        <time>2023-11-19T08:17:25Z</time>
      </trkpt>
      <trkpt lat="49.25345" lon="-0.10344">
        <ele>4.5</ele>
        <time>2023-11-19T08:17:26Z</time>
      </trkpt>
      <trkpt lat="49.25338" lon="-0.10343">
        <ele>4.5</ele>
        <time>2023-11-19T08:17:27Z</time>
      </trkpt>
      <trkpt lat="49.2533" lon="-0.10342">
        <ele>4.5</ele>
        <time>2023-11-19T08:17:28Z</time>
      </trkpt>
      <trkpt lat="49.25323" lon="-0.10341">
        <ele>4.5</ele>
        <time>2023-11-19T08:17:29Z</time>
      </trkpt>
      <trkpt lat="49.25316" lon="-0.1034">
        <ele>4.5</ele>
        <time>2023-11-19T08:17:30Z</time>
      </trkpt>
      <trkpt lat="49.25309" lon="-0.10339">
        <ele>4.4</ele>
        <time>2023-11-19T08:17:31Z</time>
      </trkpt>
      <trkpt lat="49.25302" lon="-0.10338">
        <ele>4.4</ele>
        <time>2023-11-19T08:17:32Z</time>
      </trkpt>
      <trkpt lat="49.25295" lon="-0.10337">
        <ele>4.4</ele>
        <time>2023-11-19T08:17:33Z</time>
      </trkpt>
      <trkpt lat="49.25289" lon="-0.10336">
        <ele>4.4</ele>
        <time>2023-11-19T08:17:34Z</time>
      </trkpt>
      <trkpt lat="49.25282" lon="-0.10335">
        <ele>4.4</ele>
        <time>2023-11-19T08:17:35Z</time>
      </trkpt>
      <trkpt lat="49.25275" lon="-0.10334">
        <ele>4.4</ele>
        <time>2023-11-19T08:17:36Z</time>
      </trkpt>
      <trkpt lat="49.25268" lon="-0.10333">
        <ele>4.4</ele>
        <time>2023-11-19T08:17:37Z</time>
      </trkpt>
      <trkpt lat="49.25261" lon="-0.10332">
        <ele>4.3</ele>
        <time>2023-11-19T08:17:38Z</time>
      </trkpt>
      <trkpt lat="49.25255" lon="-0.10331">
        <ele>4.3</ele>
        <time>2023-11-19T08:17:39Z</time>
      </trkpt>
      <trkpt lat="49.25248" lon="-0.10331">
        <ele>4.3</ele>
        <time>2023-11-19T08:17:40Z</time>
      </trkpt>
      <trkpt lat="49.25241" lon="-0.1033">
        <ele>4.2</ele>
        <time>2023-11-19T08:17:41Z</time>
      </trkpt>
      <trkpt lat="49.25233" lon="-0.10329">
        <ele>4.2</ele>
        <time>2023-11-19T08:17:42Z</time>
      </trkpt>
      <trkpt lat="49.25226" lon="-0.10328">
        <ele>4.2</ele>
        <time>2023-11-19T08:17:43Z</time>
      </trkpt>
      <trkpt lat="49.25219" lon="-0.10328">
        <ele>4.2</ele>
        <time>2023-11-19T08:17:44Z</time>
      </trkpt>
      <trkpt lat="49.25212" lon="-0.10327">
        <ele>4.2</ele>
        <time>2023-11-19T08:17:45Z</time>
      </trkpt>
      <trkpt lat="49.25205" lon="-0.10327">
        <ele>4.2</ele>
        <time>2023-11-19T08:17:46Z</time>
      </trkpt>
      <trkpt lat="49.25198" lon="-0.10326">
        <ele>4.2</ele>
        <time>2023-11-19T08:17:47Z</time>
      </trkpt>
      <trkpt lat="49.2519" lon="-0.10325">
        <ele>4.2</ele>
        <time>2023-11-19T08:17:48Z</time>
      </trkpt>
      <trkpt lat="49.25183" lon="-0.10324">
        <ele>4.2</ele>
        <time>2023-11-19T08:17:49Z</time>
      </trkpt>
      <trkpt lat="49.25176" lon="-0.10323">
        <ele>4.2</ele>
        <time>2023-11-19T08:17:50Z</time>
      </trkpt>
      <trkpt lat="49.25169" lon="-0.10323">
        <ele>4.2</ele>
        <time>2023-11-19T08:17:51Z</time>
      </trkpt>
      <trkpt lat="49.25161" lon="-0.10322">
        <ele>4.2</ele>
        <time>2023-11-19T08:17:52Z</time>
      </trkpt>
      <trkpt lat="49.25154" lon="-0.10322">
        <ele>4.2</ele>
        <time>2023-11-19T08:17:53Z</time>
      </trkpt>
      <trkpt lat="49.25147" lon="-0.10321">
        <ele>4.2</ele>
        <time>2023-11-19T08:17:54Z</time>
      </trkpt>
      <trkpt lat="49.2514" lon="-0.10321">
        <ele>4.2</ele>
        <time>2023-11-19T08:17:55Z</time>
      </trkpt>
      <trkpt lat="49.25133" lon="-0.1032">
        <ele>4.2</ele>
        <time>2023-11-19T08:17:56Z</time>
      </trkpt>
      <trkpt lat="49.25126" lon="-0.10319">
        <ele>4.2</ele>
        <time>2023-11-19T08:17:57Z</time>
      </trkpt>
      <trkpt lat="49.25119" lon="-0.10319">
        <ele>4.2</ele>
        <time>2023-11-19T08:17:58Z</time>
      </trkpt>
      <trkpt lat="49.25112" lon="-0.10318">
        <ele>4.2</ele>
        <time>2023-11-19T08:17:59Z</time>
      </trkpt>
      <trkpt lat="49.25105" lon="-0.10317">
        <ele>4.2</ele>
        <time>2023-11-19T08:18:00Z</time>
      </trkpt>
      <trkpt lat="49.25098" lon="-0.10317">
        <ele>4.2</ele>
        <time>2023-11-19T08:18:01Z</time>
      </trkpt>
      <trkpt lat="49.25091" lon="-0.10317">
        <ele>4.2</ele>
        <time>2023-11-19T08:18:02Z</time>
      </trkpt>
      <trkpt lat="49.25084" lon="-0.10317">
        <ele>4.2</ele>
        <time>2023-11-19T08:18:03Z</time>
      </trkpt>
      <trkpt lat="49.25077" lon="-0.10317">
        <ele>4.2</ele>
        <time>2023-11-19T08:18:04Z</time>
      </trkpt>
      <trkpt lat="49.2507" lon="-0.10317">
        <ele>4.2</ele>
        <time>2023-11-19T08:18:05Z</time>
      </trkpt>
      <trkpt lat="49.25063" lon="-0.10316">
        <ele>4.2</ele>
        <time>2023-11-19T08:18:06Z</time>
      </trkpt>
      <trkpt lat="49.25056" lon="-0.10316">
        <ele>4.2</ele>
        <time>2023-11-19T08:18:07Z</time>
      </trkpt>
      <trkpt lat="49.25049" lon="-0.10316">
        <ele>4.2</ele>
        <time>2023-11-19T08:18:08Z</time>
      </trkpt>
      <trkpt lat="49.25042" lon="-0.10317">
        <ele>4.2</ele>
        <time>2023-11-19T08:18:09Z</time>
      </trkpt>
      <trkpt lat="49.25035" lon="-0.10317">
        <ele>4.2</ele>
        <time>2023-11-19T08:18:10Z</time>
      </trkpt>
      <trkpt lat="49.25028" lon="-0.10317">
        <ele>4.1</ele>
        <time>2023-11-19T08:18:11Z</time>
      </trkpt>
      <trkpt lat="49.25021" lon="-0.10317">
        <ele>4.1</ele>
        <time>2023-11-19T08:18:12Z</time>
      </trkpt>
      <trkpt lat="49.25014" lon="-0.10317">
        <ele>4.1</ele>
        <time>2023-11-19T08:18:13Z</time>
      </trkpt>
      <trkpt lat="49.25007" lon="-0.10317">
        <ele>4.1</ele>
        <time>2023-11-19T08:18:14Z</time>
      </trkpt>
      <trkpt lat="49.25" lon="-0.10317">
        <ele>4.1</ele>
        <time>2023-11-19T08:18:15Z</time>
      </trkpt>
      <trkpt lat="49.24993" lon="-0.10317">
        <ele>4.1</ele>
        <time>2023-11-19T08:18:16Z</time>
      </trkpt>
      <trkpt lat="49.24986" lon="-0.10317">
        <ele>4.1</ele>
        <time>2023-11-19T08:18:17Z</time>
      </trkpt>
      <trkpt lat="49.24979" lon="-0.10317">
        <ele>4.1</ele>
        <time>2023-11-19T08:18:18Z</time>
      </trkpt>
      <trkpt lat="49.24972" lon="-0.10317">
        <ele>4.1</ele>
        <time>2023-11-19T08:18:19Z</time>
      </trkpt>
      <trkpt lat="49.24965" lon="-0.10318">
        <ele>4.2</ele>
        <time>2023-11-19T08:18:20Z</time>
      </trkpt>
      <trkpt lat="49.24958" lon="-0.10318">
        <ele>4.2</ele>
        <time>2023-11-19T08:18:21Z</time>
      </trkpt>
      <trkpt lat="49.24951" lon="-0.10318">
        <ele>4.2</ele>
        <time>2023-11-19T08:18:22Z</time>
      </trkpt>
      <trkpt lat="49.24944" lon="-0.10318">
        <ele>4.2</ele>
        <time>2023-11-19T08:18:23Z</time>
      </trkpt>
      <trkpt lat="49.24937" lon="-0.10318">
        <ele>4.3</ele>
        <time>2023-11-19T08:18:24Z</time>
      </trkpt>
      <trkpt lat="49.2493" lon="-0.10318">
        <ele>4.3</ele>
        <time>2023-11-19T08:18:25Z</time>
      </trkpt>
      <trkpt lat="49.24923" lon="-0.10319">
        <ele>4.3</ele>
        <time>2023-11-19T08:18:26Z</time>
      </trkpt>
      <trkpt lat="49.24915" lon="-0.10319">
        <ele>4.4</ele>
        <time>2023-11-19T08:18:27Z</time>
      </trkpt>
      <trkpt lat="49.24908" lon="-0.10319">
        <ele>4.4</ele>
        <time>2023-11-19T08:18:28Z</time>
      </trkpt>
      <trkpt lat="49.24901" lon="-0.10319">
        <ele>4.4</ele>
        <time>2023-11-19T08:18:29Z</time>
      </trkpt>
      <trkpt lat="49.24894" lon="-0.10319">
        <ele>4.4</ele>
        <time>2023-11-19T08:18:30Z</time>
      </trkpt>
      <trkpt lat="49.24887" lon="-0.10319">
        <ele>4.4</ele>
        <time>2023-11-19T08:18:31Z</time>
      </trkpt>
      <trkpt lat="49.24881" lon="-0.10319">
        <ele>4.4</ele>
        <time>2023-11-19T08:18:32Z</time>
      </trkpt>
      <trkpt lat="49.24874" lon="-0.10319">
        <ele>4.4</ele>
        <time>2023-11-19T08:18:33Z</time>
      </trkpt>
      <trkpt lat="49.24867" lon="-0.10319">
        <ele>4.4</ele>
        <time>2023-11-19T08:18:34Z</time>
      </trkpt>
      <trkpt lat="49.24859" lon="-0.10319">
        <ele>4.4</ele>
        <time>2023-11-19T08:18:35Z</time>
      </trkpt>
      <trkpt lat="49.24852" lon="-0.10319">
        <ele>4.4</ele>
        <time>2023-11-19T08:18:36Z</time>
      </trkpt>
      <trkpt lat="49.24845" lon="-0.10319">
        <ele>4.4</ele>
        <time>2023-11-19T08:18:37Z</time>
      </trkpt>
      <trkpt lat="49.24838" lon="-0.10319">
        <ele>4.4</ele>
        <time>2023-11-19T08:18:38Z</time>
      </trkpt>
      <trkpt lat="49.24831" lon="-0.10319">
        <ele>4.4</ele>
        <time>2023-11-19T08:18:39Z</time>
      </trkpt>
      <trkpt lat="49.24824" lon="-0.1032">
        <ele>4.4</ele>
        <time>2023-11-19T08:18:40Z</time>
      </trkpt>
      <trkpt lat="49.24817" lon="-0.1032">
        <ele>4.4</ele>
        <time>2023-11-19T08:18:41Z</time>
      </trkpt>
      <trkpt lat="49.2481" lon="-0.1032">
        <ele>4.4</ele>
        <time>2023-11-19T08:18:42Z</time>
      </trkpt>
      <trkpt lat="49.24802" lon="-0.10321">
        <ele>4.3</ele>
        <time>2023-11-19T08:18:43Z</time>
      </trkpt>
      <trkpt lat="49.24795" lon="-0.10321">
        <ele>4.3</ele>
        <time>2023-11-19T08:18:44Z</time>
      </trkpt>
      <trkpt lat="49.24788" lon="-0.10321">
        <ele>4.3</ele>
        <time>2023-11-19T08:18:45Z</time>
      </trkpt>
      <trkpt lat="49.24781" lon="-0.10321">
        <ele>4.3</ele>
        <time>2023-11-19T08:18:46Z</time>
      </trkpt>
      <trkpt lat="49.24773" lon="-0.10321">
        <ele>4.2</ele>
        <time>2023-11-19T08:18:47Z</time>
      </trkpt>
      <trkpt lat="49.24766" lon="-0.10321">
        <ele>4.2</ele>
        <time>2023-11-19T08:18:48Z</time>
      </trkpt>
      <trkpt lat="49.24759" lon="-0.10321">
        <ele>4.2</ele>
        <time>2023-11-19T08:18:49Z</time>
      </trkpt>
      <trkpt lat="49.24752" lon="-0.10321">
        <ele>4.2</ele>
        <time>2023-11-19T08:18:50Z</time>
      </trkpt>
      <trkpt lat="49.24745" lon="-0.10321">
        <ele>4.2</ele>
        <time>2023-11-19T08:18:51Z</time>
      </trkpt>
      <trkpt lat="49.24738" lon="-0.10321">
        <ele>4.2</ele>
        <time>2023-11-19T08:18:52Z</time>
      </trkpt>
      <trkpt lat="49.24732" lon="-0.10321">
        <ele>4.2</ele>
        <time>2023-11-19T08:18:53Z</time>
      </trkpt>
      <trkpt lat="49.24724" lon="-0.10321">
        <ele>4.2</ele>
        <time>2023-11-19T08:18:54Z</time>
      </trkpt>
      <trkpt lat="49.24717" lon="-0.10321">
        <ele>4.2</ele>
        <time>2023-11-19T08:18:55Z</time>
      </trkpt>
      <trkpt lat="49.2471" lon="-0.1032">
        <ele>4.2</ele>
        <time>2023-11-19T08:18:56Z</time>
      </trkpt>
      <trkpt lat="49.24703" lon="-0.1032">
        <ele>4.2</ele>
        <time>2023-11-19T08:18:57Z</time>
      </trkpt>
      <trkpt lat="49.24695" lon="-0.10319">
        <ele>4.2</ele>
        <time>2023-11-19T08:18:58Z</time>
      </trkpt>
      <trkpt lat="49.24688" lon="-0.10319">
        <ele>4.2</ele>
        <time>2023-11-19T08:18:59Z</time>
      </trkpt>
      <trkpt lat="49.24681" lon="-0.10319">
        <ele>4.2</ele>
        <time>2023-11-19T08:19:00Z</time>
      </trkpt>
      <trkpt lat="49.24673" lon="-0.10319">
        <ele>4.2</ele>
        <time>2023-11-19T08:19:01Z</time>
      </trkpt>
      <trkpt lat="49.24666" lon="-0.10318">
        <ele>4.2</ele>
        <time>2023-11-19T08:19:02Z</time>
      </trkpt>
      <trkpt lat="49.24659" lon="-0.10318">
        <ele>4.2</ele>
        <time>2023-11-19T08:19:03Z</time>
      </trkpt>
      <trkpt lat="49.24652" lon="-0.10317">
        <ele>4.2</ele>
        <time>2023-11-19T08:19:04Z</time>
      </trkpt>
      <trkpt lat="49.24645" lon="-0.10316">
        <ele>4.2</ele>
        <time>2023-11-19T08:19:05Z</time>
      </trkpt>
      <trkpt lat="49.24638" lon="-0.10315">
        <ele>4.2</ele>
        <time>2023-11-19T08:19:06Z</time>
      </trkpt>
      <trkpt lat="49.24631" lon="-0.10314">
        <ele>4.2</ele>
        <time>2023-11-19T08:19:07Z</time>
      </trkpt>
      <trkpt lat="49.24623" lon="-0.10313">
        <ele>4.2</ele>
        <time>2023-11-19T08:19:08Z</time>
      </trkpt>
      <trkpt lat="49.24617" lon="-0.10312">
        <ele>4.2</ele>
        <time>2023-11-19T08:19:09Z</time>
      </trkpt>
      <trkpt lat="49.2461" lon="-0.10311">
        <ele>4.2</ele>
        <time>2023-11-19T08:19:10Z</time>
      </trkpt>
      <trkpt lat="49.24603" lon="-0.1031">
        <ele>4.2</ele>
        <time>2023-11-19T08:19:11Z</time>
      </trkpt>
      <trkpt lat="49.24596" lon="-0.10308">
        <ele>4.3</ele>
        <time>2023-11-19T08:19:12Z</time>
      </trkpt>
      <trkpt lat="49.24589" lon="-0.10306">
        <ele>4.3</ele>
        <time>2023-11-19T08:19:13Z</time>
      </trkpt>
      <trkpt lat="49.24582" lon="-0.10304">
        <ele>4.4</ele>
        <time>2023-11-19T08:19:14Z</time>
      </trkpt>
      <trkpt lat="49.24575" lon="-0.10302">
        <ele>4.4</ele>
        <time>2023-11-19T08:19:15Z</time>
      </trkpt>
      <trkpt lat="49.24568" lon="-0.10301">
        <ele>4.5</ele>
        <time>2023-11-19T08:19:16Z</time>
      </trkpt>
      <trkpt lat="49.24561" lon="-0.10299">
        <ele>4.5</ele>
        <time>2023-11-19T08:19:17Z</time>
      </trkpt>
      <trkpt lat="49.24555" lon="-0.10296">
        <ele>4.5</ele>
        <time>2023-11-19T08:19:18Z</time>
      </trkpt>
      <trkpt lat="49.24548" lon="-0.10294">
        <ele>4.6</ele>
        <time>2023-11-19T08:19:19Z</time>
      </trkpt>
      <trkpt lat="49.24541" lon="-0.10292">
        <ele>4.6</ele>
        <time>2023-11-19T08:19:20Z</time>
      </trkpt>
      <trkpt lat="49.24535" lon="-0.10289">
        <ele>4.6</ele>
        <time>2023-11-19T08:19:21Z</time>
      </trkpt>
      <trkpt lat="49.24528" lon="-0.10287">
        <ele>4.7</ele>
        <time>2023-11-19T08:19:22Z</time>
      </trkpt>
      <trkpt lat="49.24521" lon="-0.10284">
        <ele>4.7</ele>
        <time>2023-11-19T08:19:23Z</time>
      </trkpt>
      <trkpt lat="49.24515" lon="-0.10281">
        <ele>4.7</ele>
        <time>2023-11-19T08:19:24Z</time>
      </trkpt>
      <trkpt lat="49.24508" lon="-0.10278">
        <ele>4.8</ele>
        <time>2023-11-19T08:19:25Z</time>
      </trkpt>
      <trkpt lat="49.24501" lon="-0.10275">
        <ele>4.8</ele>
        <time>2023-11-19T08:19:26Z</time>
      </trkpt>
      <trkpt lat="49.24495" lon="-0.10272">
        <ele>4.9</ele>
        <time>2023-11-19T08:19:27Z</time>
      </trkpt>
      <trkpt lat="49.24488" lon="-0.10269">
        <ele>5</ele>
        <time>2023-11-19T08:19:28Z</time>
      </trkpt>
      <trkpt lat="49.24481" lon="-0.10267">
        <ele>5.1</ele>
        <time>2023-11-19T08:19:29Z</time>
      </trkpt>
      <trkpt lat="49.24475" lon="-0.10263">
        <ele>5.2</ele>
        <time>2023-11-19T08:19:30Z</time>
      </trkpt>
      <trkpt lat="49.24468" lon="-0.1026">
        <ele>5.3</ele>
        <time>2023-11-19T08:19:31Z</time>
      </trkpt>
      <trkpt lat="49.24461" lon="-0.10256">
        <ele>5.4</ele>
        <time>2023-11-19T08:19:32Z</time>
      </trkpt>
      <trkpt lat="49.24455" lon="-0.10252">
        <ele>5.5</ele>
        <time>2023-11-19T08:19:33Z</time>
      </trkpt>
      <trkpt lat="49.24448" lon="-0.10248">
        <ele>5.7</ele>
        <time>2023-11-19T08:19:34Z</time>
      </trkpt>
      <trkpt lat="49.24442" lon="-0.10245">
        <ele>5.8</ele>
        <time>2023-11-19T08:19:35Z</time>
      </trkpt>
      <trkpt lat="49.24435" lon="-0.10241">
        <ele>5.9</ele>
        <time>2023-11-19T08:19:36Z</time>
      </trkpt>
      <trkpt lat="49.24429" lon="-0.10237">
        <ele>6</ele>
        <time>2023-11-19T08:19:37Z</time>
      </trkpt>
      <trkpt lat="49.24422" lon="-0.10233">
        <ele>6.1</ele>
        <time>2023-11-19T08:19:38Z</time>
      </trkpt>
      <trkpt lat="49.24416" lon="-0.10229">
        <ele>6.2</ele>
        <time>2023-11-19T08:19:39Z</time>
      </trkpt>
      <trkpt lat="49.2441" lon="-0.10224">
        <ele>6.3</ele>
        <time>2023-11-19T08:19:40Z</time>
      </trkpt>
      <trkpt lat="49.24403" lon="-0.10219">
        <ele>6.4</ele>
        <time>2023-11-19T08:19:41Z</time>
      </trkpt>
      <trkpt lat="49.24397" lon="-0.10214">
        <ele>6.5</ele>
        <time>2023-11-19T08:19:42Z</time>
      </trkpt>
      <trkpt lat="49.2439" lon="-0.10209">
        <ele>6.5</ele>
        <time>2023-11-19T08:19:43Z</time>
      </trkpt>
      <trkpt lat="49.24383" lon="-0.10205">
        <ele>6.6</ele>
        <time>2023-11-19T08:19:44Z</time>
      </trkpt>
      <trkpt lat="49.24377" lon="-0.10199">
        <ele>6.6</ele>
        <time>2023-11-19T08:19:45Z</time>
      </trkpt>
      <trkpt lat="49.2437" lon="-0.10194">
        <ele>6.7</ele>
        <time>2023-11-19T08:19:46Z</time>
      </trkpt>
      <trkpt lat="49.24363" lon="-0.10188">
        <ele>6.7</ele>
        <time>2023-11-19T08:19:47Z</time>
      </trkpt>
      <trkpt lat="49.24356" lon="-0.10183">
        <ele>6.8</ele>
        <time>2023-11-19T08:19:48Z</time>
      </trkpt>
      <trkpt lat="49.2435" lon="-0.10177">
        <ele>6.8</ele>
        <time>2023-11-19T08:19:49Z</time>
      </trkpt>
      <trkpt lat="49.24343" lon="-0.10171">
        <ele>6.8</ele>
        <time>2023-11-19T08:19:50Z</time>
      </trkpt>
      <trkpt lat="49.24336" lon="-0.10165">
        <ele>6.8</ele>
        <time>2023-11-19T08:19:51Z</time>
      </trkpt>
      <trkpt lat="49.2433" lon="-0.10159">
        <ele>6.8</ele>
        <time>2023-11-19T08:19:52Z</time>
      </trkpt>
      <trkpt lat="49.24323" lon="-0.10153">
        <ele>6.8</ele>
        <time>2023-11-19T08:19:53Z</time>
      </trkpt>
      <trkpt lat="49.24317" lon="-0.10147">
        <ele>6.8</ele>
        <time>2023-11-19T08:19:54Z</time>
      </trkpt>
      <trkpt lat="49.2431" lon="-0.10141">
        <ele>6.7</ele>
        <time>2023-11-19T08:19:55Z</time>
      </trkpt>
      <trkpt lat="49.24304" lon="-0.10134">
        <ele>6.7</ele>
        <time>2023-11-19T08:19:56Z</time>
      </trkpt>
      <trkpt lat="49.24298" lon="-0.10127">
        <ele>6.6</ele>
        <time>2023-11-19T08:19:57Z</time>
      </trkpt>
      <trkpt lat="49.24292" lon="-0.10121">
        <ele>6.6</ele>
        <time>2023-11-19T08:19:58Z</time>
      </trkpt>
      <trkpt lat="49.24286" lon="-0.10114">
        <ele>6.5</ele>
        <time>2023-11-19T08:19:59Z</time>
      </trkpt>
      <trkpt lat="49.24279" lon="-0.10107">
        <ele>6.4</ele>
        <time>2023-11-19T08:20:00Z</time>
      </trkpt>
      <trkpt lat="49.24273" lon="-0.101">
        <ele>6.4</ele>
        <time>2023-11-19T08:20:01Z</time>
      </trkpt>
      <trkpt lat="49.24267" lon="-0.10093">
        <ele>6.3</ele>
        <time>2023-11-19T08:20:02Z</time>
      </trkpt>
      <trkpt lat="49.2426" lon="-0.10086">
        <ele>6.2</ele>
        <time>2023-11-19T08:20:03Z</time>
      </trkpt>
      <trkpt lat="49.24254" lon="-0.10078">
        <ele>6.1</ele>
        <time>2023-11-19T08:20:04Z</time>
      </trkpt>
      <trkpt lat="49.24248" lon="-0.10071">
        <ele>6</ele>
        <time>2023-11-19T08:20:05Z</time>
      </trkpt>
      <trkpt lat="49.24241" lon="-0.10064">
        <ele>5.9</ele>
        <time>2023-11-19T08:20:06Z</time>
      </trkpt>
      <trkpt lat="49.24235" lon="-0.10056">
        <ele>5.8</ele>
        <time>2023-11-19T08:20:07Z</time>
      </trkpt>
      <trkpt lat="49.24229" lon="-0.10049">
        <ele>5.7</ele>
        <time>2023-11-19T08:20:08Z</time>
      </trkpt>
      <trkpt lat="49.24222" lon="-0.10041">
        <ele>5.6</ele>
        <time>2023-11-19T08:20:09Z</time>
      </trkpt>
      <trkpt lat="49.24216" lon="-0.10033">
        <ele>5.5</ele>
        <time>2023-11-19T08:20:10Z</time>
      </trkpt>
      <trkpt lat="49.2421" lon="-0.10026">
        <ele>5.4</ele>
        <time>2023-11-19T08:20:11Z</time>
      </trkpt>
      <trkpt lat="49.24204" lon="-0.10018">
        <ele>5.3</ele>
        <time>2023-11-19T08:20:12Z</time>
      </trkpt>
      <trkpt lat="49.24197" lon="-0.1001">
        <ele>5.2</ele>
        <time>2023-11-19T08:20:13Z</time>
      </trkpt>
      <trkpt lat="49.24191" lon="-0.10002">
        <ele>5.1</ele>
        <time>2023-11-19T08:20:14Z</time>
      </trkpt>
      <trkpt lat="49.24184" lon="-0.09995">
        <ele>5.1</ele>
        <time>2023-11-19T08:20:15Z</time>
      </trkpt>
      <trkpt lat="49.24178" lon="-0.09988">
        <ele>5</ele>
        <time>2023-11-19T08:20:16Z</time>
      </trkpt>
      <trkpt lat="49.24171" lon="-0.0998">
        <ele>4.9</ele>
        <time>2023-11-19T08:20:17Z</time>
      </trkpt>
      <trkpt lat="49.24165" lon="-0.09972">
        <ele>4.8</ele>
        <time>2023-11-19T08:20:18Z</time>
      </trkpt>
      <trkpt lat="49.24159" lon="-0.09965">
        <ele>4.8</ele>
        <time>2023-11-19T08:20:19Z</time>
      </trkpt>
      <trkpt lat="49.24153" lon="-0.09957">
        <ele>4.7</ele>
        <time>2023-11-19T08:20:20Z</time>
      </trkpt>
      <trkpt lat="49.24147" lon="-0.0995">
        <ele>4.7</ele>
        <time>2023-11-19T08:20:21Z</time>
      </trkpt>
      <trkpt lat="49.24141" lon="-0.09943">
        <ele>4.6</ele>
        <time>2023-11-19T08:20:22Z</time>
      </trkpt>
      <trkpt lat="49.24135" lon="-0.09936">
        <ele>4.6</ele>
        <time>2023-11-19T08:20:23Z</time>
      </trkpt>
      <trkpt lat="49.24129" lon="-0.09929">
        <ele>4.6</ele>
        <time>2023-11-19T08:20:24Z</time>
      </trkpt>
      <trkpt lat="49.24123" lon="-0.09922">
        <ele>4.6</ele>
        <time>2023-11-19T08:20:25Z</time>
      </trkpt>
      <trkpt lat="49.24118" lon="-0.09915">
        <ele>4.6</ele>
        <time>2023-11-19T08:20:26Z</time>
      </trkpt>
      <trkpt lat="49.24112" lon="-0.09908">
        <ele>4.6</ele>
        <time>2023-11-19T08:20:27Z</time>
      </trkpt>
      <trkpt lat="49.24106" lon="-0.09901">
        <ele>4.6</ele>
        <time>2023-11-19T08:20:28Z</time>
      </trkpt>
      <trkpt lat="49.241" lon="-0.09894">
        <ele>4.6</ele>
        <time>2023-11-19T08:20:29Z</time>
      </trkpt>
      <trkpt lat="49.24094" lon="-0.09887">
        <ele>4.6</ele>
        <time>2023-11-19T08:20:30Z</time>
      </trkpt>
      <trkpt lat="49.24088" lon="-0.0988">
        <ele>4.6</ele>
        <time>2023-11-19T08:20:31Z</time>
      </trkpt>
      <trkpt lat="49.24082" lon="-0.09873">
        <ele>4.6</ele>
        <time>2023-11-19T08:20:32Z</time>
      </trkpt>
      <trkpt lat="49.24075" lon="-0.09866">
        <ele>4.6</ele>
        <time>2023-11-19T08:20:33Z</time>
      </trkpt>
      <trkpt lat="49.24069" lon="-0.09858">
        <ele>4.6</ele>
        <time>2023-11-19T08:20:34Z</time>
      </trkpt>
      <trkpt lat="49.24063" lon="-0.09851">
        <ele>4.7</ele>
        <time>2023-11-19T08:20:35Z</time>
      </trkpt>
      <trkpt lat="49.24056" lon="-0.09843">
        <ele>4.7</ele>
        <time>2023-11-19T08:20:36Z</time>
      </trkpt>
      <trkpt lat="49.2405" lon="-0.09835">
        <ele>4.7</ele>
        <time>2023-11-19T08:20:37Z</time>
      </trkpt>
      <trkpt lat="49.24044" lon="-0.09827">
        <ele>4.7</ele>
        <time>2023-11-19T08:20:38Z</time>
      </trkpt>
      <trkpt lat="49.24037" lon="-0.0982">
        <ele>4.7</ele>
        <time>2023-11-19T08:20:39Z</time>
      </trkpt>
      <trkpt lat="49.24031" lon="-0.09812">
        <ele>4.7</ele>
        <time>2023-11-19T08:20:40Z</time>
      </trkpt>
      <trkpt lat="49.24025" lon="-0.09804">
        <ele>4.7</ele>
        <time>2023-11-19T08:20:41Z</time>
      </trkpt>
      <trkpt lat="49.24019" lon="-0.09797">
        <ele>4.7</ele>
        <time>2023-11-19T08:20:42Z</time>
      </trkpt>
      <trkpt lat="49.24013" lon="-0.09789">
        <ele>4.7</ele>
        <time>2023-11-19T08:20:43Z</time>
      </trkpt>
      <trkpt lat="49.24007" lon="-0.09782">
        <ele>4.7</ele>
        <time>2023-11-19T08:20:44Z</time>
      </trkpt>
      <trkpt lat="49.24001" lon="-0.09774">
        <ele>4.7</ele>
        <time>2023-11-19T08:20:45Z</time>
      </trkpt>
      <trkpt lat="49.23995" lon="-0.09767">
        <ele>4.7</ele>
        <time>2023-11-19T08:20:46Z</time>
      </trkpt>
      <trkpt lat="49.23989" lon="-0.0976">
        <ele>4.7</ele>
        <time>2023-11-19T08:20:47Z</time>
      </trkpt>
      <trkpt lat="49.23983" lon="-0.09753">
        <ele>4.7</ele>
        <time>2023-11-19T08:20:48Z</time>
      </trkpt>
      <trkpt lat="49.23977" lon="-0.09745">
        <ele>4.7</ele>
        <time>2023-11-19T08:20:49Z</time>
      </trkpt>
      <trkpt lat="49.23971" lon="-0.09738">
        <ele>4.8</ele>
        <time>2023-11-19T08:20:50Z</time>
      </trkpt>
      <trkpt lat="49.23965" lon="-0.09731">
        <ele>4.8</ele>
        <time>2023-11-19T08:20:51Z</time>
      </trkpt>
      <trkpt lat="49.23958" lon="-0.09723">
        <ele>4.8</ele>
        <time>2023-11-19T08:20:52Z</time>
      </trkpt>
      <trkpt lat="49.23952" lon="-0.09716">
        <ele>4.8</ele>
        <time>2023-11-19T08:20:53Z</time>
      </trkpt>
      <trkpt lat="49.23946" lon="-0.09709">
        <ele>4.8</ele>
        <time>2023-11-19T08:20:54Z</time>
      </trkpt>
      <trkpt lat="49.2394" lon="-0.09701">
        <ele>4.8</ele>
        <time>2023-11-19T08:20:55Z</time>
      </trkpt>
      <trkpt lat="49.23934" lon="-0.09694">
        <ele>4.8</ele>
        <time>2023-11-19T08:20:56Z</time>
      </trkpt>
      <trkpt lat="49.23928" lon="-0.09686">
        <ele>4.8</ele>
        <time>2023-11-19T08:20:57Z</time>
      </trkpt>
      <trkpt lat="49.23922" lon="-0.09679">
        <ele>4.8</ele>
        <time>2023-11-19T08:20:58Z</time>
      </trkpt>
      <trkpt lat="49.23916" lon="-0.09672">
        <ele>4.7</ele>
        <time>2023-11-19T08:20:59Z</time>
      </trkpt>
      <trkpt lat="49.2391" lon="-0.09664">
        <ele>4.7</ele>
        <time>2023-11-19T08:21:00Z</time>
      </trkpt>
      <trkpt lat="49.23903" lon="-0.09657">
        <ele>4.7</ele>
        <time>2023-11-19T08:21:01Z</time>
      </trkpt>
      <trkpt lat="49.23897" lon="-0.09649">
        <ele>4.6</ele>
        <time>2023-11-19T08:21:02Z</time>
      </trkpt>
      <trkpt lat="49.23891" lon="-0.09642">
        <ele>4.6</ele>
        <time>2023-11-19T08:21:03Z</time>
      </trkpt>
      <trkpt lat="49.23885" lon="-0.09635">
        <ele>4.6</ele>
        <time>2023-11-19T08:21:04Z</time>
      </trkpt>
      <trkpt lat="49.23879" lon="-0.09627">
        <ele>4.6</ele>
        <time>2023-11-19T08:21:05Z</time>
      </trkpt>
      <trkpt lat="49.23873" lon="-0.0962">
        <ele>4.6</ele>
        <time>2023-11-19T08:21:06Z</time>
      </trkpt>
      <trkpt lat="49.23867" lon="-0.09613">
        <ele>4.6</ele>
        <time>2023-11-19T08:21:07Z</time>
      </trkpt>
      <trkpt lat="49.23861" lon="-0.09606">
        <ele>4.6</ele>
        <time>2023-11-19T08:21:08Z</time>
      </trkpt>
      <trkpt lat="49.23855" lon="-0.09599">
        <ele>4.6</ele>
        <time>2023-11-19T08:21:09Z</time>
      </trkpt>
      <trkpt lat="49.23849" lon="-0.09592">
        <ele>4.6</ele>
        <time>2023-11-19T08:21:10Z</time>
      </trkpt>
      <trkpt lat="49.23843" lon="-0.09584">
        <ele>4.6</ele>
        <time>2023-11-19T08:21:11Z</time>
      </trkpt>
      <trkpt lat="49.23837" lon="-0.09577">
        <ele>4.5</ele>
        <time>2023-11-19T08:21:12Z</time>
      </trkpt>
      <trkpt lat="49.23831" lon="-0.0957">
        <ele>4.5</ele>
        <time>2023-11-19T08:21:13Z</time>
      </trkpt>
      <trkpt lat="49.23825" lon="-0.09563">
        <ele>4.5</ele>
        <time>2023-11-19T08:21:14Z</time>
      </trkpt>
      <trkpt lat="49.23819" lon="-0.09556">
        <ele>4.5</ele>
        <time>2023-11-19T08:21:15Z</time>
      </trkpt>
      <trkpt lat="49.23814" lon="-0.09549">
        <ele>4.5</ele>
        <time>2023-11-19T08:21:16Z</time>
      </trkpt>
      <trkpt lat="49.23808" lon="-0.09542">
        <ele>4.5</ele>
        <time>2023-11-19T08:21:17Z</time>
      </trkpt>
      <trkpt lat="49.23802" lon="-0.09535">
        <ele>4.5</ele>
        <time>2023-11-19T08:21:18Z</time>
      </trkpt>
      <trkpt lat="49.23797" lon="-0.09528">
        <ele>4.5</ele>
        <time>2023-11-19T08:21:19Z</time>
      </trkpt>
      <trkpt lat="49.23791" lon="-0.09521">
        <ele>4.5</ele>
        <time>2023-11-19T08:21:20Z</time>
      </trkpt>
      <trkpt lat="49.23785" lon="-0.09514">
        <ele>4.4</ele>
        <time>2023-11-19T08:21:21Z</time>
      </trkpt>
      <trkpt lat="49.23779" lon="-0.09507">
        <ele>4.4</ele>
        <time>2023-11-19T08:21:22Z</time>
      </trkpt>
      <trkpt lat="49.23773" lon="-0.095">
        <ele>4.3</ele>
        <time>2023-11-19T08:21:23Z</time>
      </trkpt>
      <trkpt lat="49.23767" lon="-0.09493">
        <ele>4.3</ele>
        <time>2023-11-19T08:21:24Z</time>
      </trkpt>
      <trkpt lat="49.23761" lon="-0.09485">
        <ele>4.3</ele>
        <time>2023-11-19T08:21:25Z</time>
      </trkpt>
      <trkpt lat="49.23755" lon="-0.09478">
        <ele>4.3</ele>
        <time>2023-11-19T08:21:26Z</time>
      </trkpt>
      <trkpt lat="49.23749" lon="-0.09471">
        <ele>4.3</ele>
        <time>2023-11-19T08:21:27Z</time>
      </trkpt>
      <trkpt lat="49.23743" lon="-0.09464">
        <ele>4.3</ele>
        <time>2023-11-19T08:21:28Z</time>
      </trkpt>
      <trkpt lat="49.23737" lon="-0.09457">
        <ele>4.3</ele>
        <time>2023-11-19T08:21:29Z</time>
      </trkpt>
      <trkpt lat="49.23732" lon="-0.0945">
        <ele>4.3</ele>
        <time>2023-11-19T08:21:30Z</time>
      </trkpt>
      <trkpt lat="49.23726" lon="-0.09443">
        <ele>4.3</ele>
        <time>2023-11-19T08:21:31Z</time>
      </trkpt>
      <trkpt lat="49.2372" lon="-0.09436">
        <ele>4.2</ele>
        <time>2023-11-19T08:21:32Z</time>
      </trkpt>
      <trkpt lat="49.23714" lon="-0.0943">
        <ele>4.2</ele>
        <time>2023-11-19T08:21:33Z</time>
      </trkpt>
      <trkpt lat="49.23709" lon="-0.09423">
        <ele>4.2</ele>
        <time>2023-11-19T08:21:34Z</time>
      </trkpt>
      <trkpt lat="49.23703" lon="-0.09416">
        <ele>4.2</ele>
        <time>2023-11-19T08:21:35Z</time>
      </trkpt>
      <trkpt lat="49.23697" lon="-0.0941">
        <ele>4.2</ele>
        <time>2023-11-19T08:21:36Z</time>
      </trkpt>
      <trkpt lat="49.23692" lon="-0.09403">
        <ele>4.2</ele>
        <time>2023-11-19T08:21:37Z</time>
      </trkpt>
      <trkpt lat="49.23686" lon="-0.09396">
        <ele>4.2</ele>
        <time>2023-11-19T08:21:38Z</time>
      </trkpt>
      <trkpt lat="49.23681" lon="-0.09389">
        <ele>4.2</ele>
        <time>2023-11-19T08:21:39Z</time>
      </trkpt>
      <trkpt lat="49.23675" lon="-0.09382">
        <ele>4.2</ele>
        <time>2023-11-19T08:21:40Z</time>
      </trkpt>
      <trkpt lat="49.23669" lon="-0.09375">
        <ele>4.1</ele>
        <time>2023-11-19T08:21:41Z</time>
      </trkpt>
      <trkpt lat="49.23663" lon="-0.09368">
        <ele>4.1</ele>
        <time>2023-11-19T08:21:42Z</time>
      </trkpt>
      <trkpt lat="49.23657" lon="-0.09361">
        <ele>4.1</ele>
        <time>2023-11-19T08:21:43Z</time>
      </trkpt>
      <trkpt lat="49.23651" lon="-0.09353">
        <ele>4.1</ele>
        <time>2023-11-19T08:21:44Z</time>
      </trkpt>
      <trkpt lat="49.23646" lon="-0.09346">
        <ele>4.1</ele>
        <time>2023-11-19T08:21:45Z</time>
      </trkpt>
      <trkpt lat="49.2364" lon="-0.09339">
        <ele>4.1</ele>
        <time>2023-11-19T08:21:46Z</time>
      </trkpt>
      <trkpt lat="49.23634" lon="-0.09332">
        <ele>4.1</ele>
        <time>2023-11-19T08:21:47Z</time>
      </trkpt>
      <trkpt lat="49.23629" lon="-0.09325">
        <ele>4.1</ele>
        <time>2023-11-19T08:21:48Z</time>
      </trkpt>
      <trkpt lat="49.23623" lon="-0.09318">
        <ele>4.1</ele>
        <time>2023-11-19T08:21:49Z</time>
      </trkpt>
      <trkpt lat="49.23617" lon="-0.09311">
        <ele>4.1</ele>
        <time>2023-11-19T08:21:50Z</time>
      </trkpt>
      <trkpt lat="49.23611" lon="-0.09304">
        <ele>4</ele>
        <time>2023-11-19T08:21:51Z</time>
      </trkpt>
      <trkpt lat="49.23605" lon="-0.09297">
        <ele>4</ele>
        <time>2023-11-19T08:21:52Z</time>
      </trkpt>
      <trkpt lat="49.23599" lon="-0.0929">
        <ele>4</ele>
        <time>2023-11-19T08:21:53Z</time>
      </trkpt>
      <trkpt lat="49.23593" lon="-0.09282">
        <ele>4</ele>
        <time>2023-11-19T08:21:54Z</time>
      </trkpt>
      <trkpt lat="49.23587" lon="-0.09276">
        <ele>4.1</ele>
        <time>2023-11-19T08:21:55Z</time>
      </trkpt>
      <trkpt lat="49.23581" lon="-0.09269">
        <ele>4.1</ele>
        <time>2023-11-19T08:21:56Z</time>
      </trkpt>
      <trkpt lat="49.23575" lon="-0.09262">
        <ele>4.1</ele>
        <time>2023-11-19T08:21:57Z</time>
      </trkpt>
      <trkpt lat="49.2357" lon="-0.09254">
        <ele>4.1</ele>
        <time>2023-11-19T08:21:58Z</time>
      </trkpt>
      <trkpt lat="49.23564" lon="-0.09247">
        <ele>4.2</ele>
        <time>2023-11-19T08:21:59Z</time>
      </trkpt>
      <trkpt lat="49.23558" lon="-0.0924">
        <ele>4.2</ele>
        <time>2023-11-19T08:22:00Z</time>
      </trkpt>
      <trkpt lat="49.23553" lon="-0.09233">
        <ele>4.2</ele>
        <time>2023-11-19T08:22:01Z</time>
      </trkpt>
      <trkpt lat="49.23547" lon="-0.09226">
        <ele>4.2</ele>
        <time>2023-11-19T08:22:02Z</time>
      </trkpt>
      <trkpt lat="49.23541" lon="-0.09219">
        <ele>4.2</ele>
        <time>2023-11-19T08:22:03Z</time>
      </trkpt>
      <trkpt lat="49.23536" lon="-0.09212">
        <ele>4.2</ele>
        <time>2023-11-19T08:22:04Z</time>
      </trkpt>
      <trkpt lat="49.2353" lon="-0.09205">
        <ele>4.2</ele>
        <time>2023-11-19T08:22:05Z</time>
      </trkpt>
      <trkpt lat="49.23524" lon="-0.09198">
        <ele>4.2</ele>
        <time>2023-11-19T08:22:06Z</time>
      </trkpt>
      <trkpt lat="49.23518" lon="-0.09191">
        <ele>4.2</ele>
        <time>2023-11-19T08:22:07Z</time>
      </trkpt>
      <trkpt lat="49.23512" lon="-0.09184">
        <ele>4.2</ele>
        <time>2023-11-19T08:22:08Z</time>
      </trkpt>
      <trkpt lat="49.23506" lon="-0.09177">
        <ele>4.2</ele>
        <time>2023-11-19T08:22:09Z</time>
      </trkpt>
      <trkpt lat="49.235" lon="-0.0917">
        <ele>4.2</ele>
        <time>2023-11-19T08:22:10Z</time>
      </trkpt>
      <trkpt lat="49.23494" lon="-0.09163">
        <ele>4.2</ele>
        <time>2023-11-19T08:22:11Z</time>
      </trkpt>
      <trkpt lat="49.23488" lon="-0.09156">
        <ele>4.2</ele>
        <time>2023-11-19T08:22:12Z</time>
      </trkpt>
      <trkpt lat="49.23483" lon="-0.09149">
        <ele>4.3</ele>
        <time>2023-11-19T08:22:13Z</time>
      </trkpt>
      <trkpt lat="49.23477" lon="-0.09142">
        <ele>4.3</ele>
        <time>2023-11-19T08:22:14Z</time>
      </trkpt>
      <trkpt lat="49.23472" lon="-0.09135">
        <ele>4.3</ele>
        <time>2023-11-19T08:22:15Z</time>
      </trkpt>
      <trkpt lat="49.23466" lon="-0.09128">
        <ele>4.3</ele>
        <time>2023-11-19T08:22:16Z</time>
      </trkpt>
      <trkpt lat="49.23461" lon="-0.09122">
        <ele>4.3</ele>
        <time>2023-11-19T08:22:17Z</time>
      </trkpt>
      <trkpt lat="49.23455" lon="-0.09115">
        <ele>4.3</ele>
        <time>2023-11-19T08:22:18Z</time>
      </trkpt>
      <trkpt lat="49.23449" lon="-0.09108">
        <ele>4.3</ele>
        <time>2023-11-19T08:22:19Z</time>
      </trkpt>
      <trkpt lat="49.23444" lon="-0.09102">
        <ele>4.3</ele>
        <time>2023-11-19T08:22:20Z</time>
      </trkpt>
      <trkpt lat="49.23438" lon="-0.09095">
        <ele>4.3</ele>
        <time>2023-11-19T08:22:21Z</time>
      </trkpt>
      <trkpt lat="49.23433" lon="-0.09089">
        <ele>4.2</ele>
        <time>2023-11-19T08:22:22Z</time>
      </trkpt>
      <trkpt lat="49.23427" lon="-0.09082">
        <ele>4.2</ele>
        <time>2023-11-19T08:22:23Z</time>
      </trkpt>
      <trkpt lat="49.23421" lon="-0.09075">
        <ele>4.2</ele>
        <time>2023-11-19T08:22:24Z</time>
      </trkpt>
      <trkpt lat="49.23415" lon="-0.09067">
        <ele>4.2</ele>
        <time>2023-11-19T08:22:25Z</time>
      </trkpt>
      <trkpt lat="49.23409" lon="-0.0906">
        <ele>4.2</ele>
        <time>2023-11-19T08:22:26Z</time>
      </trkpt>
      <trkpt lat="49.23403" lon="-0.09053">
        <ele>4.2</ele>
        <time>2023-11-19T08:22:27Z</time>
      </trkpt>
      <trkpt lat="49.23397" lon="-0.09047">
        <ele>4.2</ele>
        <time>2023-11-19T08:22:28Z</time>
      </trkpt>
      <trkpt lat="49.23391" lon="-0.0904">
        <ele>4.2</ele>
        <time>2023-11-19T08:22:29Z</time>
      </trkpt>
      <trkpt lat="49.23386" lon="-0.09032">
        <ele>4.1</ele>
        <time>2023-11-19T08:22:30Z</time>
      </trkpt>
      <trkpt lat="49.2338" lon="-0.09025">
        <ele>4.1</ele>
        <time>2023-11-19T08:22:31Z</time>
      </trkpt>
      <trkpt lat="49.23374" lon="-0.09018">
        <ele>4.1</ele>
        <time>2023-11-19T08:22:32Z</time>
      </trkpt>
      <trkpt lat="49.23368" lon="-0.09011">
        <ele>4.1</ele>
        <time>2023-11-19T08:22:33Z</time>
      </trkpt>
      <trkpt lat="49.23362" lon="-0.09004">
        <ele>4.1</ele>
        <time>2023-11-19T08:22:34Z</time>
      </trkpt>
      <trkpt lat="49.23356" lon="-0.08997">
        <ele>4.1</ele>
        <time>2023-11-19T08:22:35Z</time>
      </trkpt>
      <trkpt lat="49.2335" lon="-0.0899">
        <ele>4.1</ele>
        <time>2023-11-19T08:22:36Z</time>
      </trkpt>
      <trkpt lat="49.23344" lon="-0.08983">
        <ele>4.1</ele>
        <time>2023-11-19T08:22:37Z</time>
      </trkpt>
      <trkpt lat="49.23338" lon="-0.08976">
        <ele>4.1</ele>
        <time>2023-11-19T08:22:38Z</time>
      </trkpt>
      <trkpt lat="49.23333" lon="-0.08969">
        <ele>4.1</ele>
        <time>2023-11-19T08:22:39Z</time>
      </trkpt>
      <trkpt lat="49.23327" lon="-0.08962">
        <ele>4.1</ele>
        <time>2023-11-19T08:22:40Z</time>
      </trkpt>
      <trkpt lat="49.23322" lon="-0.08954">
        <ele>4.1</ele>
        <time>2023-11-19T08:22:41Z</time>
      </trkpt>
      <trkpt lat="49.23316" lon="-0.08947">
        <ele>4.1</ele>
        <time>2023-11-19T08:22:42Z</time>
      </trkpt>
      <trkpt lat="49.2331" lon="-0.08941">
        <ele>4.1</ele>
        <time>2023-11-19T08:22:43Z</time>
      </trkpt>
      <trkpt lat="49.23304" lon="-0.08934">
        <ele>4.2</ele>
        <time>2023-11-19T08:22:44Z</time>
      </trkpt>
      <trkpt lat="49.23298" lon="-0.08927">
        <ele>4.2</ele>
        <time>2023-11-19T08:22:45Z</time>
      </trkpt>
      <trkpt lat="49.23292" lon="-0.0892">
        <ele>4.2</ele>
        <time>2023-11-19T08:22:46Z</time>
      </trkpt>
      <trkpt lat="49.23286" lon="-0.08913">
        <ele>4.2</ele>
        <time>2023-11-19T08:22:47Z</time>
      </trkpt>
      <trkpt lat="49.2328" lon="-0.08907">
        <ele>4.2</ele>
        <time>2023-11-19T08:22:48Z</time>
      </trkpt>
      <trkpt lat="49.23274" lon="-0.089">
        <ele>4.3</ele>
        <time>2023-11-19T08:22:49Z</time>
      </trkpt>
      <trkpt lat="49.23268" lon="-0.08894">
        <ele>4.3</ele>
        <time>2023-11-19T08:22:50Z</time>
      </trkpt>
      <trkpt lat="49.23263" lon="-0.08888">
        <ele>4.4</ele>
        <time>2023-11-19T08:22:51Z</time>
      </trkpt>
      <trkpt lat="49.23257" lon="-0.08881">
        <ele>4.4</ele>
        <time>2023-11-19T08:22:52Z</time>
      </trkpt>
      <trkpt lat="49.23251" lon="-0.08875">
        <ele>4.5</ele>
        <time>2023-11-19T08:22:53Z</time>
      </trkpt>
      <trkpt lat="49.23245" lon="-0.08868">
        <ele>4.5</ele>
        <time>2023-11-19T08:22:54Z</time>
      </trkpt>
      <trkpt lat="49.23239" lon="-0.08861">
        <ele>4.5</ele>
        <time>2023-11-19T08:22:55Z</time>
      </trkpt>
      <trkpt lat="49.23233" lon="-0.08855">
        <ele>4.6</ele>
        <time>2023-11-19T08:22:56Z</time>
      </trkpt>
      <trkpt lat="49.23227" lon="-0.08848">
        <ele>4.6</ele>
        <time>2023-11-19T08:22:57Z</time>
      </trkpt>
      <trkpt lat="49.23221" lon="-0.08842">
        <ele>4.6</ele>
        <time>2023-11-19T08:22:58Z</time>
      </trkpt>
      <trkpt lat="49.23215" lon="-0.08836">
        <ele>4.6</ele>
        <time>2023-11-19T08:22:59Z</time>
      </trkpt>
      <trkpt lat="49.23209" lon="-0.0883">
        <ele>4.6</ele>
        <time>2023-11-19T08:23:00Z</time>
      </trkpt>
      <trkpt lat="49.23203" lon="-0.08823">
        <ele>4.7</ele>
        <time>2023-11-19T08:23:01Z</time>
      </trkpt>
      <trkpt lat="49.23196" lon="-0.08817">
        <ele>4.7</ele>
        <time>2023-11-19T08:23:02Z</time>
      </trkpt>
      <trkpt lat="49.2319" lon="-0.0881">
        <ele>4.7</ele>
        <time>2023-11-19T08:23:03Z</time>
      </trkpt>
      <trkpt lat="49.23183" lon="-0.08803">
        <ele>4.7</ele>
        <time>2023-11-19T08:23:04Z</time>
      </trkpt>
      <trkpt lat="49.23177" lon="-0.08796">
        <ele>4.7</ele>
        <time>2023-11-19T08:23:05Z</time>
      </trkpt>
      <trkpt lat="49.23171" lon="-0.0879">
        <ele>4.8</ele>
        <time>2023-11-19T08:23:06Z</time>
      </trkpt>
      <trkpt lat="49.23165" lon="-0.08783">
        <ele>4.8</ele>
        <time>2023-11-19T08:23:07Z</time>
      </trkpt>
      <trkpt lat="49.23159" lon="-0.08776">
        <ele>4.8</ele>
        <time>2023-11-19T08:23:08Z</time>
      </trkpt>
      <trkpt lat="49.23152" lon="-0.08769">
        <ele>4.8</ele>
        <time>2023-11-19T08:23:09Z</time>
      </trkpt>
      <trkpt lat="49.23146" lon="-0.08763">
        <ele>4.8</ele>
        <time>2023-11-19T08:23:10Z</time>
      </trkpt>
      <trkpt lat="49.2314" lon="-0.08756">
        <ele>4.9</ele>
        <time>2023-11-19T08:23:11Z</time>
      </trkpt>
      <trkpt lat="49.23134" lon="-0.08749">
        <ele>4.8</ele>
        <time>2023-11-19T08:23:12Z</time>
      </trkpt>
      <trkpt lat="49.23129" lon="-0.08742">
        <ele>4.8</ele>
        <time>2023-11-19T08:23:13Z</time>
      </trkpt>
      <trkpt lat="49.23123" lon="-0.08735">
        <ele>4.9</ele>
        <time>2023-11-19T08:23:14Z</time>
      </trkpt>
      <trkpt lat="49.23117" lon="-0.08728">
        <ele>4.9</ele>
        <time>2023-11-19T08:23:15Z</time>
      </trkpt>
      <trkpt lat="49.23111" lon="-0.08722">
        <ele>4.9</ele>
        <time>2023-11-19T08:23:16Z</time>
      </trkpt>
      <trkpt lat="49.23105" lon="-0.08715">
        <ele>4.9</ele>
        <time>2023-11-19T08:23:17Z</time>
      </trkpt>
      <trkpt lat="49.23099" lon="-0.08709">
        <ele>5</ele>
        <time>2023-11-19T08:23:18Z</time>
      </trkpt>
      <trkpt lat="49.23093" lon="-0.08702">
        <ele>5</ele>
        <time>2023-11-19T08:23:19Z</time>
      </trkpt>
      <trkpt lat="49.23087" lon="-0.08695">
        <ele>5</ele>
        <time>2023-11-19T08:23:20Z</time>
      </trkpt>
      <trkpt lat="49.23081" lon="-0.08688">
        <ele>5.1</ele>
        <time>2023-11-19T08:23:21Z</time>
      </trkpt>
      <trkpt lat="49.23075" lon="-0.08681">
        <ele>5.1</ele>
        <time>2023-11-19T08:23:22Z</time>
      </trkpt>
      <trkpt lat="49.23069" lon="-0.08674">
        <ele>5.2</ele>
        <time>2023-11-19T08:23:23Z</time>
      </trkpt>
      <trkpt lat="49.23064" lon="-0.08666">
        <ele>5.2</ele>
        <time>2023-11-19T08:23:24Z</time>
      </trkpt>
      <trkpt lat="49.23058" lon="-0.0866">
        <ele>5.3</ele>
        <time>2023-11-19T08:23:25Z</time>
      </trkpt>
      <trkpt lat="49.23052" lon="-0.08653">
        <ele>5.3</ele>
        <time>2023-11-19T08:23:26Z</time>
      </trkpt>
      <trkpt lat="49.23046" lon="-0.08646">
        <ele>5.3</ele>
        <time>2023-11-19T08:23:27Z</time>
      </trkpt>
      <trkpt lat="49.2304" lon="-0.08639">
        <ele>5.5</ele>
        <time>2023-11-19T08:23:28Z</time>
      </trkpt>
      <trkpt lat="49.23034" lon="-0.08631">
        <ele>5.7</ele>
        <time>2023-11-19T08:23:29Z</time>
      </trkpt>
      <trkpt lat="49.23029" lon="-0.08625">
        <ele>5.8</ele>
        <time>2023-11-19T08:23:30Z</time>
      </trkpt>
      <trkpt lat="49.23023" lon="-0.08618">
        <ele>6</ele>
        <time>2023-11-19T08:23:31Z</time>
      </trkpt>
      <trkpt lat="49.23017" lon="-0.08611">
        <ele>6.2</ele>
        <time>2023-11-19T08:23:32Z</time>
      </trkpt>
      <trkpt lat="49.23012" lon="-0.08605">
        <ele>6.4</ele>
        <time>2023-11-19T08:23:33Z</time>
      </trkpt>
      <trkpt lat="49.23006" lon="-0.086">
        <ele>6.5</ele>
        <time>2023-11-19T08:23:34Z</time>
      </trkpt>
      <trkpt lat="49.23001" lon="-0.08594">
        <ele>6.7</ele>
        <time>2023-11-19T08:23:35Z</time>
      </trkpt>
      <trkpt lat="49.22995" lon="-0.08588">
        <ele>6.9</ele>
        <time>2023-11-19T08:23:36Z</time>
      </trkpt>
      <trkpt lat="49.2299" lon="-0.08581">
        <ele>7.1</ele>
        <time>2023-11-19T08:23:37Z</time>
      </trkpt>
      <trkpt lat="49.22984" lon="-0.08576">
        <ele>7.3</ele>
        <time>2023-11-19T08:23:38Z</time>
      </trkpt>
      <trkpt lat="49.22979" lon="-0.08569">
        <ele>7.5</ele>
        <time>2023-11-19T08:23:39Z</time>
      </trkpt>
      <trkpt lat="49.22973" lon="-0.08563">
        <ele>7.7</ele>
        <time>2023-11-19T08:23:40Z</time>
      </trkpt>
      <trkpt lat="49.22968" lon="-0.08557">
        <ele>7.9</ele>
        <time>2023-11-19T08:23:41Z</time>
      </trkpt>
      <trkpt lat="49.22963" lon="-0.08551">
        <ele>8</ele>
        <time>2023-11-19T08:23:42Z</time>
      </trkpt>
      <trkpt lat="49.22957" lon="-0.08545">
        <ele>8.2</ele>
        <time>2023-11-19T08:23:43Z</time>
      </trkpt>
      <trkpt lat="49.22952" lon="-0.08539">
        <ele>8.4</ele>
        <time>2023-11-19T08:23:44Z</time>
      </trkpt>
      <trkpt lat="49.22946" lon="-0.08533">
        <ele>8.6</ele>
        <time>2023-11-19T08:23:45Z</time>
      </trkpt>
      <trkpt lat="49.22941" lon="-0.08527">
        <ele>8.8</ele>
        <time>2023-11-19T08:23:46Z</time>
      </trkpt>
      <trkpt lat="49.22935" lon="-0.08521">
        <ele>9</ele>
        <time>2023-11-19T08:23:47Z</time>
      </trkpt>
      <trkpt lat="49.2293" lon="-0.08515">
        <ele>9.1</ele>
        <time>2023-11-19T08:23:48Z</time>
      </trkpt>
      <trkpt lat="49.22924" lon="-0.08509">
        <ele>9.3</ele>
        <time>2023-11-19T08:23:49Z</time>
      </trkpt>
      <trkpt lat="49.22919" lon="-0.08503">
        <ele>9.5</ele>
        <time>2023-11-19T08:23:50Z</time>
      </trkpt>
      <trkpt lat="49.22914" lon="-0.08498">
        <ele>9.6</ele>
        <time>2023-11-19T08:23:51Z</time>
      </trkpt>
      <trkpt lat="49.22908" lon="-0.08491">
        <ele>9.8</ele>
        <time>2023-11-19T08:23:52Z</time>
      </trkpt>
      <trkpt lat="49.22903" lon="-0.08485">
        <ele>9.9</ele>
        <time>2023-11-19T08:23:53Z</time>
      </trkpt>
      <trkpt lat="49.22898" lon="-0.08479">
        <ele>10.1</ele>
        <time>2023-11-19T08:23:54Z</time>
      </trkpt>
      <trkpt lat="49.22892" lon="-0.08473">
        <ele>10.2</ele>
        <time>2023-11-19T08:23:55Z</time>
      </trkpt>
      <trkpt lat="49.22886" lon="-0.08467">
        <ele>10.4</ele>
        <time>2023-11-19T08:23:56Z</time>
      </trkpt>
      <trkpt lat="49.22881" lon="-0.08461">
        <ele>10.6</ele>
        <time>2023-11-19T08:23:57Z</time>
      </trkpt>
      <trkpt lat="49.22875" lon="-0.08454">
        <ele>10.7</ele>
        <time>2023-11-19T08:23:58Z</time>
      </trkpt>
      <trkpt lat="49.22869" lon="-0.08448">
        <ele>10.9</ele>
        <time>2023-11-19T08:23:59Z</time>
      </trkpt>
      <trkpt lat="49.22864" lon="-0.08441">
        <ele>11</ele>
        <time>2023-11-19T08:24:00Z</time>
      </trkpt>
      <trkpt lat="49.22858" lon="-0.08435">
        <ele>11.1</ele>
        <time>2023-11-19T08:24:01Z</time>
      </trkpt>
      <trkpt lat="49.22853" lon="-0.0843">
        <ele>11.3</ele>
        <time>2023-11-19T08:24:02Z</time>
      </trkpt>
      <trkpt lat="49.22848" lon="-0.08424">
        <ele>11.4</ele>
        <time>2023-11-19T08:24:03Z</time>
      </trkpt>
      <trkpt lat="49.22842" lon="-0.08418">
        <ele>11.5</ele>
        <time>2023-11-19T08:24:04Z</time>
      </trkpt>
      <trkpt lat="49.22837" lon="-0.08411">
        <ele>11.6</ele>
        <time>2023-11-19T08:24:05Z</time>
      </trkpt>
      <trkpt lat="49.22831" lon="-0.08405">
        <ele>11.7</ele>
        <time>2023-11-19T08:24:06Z</time>
      </trkpt>
      <trkpt lat="49.22826" lon="-0.08399">
        <ele>11.8</ele>
        <time>2023-11-19T08:24:07Z</time>
      </trkpt>
      <trkpt lat="49.22821" lon="-0.08393">
        <ele>11.9</ele>
        <time>2023-11-19T08:24:08Z</time>
      </trkpt>
      <trkpt lat="49.22816" lon="-0.08387">
        <ele>12.1</ele>
        <time>2023-11-19T08:24:09Z</time>
      </trkpt>
      <trkpt lat="49.22811" lon="-0.08382">
        <ele>12.1</ele>
        <time>2023-11-19T08:24:10Z</time>
      </trkpt>
      <trkpt lat="49.22806" lon="-0.08377">
        <ele>12.2</ele>
        <time>2023-11-19T08:24:11Z</time>
      </trkpt>
      <trkpt lat="49.22801" lon="-0.08371">
        <ele>12.2</ele>
        <time>2023-11-19T08:24:12Z</time>
      </trkpt>
      <trkpt lat="49.22795" lon="-0.08365">
        <ele>12.3</ele>
        <time>2023-11-19T08:24:13Z</time>
      </trkpt>
      <trkpt lat="49.2279" lon="-0.0836">
        <ele>12.3</ele>
        <time>2023-11-19T08:24:14Z</time>
      </trkpt>
      <trkpt lat="49.22784" lon="-0.08353">
        <ele>12.3</ele>
        <time>2023-11-19T08:24:15Z</time>
      </trkpt>
      <trkpt lat="49.22779" lon="-0.08347">
        <ele>12.4</ele>
        <time>2023-11-19T08:24:16Z</time>
      </trkpt>
      <trkpt lat="49.22773" lon="-0.08341">
        <ele>12.4</ele>
        <time>2023-11-19T08:24:17Z</time>
      </trkpt>
      <trkpt lat="49.22767" lon="-0.08335">
        <ele>12.4</ele>
        <time>2023-11-19T08:24:18Z</time>
      </trkpt>
      <trkpt lat="49.22762" lon="-0.08328">
        <ele>12.4</ele>
        <time>2023-11-19T08:24:19Z</time>
      </trkpt>
      <trkpt lat="49.22756" lon="-0.08322">
        <ele>12.4</ele>
        <time>2023-11-19T08:24:20Z</time>
      </trkpt>
      <trkpt lat="49.2275" lon="-0.08315">
        <ele>12.3</ele>
        <time>2023-11-19T08:24:21Z</time>
      </trkpt>
      <trkpt lat="49.22744" lon="-0.08308">
        <ele>12.3</ele>
        <time>2023-11-19T08:24:22Z</time>
      </trkpt>
      <trkpt lat="49.22738" lon="-0.08301">
        <ele>12.3</ele>
        <time>2023-11-19T08:24:23Z</time>
      </trkpt>
      <trkpt lat="49.22732" lon="-0.08294">
        <ele>12.2</ele>
        <time>2023-11-19T08:24:24Z</time>
      </trkpt>
      <trkpt lat="49.22726" lon="-0.08286">
        <ele>12.2</ele>
        <time>2023-11-19T08:24:25Z</time>
      </trkpt>
      <trkpt lat="49.2272" lon="-0.08278">
        <ele>12.1</ele>
        <time>2023-11-19T08:24:26Z</time>
      </trkpt>
      <trkpt lat="49.22714" lon="-0.0827">
        <ele>12.1</ele>
        <time>2023-11-19T08:24:27Z</time>
      </trkpt>
      <trkpt lat="49.22708" lon="-0.08262">
        <ele>12</ele>
        <time>2023-11-19T08:24:28Z</time>
      </trkpt>
      <trkpt lat="49.22703" lon="-0.08255">
        <ele>12</ele>
        <time>2023-11-19T08:24:29Z</time>
      </trkpt>
      <trkpt lat="49.22697" lon="-0.08247">
        <ele>11.9</ele>
        <time>2023-11-19T08:24:30Z</time>
      </trkpt>
      <trkpt lat="49.22691" lon="-0.08239">
        <ele>11.9</ele>
        <time>2023-11-19T08:24:31Z</time>
      </trkpt>
      <trkpt lat="49.22685" lon="-0.08231">
        <ele>11.9</ele>
        <time>2023-11-19T08:24:32Z</time>
      </trkpt>
      <trkpt lat="49.22679" lon="-0.08223">
        <ele>11.9</ele>
        <time>2023-11-19T08:24:33Z</time>
      </trkpt>
      <trkpt lat="49.22673" lon="-0.08215">
        <ele>11.9</ele>
        <time>2023-11-19T08:24:34Z</time>
      </trkpt>
      <trkpt lat="49.22668" lon="-0.08207">
        <ele>12</ele>
        <time>2023-11-19T08:24:35Z</time>
      </trkpt>
      <trkpt lat="49.22662" lon="-0.08198">
        <ele>12</ele>
        <time>2023-11-19T08:24:36Z</time>
      </trkpt>
      <trkpt lat="49.22656" lon="-0.0819">
        <ele>12</ele>
        <time>2023-11-19T08:24:37Z</time>
      </trkpt>
      <trkpt lat="49.2265" lon="-0.08182">
        <ele>12</ele>
        <time>2023-11-19T08:24:38Z</time>
      </trkpt>
      <trkpt lat="49.22644" lon="-0.08174">
        <ele>12</ele>
        <time>2023-11-19T08:24:39Z</time>
      </trkpt>
      <trkpt lat="49.22639" lon="-0.08166">
        <ele>12</ele>
        <time>2023-11-19T08:24:40Z</time>
      </trkpt>
      <trkpt lat="49.22633" lon="-0.08157">
        <ele>12</ele>
        <time>2023-11-19T08:24:41Z</time>
      </trkpt>
      <trkpt lat="49.22627" lon="-0.08149">
        <ele>12</ele>
        <time>2023-11-19T08:24:42Z</time>
      </trkpt>
      <trkpt lat="49.2262" lon="-0.08141">
        <ele>12</ele>
        <time>2023-11-19T08:24:43Z</time>
      </trkpt>
      <trkpt lat="49.22614" lon="-0.08133">
        <ele>12.1</ele>
        <time>2023-11-19T08:24:44Z</time>
      </trkpt>
      <trkpt lat="49.22609" lon="-0.08126">
        <ele>12.1</ele>
        <time>2023-11-19T08:24:45Z</time>
      </trkpt>
      <trkpt lat="49.22603" lon="-0.08119">
        <ele>12.1</ele>
        <time>2023-11-19T08:24:46Z</time>
      </trkpt>
      <trkpt lat="49.22598" lon="-0.08112">
        <ele>12.2</ele>
        <time>2023-11-19T08:24:47Z</time>
      </trkpt>
      <trkpt lat="49.22592" lon="-0.08106">
        <ele>12.2</ele>
        <time>2023-11-19T08:24:48Z</time>
      </trkpt>
      <trkpt lat="49.22586" lon="-0.08099">
        <ele>12.2</ele>
        <time>2023-11-19T08:24:49Z</time>
      </trkpt>
      <trkpt lat="49.2258" lon="-0.08092">
        <ele>12.2</ele>
        <time>2023-11-19T08:24:50Z</time>
      </trkpt>
      <trkpt lat="49.22574" lon="-0.08085">
        <ele>12.3</ele>
        <time>2023-11-19T08:24:51Z</time>
      </trkpt>
      <trkpt lat="49.22568" lon="-0.08078">
        <ele>12.3</ele>
        <time>2023-11-19T08:24:52Z</time>
      </trkpt>
      <trkpt lat="49.22562" lon="-0.08072">
        <ele>12.3</ele>
        <time>2023-11-19T08:24:53Z</time>
      </trkpt>
      <trkpt lat="49.22556" lon="-0.08065">
        <ele>12.3</ele>
        <time>2023-11-19T08:24:54Z</time>
      </trkpt>
      <trkpt lat="49.2255" lon="-0.08059">
        <ele>12.3</ele>
        <time>2023-11-19T08:24:55Z</time>
      </trkpt>
      <trkpt lat="49.22543" lon="-0.08052">
        <ele>12.3</ele>
        <time>2023-11-19T08:24:56Z</time>
      </trkpt>
      <trkpt lat="49.22537" lon="-0.08044">
        <ele>12.4</ele>
        <time>2023-11-19T08:24:57Z</time>
      </trkpt>
      <trkpt lat="49.2253" lon="-0.08037">
        <ele>12.4</ele>
        <time>2023-11-19T08:24:58Z</time>
      </trkpt>
      <trkpt lat="49.22524" lon="-0.0803">
        <ele>12.4</ele>
        <time>2023-11-19T08:24:59Z</time>
      </trkpt>
      <trkpt lat="49.22518" lon="-0.08024">
        <ele>12.4</ele>
        <time>2023-11-19T08:25:00Z</time>
      </trkpt>
      <trkpt lat="49.22512" lon="-0.08017">
        <ele>12.4</ele>
        <time>2023-11-19T08:25:01Z</time>
      </trkpt>
      <trkpt lat="49.22506" lon="-0.08011">
        <ele>12.4</ele>
        <time>2023-11-19T08:25:02Z</time>
      </trkpt>
      <trkpt lat="49.22499" lon="-0.08005">
        <ele>12.4</ele>
        <time>2023-11-19T08:25:03Z</time>
      </trkpt>
      <trkpt lat="49.22493" lon="-0.07998">
        <ele>12.4</ele>
        <time>2023-11-19T08:25:04Z</time>
      </trkpt>
      <trkpt lat="49.22486" lon="-0.07992">
        <ele>12.4</ele>
        <time>2023-11-19T08:25:05Z</time>
      </trkpt>
      <trkpt lat="49.22479" lon="-0.07986">
        <ele>12.5</ele>
        <time>2023-11-19T08:25:06Z</time>
      </trkpt>
      <trkpt lat="49.22472" lon="-0.0798">
        <ele>12.5</ele>
        <time>2023-11-19T08:25:07Z</time>
      </trkpt>
      <trkpt lat="49.22465" lon="-0.07973">
        <ele>12.5</ele>
        <time>2023-11-19T08:25:08Z</time>
      </trkpt>
      <trkpt lat="49.22459" lon="-0.07967">
        <ele>12.6</ele>
        <time>2023-11-19T08:25:09Z</time>
      </trkpt>
      <trkpt lat="49.22452" lon="-0.07961">
        <ele>12.6</ele>
        <time>2023-11-19T08:25:10Z</time>
      </trkpt>
      <trkpt lat="49.22445" lon="-0.07955">
        <ele>12.6</ele>
        <time>2023-11-19T08:25:11Z</time>
      </trkpt>
      <trkpt lat="49.22439" lon="-0.07949">
        <ele>12.6</ele>
        <time>2023-11-19T08:25:12Z</time>
      </trkpt>
      <trkpt lat="49.22432" lon="-0.07943">
        <ele>12.7</ele>
        <time>2023-11-19T08:25:13Z</time>
      </trkpt>
      <trkpt lat="49.22425" lon="-0.07937">
        <ele>12.7</ele>
        <time>2023-11-19T08:25:14Z</time>
      </trkpt>
      <trkpt lat="49.22418" lon="-0.07932">
        <ele>12.7</ele>
        <time>2023-11-19T08:25:15Z</time>
      </trkpt>
      <trkpt lat="49.22411" lon="-0.07926">
        <ele>12.7</ele>
        <time>2023-11-19T08:25:16Z</time>
      </trkpt>
      <trkpt lat="49.22404" lon="-0.07921">
        <ele>12.7</ele>
        <time>2023-11-19T08:25:17Z</time>
      </trkpt>
      <trkpt lat="49.22396" lon="-0.07916">
        <ele>12.7</ele>
        <time>2023-11-19T08:25:18Z</time>
      </trkpt>
      <trkpt lat="49.22389" lon="-0.07911">
        <ele>12.7</ele>
        <time>2023-11-19T08:25:19Z</time>
      </trkpt>
      <trkpt lat="49.22382" lon="-0.07906">
        <ele>12.7</ele>
        <time>2023-11-19T08:25:20Z</time>
      </trkpt>
      <trkpt lat="49.22375" lon="-0.07901">
        <ele>12.7</ele>
        <time>2023-11-19T08:25:21Z</time>
      </trkpt>
      <trkpt lat="49.22368" lon="-0.07896">
        <ele>12.8</ele>
        <time>2023-11-19T08:25:22Z</time>
      </trkpt>
      <trkpt lat="49.22361" lon="-0.07891">
        <ele>12.8</ele>
        <time>2023-11-19T08:25:23Z</time>
      </trkpt>
      <trkpt lat="49.22355" lon="-0.07887">
        <ele>12.8</ele>
        <time>2023-11-19T08:25:24Z</time>
      </trkpt>
      <trkpt lat="49.22348" lon="-0.07883">
        <ele>12.8</ele>
        <time>2023-11-19T08:25:25Z</time>
      </trkpt>
      <trkpt lat="49.22341" lon="-0.07879">
        <ele>12.9</ele>
        <time>2023-11-19T08:25:26Z</time>
      </trkpt>
      <trkpt lat="49.22334" lon="-0.07875">
        <ele>12.9</ele>
        <time>2023-11-19T08:25:27Z</time>
      </trkpt>
      <trkpt lat="49.22327" lon="-0.07871">
        <ele>12.9</ele>
        <time>2023-11-19T08:25:28Z</time>
      </trkpt>
      <trkpt lat="49.22319" lon="-0.07867">
        <ele>13</ele>
        <time>2023-11-19T08:25:29Z</time>
      </trkpt>
      <trkpt lat="49.22312" lon="-0.07863">
        <ele>13</ele>
        <time>2023-11-19T08:25:30Z</time>
      </trkpt>
      <trkpt lat="49.22305" lon="-0.07859">
        <ele>13.1</ele>
        <time>2023-11-19T08:25:31Z</time>
      </trkpt>
      <trkpt lat="49.22299" lon="-0.07856">
        <ele>13.2</ele>
        <time>2023-11-19T08:25:32Z</time>
      </trkpt>
      <trkpt lat="49.22292" lon="-0.07852">
        <ele>13.3</ele>
        <time>2023-11-19T08:25:33Z</time>
      </trkpt>
      <trkpt lat="49.22285" lon="-0.07849">
        <ele>13.4</ele>
        <time>2023-11-19T08:25:34Z</time>
      </trkpt>
      <trkpt lat="49.22279" lon="-0.07846">
        <ele>13.5</ele>
        <time>2023-11-19T08:25:35Z</time>
      </trkpt>
      <trkpt lat="49.22274" lon="-0.07844">
        <ele>13.6</ele>
        <time>2023-11-19T08:25:36Z</time>
      </trkpt>
      <trkpt lat="49.2227" lon="-0.07842">
        <ele>13.6</ele>
        <time>2023-11-19T08:25:37Z</time>
      </trkpt>
      <trkpt lat="49.22266" lon="-0.07841">
        <ele>13.6</ele>
        <time>2023-11-19T08:25:38Z</time>
      </trkpt>
      <trkpt lat="49.22263" lon="-0.07841">
        <ele>13.6</ele>
        <time>2023-11-19T08:25:39Z</time>
      </trkpt>
      <trkpt lat="49.22258" lon="-0.07841">
        <ele>13.6</ele>
        <time>2023-11-19T08:25:40Z</time>
      </trkpt>
      <trkpt lat="49.22253" lon="-0.07842">
        <ele>13.6</ele>
        <time>2023-11-19T08:25:41Z</time>
      </trkpt>
      <trkpt lat="49.22248" lon="-0.07843">
        <ele>13.6</ele>
        <time>2023-11-19T08:25:42Z</time>
      </trkpt>
      <trkpt lat="49.22242" lon="-0.07843">
        <ele>13.6</ele>
        <time>2023-11-19T08:25:43Z</time>
      </trkpt>
      <trkpt lat="49.22238" lon="-0.0784">
        <ele>13.5</ele>
        <time>2023-11-19T08:25:44Z</time>
      </trkpt>
      <trkpt lat="49.22234" lon="-0.07833">
        <ele>13.4</ele>
        <time>2023-11-19T08:25:45Z</time>
      </trkpt>
      <trkpt lat="49.22233" lon="-0.07824">
        <ele>13.3</ele>
        <time>2023-11-19T08:25:46Z</time>
      </trkpt>
      <trkpt lat="49.22233" lon="-0.07815">
        <ele>13.3</ele>
        <time>2023-11-19T08:25:47Z</time>
      </trkpt>
      <trkpt lat="49.22235" lon="-0.07806">
        <ele>13.3</ele>
        <time>2023-11-19T08:25:48Z</time>
      </trkpt>
      <trkpt lat="49.22239" lon="-0.07798">
        <ele>13.3</ele>
        <time>2023-11-19T08:25:49Z</time>
      </trkpt>
      <trkpt lat="49.22242" lon="-0.07791">
        <ele>13.3</ele>
        <time>2023-11-19T08:25:50Z</time>
      </trkpt>
      <trkpt lat="49.22245" lon="-0.07783">
        <ele>13.4</ele>
        <time>2023-11-19T08:25:51Z</time>
      </trkpt>
      <trkpt lat="49.22248" lon="-0.07774">
        <ele>13.4</ele>
        <time>2023-11-19T08:25:52Z</time>
      </trkpt>
      <trkpt lat="49.2225" lon="-0.07765">
        <ele>13.4</ele>
        <time>2023-11-19T08:25:53Z</time>
      </trkpt>
      <trkpt lat="49.22252" lon="-0.07757">
        <ele>13.4</ele>
        <time>2023-11-19T08:25:54Z</time>
      </trkpt>
      <trkpt lat="49.22254" lon="-0.07748">
        <ele>13.4</ele>
        <time>2023-11-19T08:25:55Z</time>
      </trkpt>
      <trkpt lat="49.22255" lon="-0.0774">
        <ele>13.4</ele>
        <time>2023-11-19T08:25:56Z</time>
      </trkpt>
      <trkpt lat="49.22257" lon="-0.07731">
        <ele>13.4</ele>
        <time>2023-11-19T08:25:57Z</time>
      </trkpt>
      <trkpt lat="49.22258" lon="-0.07723">
        <ele>13.4</ele>
        <time>2023-11-19T08:25:58Z</time>
      </trkpt>
      <trkpt lat="49.22257" lon="-0.07714">
        <ele>13.4</ele>
        <time>2023-11-19T08:25:59Z</time>
      </trkpt>
      <trkpt lat="49.22255" lon="-0.07707">
        <ele>13.4</ele>
        <time>2023-11-19T08:26:00Z</time>
      </trkpt>
      <trkpt lat="49.2225" lon="-0.077">
        <ele>13.5</ele>
        <time>2023-11-19T08:26:01Z</time>
      </trkpt>
      <trkpt lat="49.22246" lon="-0.07695">
        <ele>13.5</ele>
        <time>2023-11-19T08:26:02Z</time>
      </trkpt>
      <trkpt lat="49.22242" lon="-0.07689">
        <ele>13.5</ele>
        <time>2023-11-19T08:26:03Z</time>
      </trkpt>
      <trkpt lat="49.22239" lon="-0.07682">
        <ele>13.5</ele>
        <time>2023-11-19T08:26:04Z</time>
      </trkpt>
      <trkpt lat="49.22235" lon="-0.07674">
        <ele>13.6</ele>
        <time>2023-11-19T08:26:05Z</time>
      </trkpt>
      <trkpt lat="49.22232" lon="-0.07666">
        <ele>13.6</ele>
        <time>2023-11-19T08:26:06Z</time>
      </trkpt>
      <trkpt lat="49.22228" lon="-0.07659">
        <ele>13.6</ele>
        <time>2023-11-19T08:26:07Z</time>
      </trkpt>
      <trkpt lat="49.22223" lon="-0.07653">
        <ele>13.6</ele>
        <time>2023-11-19T08:26:08Z</time>
      </trkpt>
      <trkpt lat="49.22218" lon="-0.07649">
        <ele>13.6</ele>
        <time>2023-11-19T08:26:09Z</time>
      </trkpt>
      <trkpt lat="49.22212" lon="-0.07644">
        <ele>13.6</ele>
        <time>2023-11-19T08:26:10Z</time>
      </trkpt>
      <trkpt lat="49.22207" lon="-0.0764">
        <ele>13.7</ele>
        <time>2023-11-19T08:26:11Z</time>
      </trkpt>
      <trkpt lat="49.22202" lon="-0.07634">
        <ele>13.7</ele>
        <time>2023-11-19T08:26:12Z</time>
      </trkpt>
      <trkpt lat="49.22197" lon="-0.07629">
        <ele>13.7</ele>
        <time>2023-11-19T08:26:13Z</time>
      </trkpt>
      <trkpt lat="49.22191" lon="-0.07624">
        <ele>13.7</ele>
        <time>2023-11-19T08:26:14Z</time>
      </trkpt>
      <trkpt lat="49.22186" lon="-0.07619">
        <ele>13.8</ele>
        <time>2023-11-19T08:26:15Z</time>
      </trkpt>
      <trkpt lat="49.22181" lon="-0.07613">
        <ele>13.9</ele>
        <time>2023-11-19T08:26:16Z</time>
      </trkpt>
      <trkpt lat="49.22176" lon="-0.07607">
        <ele>13.9</ele>
        <time>2023-11-19T08:26:17Z</time>
      </trkpt>
      <trkpt lat="49.22173" lon="-0.07599">
        <ele>14</ele>
        <time>2023-11-19T08:26:18Z</time>
      </trkpt>
      <trkpt lat="49.22171" lon="-0.07589">
        <ele>14</ele>
        <time>2023-11-19T08:26:19Z</time>
      </trkpt>
      <trkpt lat="49.2217" lon="-0.0758">
        <ele>14</ele>
        <time>2023-11-19T08:26:20Z</time>
      </trkpt>
      <trkpt lat="49.22169" lon="-0.07571">
        <ele>14.1</ele>
        <time>2023-11-19T08:26:21Z</time>
      </trkpt>
      <trkpt lat="49.22169" lon="-0.07561">
        <ele>14.1</ele>
        <time>2023-11-19T08:26:22Z</time>
      </trkpt>
      <trkpt lat="49.22169" lon="-0.07552">
        <ele>14.2</ele>
        <time>2023-11-19T08:26:23Z</time>
      </trkpt>
      <trkpt lat="49.22168" lon="-0.07543">
        <ele>14.2</ele>
        <time>2023-11-19T08:26:24Z</time>
      </trkpt>
      <trkpt lat="49.22166" lon="-0.07534">
        <ele>14.2</ele>
        <time>2023-11-19T08:26:25Z</time>
      </trkpt>
      <trkpt lat="49.22164" lon="-0.07525">
        <ele>14.2</ele>
        <time>2023-11-19T08:26:26Z</time>
      </trkpt>
      <trkpt lat="49.22161" lon="-0.07516">
        <ele>14.2</ele>
        <time>2023-11-19T08:26:27Z</time>
      </trkpt>
      <trkpt lat="49.22158" lon="-0.07507">
        <ele>14.2</ele>
        <time>2023-11-19T08:26:28Z</time>
      </trkpt>
      <trkpt lat="49.22154" lon="-0.07499">
        <ele>14.3</ele>
        <time>2023-11-19T08:26:29Z</time>
      </trkpt>
      <trkpt lat="49.2215" lon="-0.07492">
        <ele>14.3</ele>
        <time>2023-11-19T08:26:30Z</time>
      </trkpt>
      <trkpt lat="49.22146" lon="-0.07485">
        <ele>14.4</ele>
        <time>2023-11-19T08:26:31Z</time>
      </trkpt>
      <trkpt lat="49.22141" lon="-0.07478">
        <ele>14.5</ele>
        <time>2023-11-19T08:26:32Z</time>
      </trkpt>
      <trkpt lat="49.22137" lon="-0.07472">
        <ele>14.5</ele>
        <time>2023-11-19T08:26:33Z</time>
      </trkpt>
      <trkpt lat="49.22132" lon="-0.07466">
        <ele>14.6</ele>
        <time>2023-11-19T08:26:34Z</time>
      </trkpt>
      <trkpt lat="49.22127" lon="-0.0746">
        <ele>14.7</ele>
        <time>2023-11-19T08:26:35Z</time>
      </trkpt>
      <trkpt lat="49.22122" lon="-0.07454">
        <ele>14.8</ele>
        <time>2023-11-19T08:26:36Z</time>
      </trkpt>
      <trkpt lat="49.22117" lon="-0.07448">
        <ele>14.9</ele>
        <time>2023-11-19T08:26:37Z</time>
      </trkpt>
      <trkpt lat="49.22111" lon="-0.07444">
        <ele>15</ele>
        <time>2023-11-19T08:26:38Z</time>
      </trkpt>
      <trkpt lat="49.22106" lon="-0.07439">
        <ele>15.1</ele>
        <time>2023-11-19T08:26:39Z</time>
      </trkpt>
      <trkpt lat="49.22101" lon="-0.07433">
        <ele>15.2</ele>
        <time>2023-11-19T08:26:40Z</time>
      </trkpt>
      <trkpt lat="49.22097" lon="-0.07429">
        <ele>15.3</ele>
        <time>2023-11-19T08:26:41Z</time>
      </trkpt>
      <trkpt lat="49.22092" lon="-0.07424">
        <ele>15.5</ele>
        <time>2023-11-19T08:26:42Z</time>
      </trkpt>
      <trkpt lat="49.22088" lon="-0.07419">
        <ele>15.6</ele>
        <time>2023-11-19T08:26:43Z</time>
      </trkpt>
      <trkpt lat="49.22084" lon="-0.07414">
        <ele>15.8</ele>
        <time>2023-11-19T08:26:44Z</time>
      </trkpt>
      <trkpt lat="49.22081" lon="-0.07407">
        <ele>15.9</ele>
        <time>2023-11-19T08:26:45Z</time>
      </trkpt>
      <trkpt lat="49.22077" lon="-0.074">
        <ele>16.1</ele>
        <time>2023-11-19T08:26:46Z</time>
      </trkpt>
      <trkpt lat="49.22074" lon="-0.07393">
        <ele>16.3</ele>
        <time>2023-11-19T08:26:47Z</time>
      </trkpt>
      <trkpt lat="49.22071" lon="-0.07386">
        <ele>16.4</ele>
        <time>2023-11-19T08:26:48Z</time>
      </trkpt>
      <trkpt lat="49.22068" lon="-0.07379">
        <ele>16.6</ele>
        <time>2023-11-19T08:26:49Z</time>
      </trkpt>
      <trkpt lat="49.22066" lon="-0.07371">
        <ele>16.8</ele>
        <time>2023-11-19T08:26:50Z</time>
      </trkpt>
      <trkpt lat="49.22064" lon="-0.07362">
        <ele>16.9</ele>
        <time>2023-11-19T08:26:51Z</time>
      </trkpt>
      <trkpt lat="49.22061" lon="-0.07354">
        <ele>17.1</ele>
        <time>2023-11-19T08:26:52Z</time>
      </trkpt>
      <trkpt lat="49.22059" lon="-0.07345">
        <ele>17.2</ele>
        <time>2023-11-19T08:26:53Z</time>
      </trkpt>
      <trkpt lat="49.22056" lon="-0.07336">
        <ele>17.4</ele>
        <time>2023-11-19T08:26:54Z</time>
      </trkpt>
      <trkpt lat="49.22054" lon="-0.07327">
        <ele>17.5</ele>
        <time>2023-11-19T08:26:55Z</time>
      </trkpt>
      <trkpt lat="49.22052" lon="-0.07319">
        <ele>17.6</ele>
        <time>2023-11-19T08:26:56Z</time>
      </trkpt>
      <trkpt lat="49.22049" lon="-0.0731">
        <ele>17.8</ele>
        <time>2023-11-19T08:26:57Z</time>
      </trkpt>
      <trkpt lat="49.22046" lon="-0.07302">
        <ele>17.9</ele>
        <time>2023-11-19T08:26:58Z</time>
      </trkpt>
      <trkpt lat="49.22044" lon="-0.07293">
        <ele>18.1</ele>
        <time>2023-11-19T08:26:59Z</time>
      </trkpt>
      <trkpt lat="49.22041" lon="-0.07284">
        <ele>18.2</ele>
        <time>2023-11-19T08:27:00Z</time>
      </trkpt>
      <trkpt lat="49.22039" lon="-0.07276">
        <ele>18.4</ele>
        <time>2023-11-19T08:27:01Z</time>
      </trkpt>
      <trkpt lat="49.22036" lon="-0.07267">
        <ele>18.5</ele>
        <time>2023-11-19T08:27:02Z</time>
      </trkpt>
      <trkpt lat="49.22033" lon="-0.07259">
        <ele>18.6</ele>
        <time>2023-11-19T08:27:03Z</time>
      </trkpt>
      <trkpt lat="49.22031" lon="-0.07251">
        <ele>18.8</ele>
        <time>2023-11-19T08:27:04Z</time>
      </trkpt>
      <trkpt lat="49.22028" lon="-0.07243">
        <ele>18.9</ele>
        <time>2023-11-19T08:27:05Z</time>
      </trkpt>
      <trkpt lat="49.22025" lon="-0.07236">
        <ele>19</ele>
        <time>2023-11-19T08:27:06Z</time>
      </trkpt>
      <trkpt lat="49.22022" lon="-0.07229">
        <ele>19.1</ele>
        <time>2023-11-19T08:27:07Z</time>
      </trkpt>
      <trkpt lat="49.22019" lon="-0.07222">
        <ele>19.2</ele>
        <time>2023-11-19T08:27:08Z</time>
      </trkpt>
      <trkpt lat="49.22016" lon="-0.07214">
        <ele>19.3</ele>
        <time>2023-11-19T08:27:09Z</time>
      </trkpt>
      <trkpt lat="49.22013" lon="-0.07206">
        <ele>19.5</ele>
        <time>2023-11-19T08:27:10Z</time>
      </trkpt>
      <trkpt lat="49.2201" lon="-0.07198">
        <ele>19.6</ele>
        <time>2023-11-19T08:27:11Z</time>
      </trkpt>
      <trkpt lat="49.22006" lon="-0.0719">
        <ele>19.8</ele>
        <time>2023-11-19T08:27:12Z</time>
      </trkpt>
      <trkpt lat="49.22003" lon="-0.07182">
        <ele>19.9</ele>
        <time>2023-11-19T08:27:13Z</time>
      </trkpt>
      <trkpt lat="49.22" lon="-0.07174">
        <ele>20.1</ele>
        <time>2023-11-19T08:27:14Z</time>
      </trkpt>
      <trkpt lat="49.21996" lon="-0.07167">
        <ele>20.2</ele>
        <time>2023-11-19T08:27:15Z</time>
      </trkpt>
      <trkpt lat="49.21993" lon="-0.0716">
        <ele>20.4</ele>
        <time>2023-11-19T08:27:16Z</time>
      </trkpt>
      <trkpt lat="49.2199" lon="-0.07152">
        <ele>20.5</ele>
        <time>2023-11-19T08:27:17Z</time>
      </trkpt>
      <trkpt lat="49.21987" lon="-0.07145">
        <ele>20.7</ele>
        <time>2023-11-19T08:27:18Z</time>
      </trkpt>
      <trkpt lat="49.21983" lon="-0.07138">
        <ele>20.9</ele>
        <time>2023-11-19T08:27:19Z</time>
      </trkpt>
      <trkpt lat="49.2198" lon="-0.07132">
        <ele>21</ele>
        <time>2023-11-19T08:27:20Z</time>
      </trkpt>
      <trkpt lat="49.21977" lon="-0.07125">
        <ele>21.2</ele>
        <time>2023-11-19T08:27:21Z</time>
      </trkpt>
      <trkpt lat="49.21974" lon="-0.07118">
        <ele>21.4</ele>
        <time>2023-11-19T08:27:22Z</time>
      </trkpt>
      <trkpt lat="49.21971" lon="-0.07111">
        <ele>21.5</ele>
        <time>2023-11-19T08:27:23Z</time>
      </trkpt>
      <trkpt lat="49.21967" lon="-0.07103">
        <ele>21.7</ele>
        <time>2023-11-19T08:27:24Z</time>
      </trkpt>
      <trkpt lat="49.21964" lon="-0.07096">
        <ele>21.8</ele>
        <time>2023-11-19T08:27:25Z</time>
      </trkpt>
      <trkpt lat="49.2196" lon="-0.07089">
        <ele>21.9</ele>
        <time>2023-11-19T08:27:26Z</time>
      </trkpt>
      <trkpt lat="49.21957" lon="-0.07081">
        <ele>22.1</ele>
        <time>2023-11-19T08:27:27Z</time>
      </trkpt>
      <trkpt lat="49.21954" lon="-0.07072">
        <ele>22.2</ele>
        <time>2023-11-19T08:27:28Z</time>
      </trkpt>
      <trkpt lat="49.21951" lon="-0.07065">
        <ele>22.3</ele>
        <time>2023-11-19T08:27:29Z</time>
      </trkpt>
      <trkpt lat="49.21948" lon="-0.07057">
        <ele>22.4</ele>
        <time>2023-11-19T08:27:30Z</time>
      </trkpt>
      <trkpt lat="49.21945" lon="-0.0705">
        <ele>22.6</ele>
        <time>2023-11-19T08:27:31Z</time>
      </trkpt>
      <trkpt lat="49.21941" lon="-0.07041">
        <ele>22.7</ele>
        <time>2023-11-19T08:27:32Z</time>
      </trkpt>
      <trkpt lat="49.21939" lon="-0.07033">
        <ele>22.8</ele>
        <time>2023-11-19T08:27:33Z</time>
      </trkpt>
      <trkpt lat="49.21936" lon="-0.07024">
        <ele>22.9</ele>
        <time>2023-11-19T08:27:34Z</time>
      </trkpt>
      <trkpt lat="49.21933" lon="-0.07015">
        <ele>23.1</ele>
        <time>2023-11-19T08:27:35Z</time>
      </trkpt>
      <trkpt lat="49.2193" lon="-0.07007">
        <ele>23.2</ele>
        <time>2023-11-19T08:27:36Z</time>
      </trkpt>
      <trkpt lat="49.21928" lon="-0.06999">
        <ele>23.3</ele>
        <time>2023-11-19T08:27:37Z</time>
      </trkpt>
      <trkpt lat="49.21925" lon="-0.0699">
        <ele>23.4</ele>
        <time>2023-11-19T08:27:38Z</time>
      </trkpt>
      <trkpt lat="49.21923" lon="-0.06982">
        <ele>23.5</ele>
        <time>2023-11-19T08:27:39Z</time>
      </trkpt>
      <trkpt lat="49.21921" lon="-0.06973">
        <ele>23.6</ele>
        <time>2023-11-19T08:27:40Z</time>
      </trkpt>
      <trkpt lat="49.21919" lon="-0.06965">
        <ele>23.7</ele>
        <time>2023-11-19T08:27:41Z</time>
      </trkpt>
      <trkpt lat="49.21917" lon="-0.06956">
        <ele>23.8</ele>
        <time>2023-11-19T08:27:42Z</time>
      </trkpt>
      <trkpt lat="49.21915" lon="-0.06947">
        <ele>23.9</ele>
        <time>2023-11-19T08:27:43Z</time>
      </trkpt>
      <trkpt lat="49.21913" lon="-0.06939">
        <ele>24</ele>
        <time>2023-11-19T08:27:44Z</time>
      </trkpt>
      <trkpt lat="49.21911" lon="-0.06932">
        <ele>24</ele>
        <time>2023-11-19T08:27:45Z</time>
      </trkpt>
      <trkpt lat="49.2191" lon="-0.06925">
        <ele>24.1</ele>
        <time>2023-11-19T08:27:46Z</time>
      </trkpt>
      <trkpt lat="49.21909" lon="-0.06918">
        <ele>24.1</ele>
        <time>2023-11-19T08:27:47Z</time>
      </trkpt>
      <trkpt lat="49.21909" lon="-0.06912">
        <ele>24.2</ele>
        <time>2023-11-19T08:27:48Z</time>
      </trkpt>
      <trkpt lat="49.21908" lon="-0.06906">
        <ele>24.2</ele>
        <time>2023-11-19T08:27:49Z</time>
      </trkpt>
      <trkpt lat="49.21908" lon="-0.069">
        <ele>24.2</ele>
        <time>2023-11-19T08:27:50Z</time>
      </trkpt>
      <trkpt lat="49.21907" lon="-0.06895">
        <ele>24.3</ele>
        <time>2023-11-19T08:27:51Z</time>
      </trkpt>
      <trkpt lat="49.21906" lon="-0.06889">
        <ele>24.4</ele>
        <time>2023-11-19T08:27:52Z</time>
      </trkpt>
      <trkpt lat="49.21904" lon="-0.06884">
        <ele>24.5</ele>
        <time>2023-11-19T08:27:53Z</time>
      </trkpt>
      <trkpt lat="49.21901" lon="-0.0688">
        <ele>24.7</ele>
        <time>2023-11-19T08:27:54Z</time>
      </trkpt>
      <trkpt lat="49.21899" lon="-0.06876">
        <ele>24.8</ele>
        <time>2023-11-19T08:27:55Z</time>
      </trkpt>
      <trkpt lat="49.21896" lon="-0.06872">
        <ele>25</ele>
        <time>2023-11-19T08:27:56Z</time>
      </trkpt>
      <trkpt lat="49.21893" lon="-0.06869">
        <ele>25.1</ele>
        <time>2023-11-19T08:27:57Z</time>
      </trkpt>
      <trkpt lat="49.21889" lon="-0.06865">
        <ele>25.3</ele>
        <time>2023-11-19T08:27:58Z</time>
      </trkpt>
      <trkpt lat="49.21885" lon="-0.0686">
        <ele>25.5</ele>
        <time>2023-11-19T08:27:59Z</time>
      </trkpt>
      <trkpt lat="49.21881" lon="-0.06856">
        <ele>25.7</ele>
        <time>2023-11-19T08:28:00Z</time>
      </trkpt>
      <trkpt lat="49.21877" lon="-0.06851">
        <ele>25.9</ele>
        <time>2023-11-19T08:28:01Z</time>
      </trkpt>
      <trkpt lat="49.21873" lon="-0.06846">
        <ele>26.1</ele>
        <time>2023-11-19T08:28:02Z</time>
      </trkpt>
      <trkpt lat="49.21869" lon="-0.06841">
        <ele>26.3</ele>
        <time>2023-11-19T08:28:03Z</time>
      </trkpt>
      <trkpt lat="49.21866" lon="-0.06835">
        <ele>26.4</ele>
        <time>2023-11-19T08:28:04Z</time>
      </trkpt>
      <trkpt lat="49.21862" lon="-0.06829">
        <ele>26.6</ele>
        <time>2023-11-19T08:28:05Z</time>
      </trkpt>
      <trkpt lat="49.21858" lon="-0.06822">
        <ele>26.8</ele>
        <time>2023-11-19T08:28:06Z</time>
      </trkpt>
      <trkpt lat="49.21855" lon="-0.06816">
        <ele>27</ele>
        <time>2023-11-19T08:28:07Z</time>
      </trkpt>
      <trkpt lat="49.21852" lon="-0.06811">
        <ele>27.2</ele>
        <time>2023-11-19T08:28:08Z</time>
      </trkpt>
      <trkpt lat="49.21849" lon="-0.06806">
        <ele>27.3</ele>
        <time>2023-11-19T08:28:09Z</time>
      </trkpt>
      <trkpt lat="49.21846" lon="-0.06803">
        <ele>27.4</ele>
        <time>2023-11-19T08:28:10Z</time>
      </trkpt>
      <trkpt lat="49.21844" lon="-0.06799">
        <ele>27.4</ele>
        <time>2023-11-19T08:28:11Z</time>
      </trkpt>
      <trkpt lat="49.21842" lon="-0.06794">
        <ele>27.5</ele>
        <time>2023-11-19T08:28:12Z</time>
      </trkpt>
      <trkpt lat="49.21842" lon="-0.06792">
        <ele>27.5</ele>
        <time>2023-11-19T08:28:13Z</time>
      </trkpt>
      <trkpt lat="49.2184" lon="-0.06788">
        <ele>27.6</ele>
        <time>2023-11-19T08:28:14Z</time>
      </trkpt>
      <trkpt lat="49.2184" lon="-0.06787">
        <ele>27.6</ele>
        <time>2023-11-19T08:28:15Z</time>
      </trkpt>
      <trkpt lat="49.2184" lon="-0.06786">
        <ele>27.6</ele>
        <time>2023-11-19T08:28:16Z</time>
      </trkpt>
      <trkpt lat="49.2184" lon="-0.06785">
        <ele>27.6</ele>
        <time>2023-11-19T08:28:17Z</time>
      </trkpt>
      <trkpt lat="49.2184" lon="-0.06785">
        <ele>27.6</ele>
        <time>2023-11-19T08:28:18Z</time>
      </trkpt>
      <trkpt lat="49.2184" lon="-0.06785">
        <ele>27.6</ele>
        <time>2023-11-19T08:28:19Z</time>
      </trkpt>
      <trkpt lat="49.2184" lon="-0.06785">
        <ele>27.6</ele>
        <time>2023-11-19T08:28:20Z</time>
      </trkpt>
      <trkpt lat="49.2184" lon="-0.06785">
        <ele>27.6</ele>
        <time>2023-11-19T08:28:21Z</time>
      </trkpt>
      <trkpt lat="49.2184" lon="-0.06785">
        <ele>27.6</ele>
        <time>2023-11-19T08:28:22Z</time>
      </trkpt>
      <trkpt lat="49.2184" lon="-0.06785">
        <ele>27.6</ele>
        <time>2023-11-19T08:28:23Z</time>
      </trkpt>
      <trkpt lat="49.2184" lon="-0.06785">
        <ele>27.6</ele>
        <time>2023-11-19T08:28:24Z</time>
      </trkpt>
      <trkpt lat="49.2184" lon="-0.06785">
        <ele>27.6</ele>
        <time>2023-11-19T08:28:25Z</time>
      </trkpt>
      <trkpt lat="49.2184" lon="-0.06785">
        <ele>27.6</ele>
        <time>2023-11-19T08:28:26Z</time>
      </trkpt>
      <trkpt lat="49.2184" lon="-0.06785">
        <ele>27.6</ele>
        <time>2023-11-19T08:28:27Z</time>
      </trkpt>
      <trkpt lat="49.21836" lon="-0.06781">
        <ele>27.7</ele>
        <time>2023-11-19T08:28:57Z</time>
      </trkpt>
      <trkpt lat="49.21836" lon="-0.06781">
        <ele>27.7</ele>
        <time>2023-11-19T08:28:58Z</time>
      </trkpt>
      <trkpt lat="49.21836" lon="-0.06781">
        <ele>27.7</ele>
        <time>2023-11-19T08:28:59Z</time>
      </trkpt>
      <trkpt lat="49.21836" lon="-0.06781">
        <ele>27.7</ele>
        <time>2023-11-19T08:29:00Z</time>
      </trkpt>
      <trkpt lat="49.21836" lon="-0.06781">
        <ele>27.7</ele>
        <time>2023-11-19T08:29:01Z</time>
      </trkpt>
      <trkpt lat="49.21836" lon="-0.06781">
        <ele>27.7</ele>
        <time>2023-11-19T08:29:02Z</time>
      </trkpt>
      <trkpt lat="49.21836" lon="-0.06781">
        <ele>27.7</ele>
        <time>2023-11-19T08:29:03Z</time>
      </trkpt>
      <trkpt lat="49.21836" lon="-0.06781">
        <ele>27.7</ele>
        <time>2023-11-19T08:29:04Z</time>
      </trkpt>
      <trkpt lat="49.21836" lon="-0.06781">
        <ele>27.7</ele>
        <time>2023-11-19T08:29:05Z</time>
      </trkpt>
      <trkpt lat="49.21836" lon="-0.06781">
        <ele>27.7</ele>
        <time>2023-11-19T08:29:06Z</time>
      </trkpt>
      <trkpt lat="49.21836" lon="-0.06781">
        <ele>27.7</ele>
        <time>2023-11-19T08:29:07Z</time>
      </trkpt>
      <trkpt lat="49.21836" lon="-0.06781">
        <ele>27.7</ele>
        <time>2023-11-19T08:29:08Z</time>
      </trkpt>
      <trkpt lat="49.21836" lon="-0.06781">
        <ele>27.7</ele>
        <time>2023-11-19T08:29:09Z</time>
      </trkpt>
      <trkpt lat="49.21836" lon="-0.06781">
        <ele>27.7</ele>
        <time>2023-11-19T08:29:10Z</time>
      </trkpt>
      <trkpt lat="49.21836" lon="-0.06781">
        <ele>27.7</ele>
        <time>2023-11-19T08:29:11Z</time>
      </trkpt>
      <trkpt lat="49.21836" lon="-0.06781">
        <ele>27.7</ele>
        <time>2023-11-19T08:29:12Z</time>
      </trkpt>
      <trkpt lat="49.21836" lon="-0.06781">
        <ele>27.7</ele>
        <time>2023-11-19T08:29:13Z</time>
      </trkpt>
      <trkpt lat="49.21836" lon="-0.06781">
        <ele>27.7</ele>
        <time>2023-11-19T08:29:14Z</time>
      </trkpt>
      <trkpt lat="49.21836" lon="-0.06781">
        <ele>27.7</ele>
        <time>2023-11-19T08:29:15Z</time>
      </trkpt>
      <trkpt lat="49.21836" lon="-0.06781">
        <ele>27.7</ele>
        <time>2023-11-19T08:29:16Z</time>
      </trkpt>
      <trkpt lat="49.21836" lon="-0.06781">
        <ele>27.7</ele>
        <time>2023-11-19T08:29:17Z</time>
      </trkpt>
      <trkpt lat="49.21836" lon="-0.0678">
        <ele>27.7</ele>
        <time>2023-11-19T08:29:18Z</time>
      </trkpt>
      <trkpt lat="49.21836" lon="-0.06779">
        <ele>27.7</ele>
        <time>2023-11-19T08:29:19Z</time>
      </trkpt>
      <trkpt lat="49.21836" lon="-0.06779">
        <ele>27.7</ele>
        <time>2023-11-19T08:29:20Z</time>
      </trkpt>
      <trkpt lat="49.21836" lon="-0.06779">
        <ele>27.7</ele>
        <time>2023-11-19T08:29:21Z</time>
      </trkpt>
      <trkpt lat="49.21836" lon="-0.06779">
        <ele>27.7</ele>
        <time>2023-11-19T08:29:22Z</time>
      </trkpt>
      <trkpt lat="49.21836" lon="-0.06779">
        <ele>27.7</ele>
        <time>2023-11-19T08:29:23Z</time>
      </trkpt>
      <trkpt lat="49.21836" lon="-0.06779">
        <ele>27.7</ele>
        <time>2023-11-19T08:29:24Z</time>
      </trkpt>
      <trkpt lat="49.21836" lon="-0.06779">
        <ele>27.7</ele>
        <time>2023-11-19T08:29:25Z</time>
      </trkpt>
      <trkpt lat="49.21836" lon="-0.06779">
        <ele>27.7</ele>
        <time>2023-11-19T08:29:26Z</time>
      </trkpt>
      <trkpt lat="49.21836" lon="-0.06779">
        <ele>27.7</ele>
        <time>2023-11-19T08:29:27Z</time>
      </trkpt>
      <trkpt lat="49.21836" lon="-0.06779">
        <ele>27.7</ele>
        <time>2023-11-19T08:29:28Z</time>
      </trkpt>
      <trkpt lat="49.21836" lon="-0.06779">
        <ele>27.7</ele>
        <time>2023-11-19T08:29:29Z</time>
      </trkpt>
      <trkpt lat="49.21836" lon="-0.06779">
        <ele>27.7</ele>
        <time>2023-11-19T08:29:30Z</time>
      </trkpt>
      <trkpt lat="49.21836" lon="-0.06779">
        <ele>27.7</ele>
        <time>2023-11-19T08:29:31Z</time>
      </trkpt>
      <trkpt lat="49.21836" lon="-0.06779">
        <ele>27.7</ele>
        <time>2023-11-19T08:29:32Z</time>
      </trkpt>
      <trkpt lat="49.21836" lon="-0.06779">
        <ele>27.7</ele>
        <time>2023-11-19T08:29:33Z</time>
      </trkpt>
      <trkpt lat="49.21836" lon="-0.06779">
        <ele>27.7</ele>
        <time>2023-11-19T08:29:34Z</time>
      </trkpt>
      <trkpt lat="49.21836" lon="-0.06779">
        <ele>27.7</ele>
        <time>2023-11-19T08:29:35Z</time>
      </trkpt>
      <trkpt lat="49.21836" lon="-0.06779">
        <ele>27.7</ele>
        <time>2023-11-19T08:29:36Z</time>
      </trkpt>
      <trkpt lat="49.21836" lon="-0.06779">
        <ele>27.7</ele>
        <time>2023-11-19T08:29:37Z</time>
      </trkpt>
      <trkpt lat="49.21836" lon="-0.06779">
        <ele>27.7</ele>
        <time>2023-11-19T08:29:38Z</time>
      </trkpt>
      <trkpt lat="49.21836" lon="-0.06779">
        <ele>27.7</ele>
        <time>2023-11-19T08:29:39Z</time>
      </trkpt>
      <trkpt lat="49.21836" lon="-0.06779">
        <ele>27.7</ele>
        <time>2023-11-19T08:29:40Z</time>
      </trkpt>
      <trkpt lat="49.21836" lon="-0.06779">
        <ele>27.7</ele>
        <time>2023-11-19T08:29:41Z</time>
      </trkpt>
      <trkpt lat="49.21836" lon="-0.06779">
        <ele>27.7</ele>
        <time>2023-11-19T08:29:42Z</time>
      </trkpt>
      <trkpt lat="49.21836" lon="-0.06779">
        <ele>27.7</ele>
        <time>2023-11-19T08:29:43Z</time>
      </trkpt>
      <trkpt lat="49.21836" lon="-0.06779">
        <ele>27.7</ele>
        <time>2023-11-19T08:29:44Z</time>
      </trkpt>
      <trkpt lat="49.21836" lon="-0.06779">
        <ele>27.7</ele>
        <time>2023-11-19T08:29:45Z</time>
      </trkpt>
      <trkpt lat="49.21836" lon="-0.06779">
        <ele>27.7</ele>
        <time>2023-11-19T08:29:46Z</time>
      </trkpt>
      <trkpt lat="49.21836" lon="-0.06779">
        <ele>27.7</ele>
        <time>2023-11-19T08:29:47Z</time>
      </trkpt>
      <trkpt lat="49.21836" lon="-0.06779">
        <ele>27.7</ele>
        <time>2023-11-19T08:29:48Z</time>
      </trkpt>
      <trkpt lat="49.21836" lon="-0.06779">
        <ele>27.7</ele>
        <time>2023-11-19T08:29:49Z</time>
      </trkpt>
      <trkpt lat="49.21836" lon="-0.06779">
        <ele>27.7</ele>
        <time>2023-11-19T08:29:50Z</time>
      </trkpt>
      <trkpt lat="49.21836" lon="-0.06779">
        <ele>27.7</ele>
        <time>2023-11-19T08:29:51Z</time>
      </trkpt>
      <trkpt lat="49.21836" lon="-0.06779">
        <ele>27.7</ele>
        <time>2023-11-19T08:29:52Z</time>
      </trkpt>
      <trkpt lat="49.21836" lon="-0.06779">
        <ele>27.7</ele>
        <time>2023-11-19T08:29:53Z</time>
      </trkpt>
      <trkpt lat="49.21836" lon="-0.06779">
        <ele>27.7</ele>
        <time>2023-11-19T08:29:54Z</time>
      </trkpt>
      <trkpt lat="49.21836" lon="-0.06779">
        <ele>27.7</ele>
        <time>2023-11-19T08:29:55Z</time>
      </trkpt>
      <trkpt lat="49.21836" lon="-0.06779">
        <ele>27.7</ele>
        <time>2023-11-19T08:29:56Z</time>
      </trkpt>
      <trkpt lat="49.21836" lon="-0.06779">
        <ele>27.7</ele>
        <time>2023-11-19T08:29:57Z</time>
      </trkpt>
      <trkpt lat="49.21836" lon="-0.06779">
        <ele>27.7</ele>
        <time>2023-11-19T08:29:58Z</time>
      </trkpt>
      <trkpt lat="49.21836" lon="-0.06779">
        <ele>27.7</ele>
        <time>2023-11-19T08:29:59Z</time>
      </trkpt>
      <trkpt lat="49.21836" lon="-0.06779">
        <ele>27.7</ele>
        <time>2023-11-19T08:30:00Z</time>
      </trkpt>
      <trkpt lat="49.21836" lon="-0.06779">
        <ele>27.7</ele>
        <time>2023-11-19T08:30:01Z</time>
      </trkpt>
      <trkpt lat="49.21836" lon="-0.06779">
        <ele>27.7</ele>
        <time>2023-11-19T08:30:02Z</time>
      </trkpt>
      <trkpt lat="49.21836" lon="-0.06779">
        <ele>27.7</ele>
        <time>2023-11-19T08:30:03Z</time>
      </trkpt>
      <trkpt lat="49.21836" lon="-0.06779">
        <ele>27.7</ele>
        <time>2023-11-19T08:30:04Z</time>
      </trkpt>
      <trkpt lat="49.21836" lon="-0.06779">
        <ele>27.7</ele>
        <time>2023-11-19T08:30:05Z</time>
      </trkpt>
      <trkpt lat="49.21836" lon="-0.06779">
        <ele>27.7</ele>
        <time>2023-11-19T08:30:06Z</time>
      </trkpt>
      <trkpt lat="49.21836" lon="-0.06779">
        <ele>27.7</ele>
        <time>2023-11-19T08:30:07Z</time>
      </trkpt>
      <trkpt lat="49.21836" lon="-0.06779">
        <ele>27.7</ele>
        <time>2023-11-19T08:30:08Z</time>
      </trkpt>
      <trkpt lat="49.21836" lon="-0.06779">
        <ele>27.7</ele>
        <time>2023-11-19T08:30:09Z</time>
      </trkpt>
      <trkpt lat="49.21836" lon="-0.06779">
        <ele>27.7</ele>
        <time>2023-11-19T08:30:10Z</time>
      </trkpt>
      <trkpt lat="49.21836" lon="-0.06779">
        <ele>27.7</ele>
        <time>2023-11-19T08:30:11Z</time>
      </trkpt>
      <trkpt lat="49.21836" lon="-0.06779">
        <ele>27.7</ele>
        <time>2023-11-19T08:30:12Z</time>
      </trkpt>
      <trkpt lat="49.21836" lon="-0.06779">
        <ele>27.7</ele>
        <time>2023-11-19T08:30:13Z</time>
      </trkpt>
      <trkpt lat="49.21836" lon="-0.06779">
        <ele>27.7</ele>
        <time>2023-11-19T08:30:14Z</time>
      </trkpt>
      <trkpt lat="49.21836" lon="-0.06779">
        <ele>27.7</ele>
        <time>2023-11-19T08:30:15Z</time>
      </trkpt>
      <trkpt lat="49.21836" lon="-0.06779">
        <ele>27.7</ele>
        <time>2023-11-19T08:30:16Z</time>
      </trkpt>
      <trkpt lat="49.21836" lon="-0.06779">
        <ele>27.7</ele>
        <time>2023-11-19T08:30:17Z</time>
      </trkpt>
      <trkpt lat="49.21836" lon="-0.06779">
        <ele>27.7</ele>
        <time>2023-11-19T08:30:18Z</time>
      </trkpt>
      <trkpt lat="49.21836" lon="-0.06779">
        <ele>27.7</ele>
        <time>2023-11-19T08:30:19Z</time>
      </trkpt>
      <trkpt lat="49.21836" lon="-0.06779">
        <ele>27.7</ele>
        <time>2023-11-19T08:30:20Z</time>
      </trkpt>
      <trkpt lat="49.21836" lon="-0.06779">
        <ele>27.7</ele>
        <time>2023-11-19T08:30:21Z</time>
      </trkpt>
      <trkpt lat="49.21836" lon="-0.06779">
        <ele>27.7</ele>
        <time>2023-11-19T08:30:22Z</time>
      </trkpt>
      <trkpt lat="49.21836" lon="-0.06779">
        <ele>27.7</ele>
        <time>2023-11-19T08:30:23Z</time>
      </trkpt>
      <trkpt lat="49.21836" lon="-0.06779">
        <ele>27.7</ele>
        <time>2023-11-19T08:30:24Z</time>
      </trkpt>
      <trkpt lat="49.21836" lon="-0.06779">
        <ele>27.7</ele>
        <time>2023-11-19T08:30:25Z</time>
      </trkpt>
      <trkpt lat="49.21836" lon="-0.06779">
        <ele>27.7</ele>
        <time>2023-11-19T08:30:26Z</time>
      </trkpt>
      <trkpt lat="49.21836" lon="-0.06779">
        <ele>27.7</ele>
        <time>2023-11-19T08:30:27Z</time>
      </trkpt>
      <trkpt lat="49.21836" lon="-0.06779">
        <ele>27.7</ele>
        <time>2023-11-19T08:30:28Z</time>
      </trkpt>
      <trkpt lat="49.21836" lon="-0.06779">
        <ele>27.7</ele>
        <time>2023-11-19T08:30:29Z</time>
      </trkpt>
      <trkpt lat="49.21836" lon="-0.06779">
        <ele>27.7</ele>
        <time>2023-11-19T08:30:30Z</time>
      </trkpt>
      <trkpt lat="49.21836" lon="-0.06779">
        <ele>27.7</ele>
        <time>2023-11-19T08:30:31Z</time>
      </trkpt>
      <trkpt lat="49.21836" lon="-0.06779">
        <ele>27.7</ele>
        <time>2023-11-19T08:30:32Z</time>
      </trkpt>
      <trkpt lat="49.21836" lon="-0.06779">
        <ele>27.7</ele>
        <time>2023-11-19T08:30:33Z</time>
      </trkpt>
      <trkpt lat="49.21836" lon="-0.06779">
        <ele>27.7</ele>
        <time>2023-11-19T08:30:34Z</time>
      </trkpt>
      <trkpt lat="49.21836" lon="-0.06779">
        <ele>27.7</ele>
        <time>2023-11-19T08:30:35Z</time>
      </trkpt>
      <trkpt lat="49.21836" lon="-0.06779">
        <ele>27.7</ele>
        <time>2023-11-19T08:30:36Z</time>
      </trkpt>
      <trkpt lat="49.21836" lon="-0.06779">
        <ele>27.7</ele>
        <time>2023-11-19T08:30:37Z</time>
      </trkpt>
      <trkpt lat="49.21836" lon="-0.06779">
        <ele>27.7</ele>
        <time>2023-11-19T08:30:38Z</time>
      </trkpt>
      <trkpt lat="49.21836" lon="-0.06779">
        <ele>27.7</ele>
        <time>2023-11-19T08:30:39Z</time>
      </trkpt>
      <trkpt lat="49.21836" lon="-0.06779">
        <ele>27.7</ele>
        <time>2023-11-19T08:30:40Z</time>
      </trkpt>
      <trkpt lat="49.21836" lon="-0.06779">
        <ele>27.7</ele>
        <time>2023-11-19T08:30:41Z</time>
      </trkpt>
      <trkpt lat="49.21836" lon="-0.06779">
        <ele>27.7</ele>
        <time>2023-11-19T08:30:42Z</time>
      </trkpt>
      <trkpt lat="49.21836" lon="-0.06779">
        <ele>27.7</ele>
        <time>2023-11-19T08:30:43Z</time>
      </trkpt>
      <trkpt lat="49.21836" lon="-0.06779">
        <ele>27.7</ele>
        <time>2023-11-19T08:30:44Z</time>
      </trkpt>
      <trkpt lat="49.21836" lon="-0.06779">
        <ele>27.7</ele>
        <time>2023-11-19T08:30:45Z</time>
      </trkpt>
      <trkpt lat="49.21836" lon="-0.06779">
        <ele>27.7</ele>
        <time>2023-11-19T08:30:46Z</time>
      </trkpt>
      <trkpt lat="49.21836" lon="-0.06779">
        <ele>27.7</ele>
        <time>2023-11-19T08:30:47Z</time>
      </trkpt>
      <trkpt lat="49.21836" lon="-0.06779">
        <ele>27.7</ele>
        <time>2023-11-19T08:30:48Z</time>
      </trkpt>
      <trkpt lat="49.21836" lon="-0.06779">
        <ele>27.7</ele>
        <time>2023-11-19T08:30:49Z</time>
      </trkpt>
      <trkpt lat="49.21836" lon="-0.06779">
        <ele>27.7</ele>
        <time>2023-11-19T08:30:50Z</time>
      </trkpt>
      <trkpt lat="49.21836" lon="-0.06779">
        <ele>27.7</ele>
        <time>2023-11-19T08:30:51Z</time>
      </trkpt>
      <trkpt lat="49.21836" lon="-0.06779">
        <ele>27.7</ele>
        <time>2023-11-19T08:30:52Z</time>
      </trkpt>
      <trkpt lat="49.21836" lon="-0.06779">
        <ele>27.7</ele>
        <time>2023-11-19T08:30:53Z</time>
      </trkpt>
      <trkpt lat="49.21836" lon="-0.06779">
        <ele>27.7</ele>
        <time>2023-11-19T08:30:54Z</time>
      </trkpt>
      <trkpt lat="49.21836" lon="-0.06779">
        <ele>27.7</ele>
        <time>2023-11-19T08:30:55Z</time>
      </trkpt>
      <trkpt lat="49.21836" lon="-0.06779">
        <ele>27.7</ele>
        <time>2023-11-19T08:30:56Z</time>
      </trkpt>
      <trkpt lat="49.21836" lon="-0.06779">
        <ele>27.7</ele>
        <time>2023-11-19T08:30:57Z</time>
      </trkpt>
      <trkpt lat="49.21836" lon="-0.06779">
        <ele>27.7</ele>
        <time>2023-11-19T08:30:58Z</time>
      </trkpt>
      <trkpt lat="49.21836" lon="-0.06779">
        <ele>27.7</ele>
        <time>2023-11-19T08:30:59Z</time>
      </trkpt>
      <trkpt lat="49.21836" lon="-0.06779">
        <ele>27.7</ele>
        <time>2023-11-19T08:31:00Z</time>
      </trkpt>
      <trkpt lat="49.21836" lon="-0.06779">
        <ele>27.7</ele>
        <time>2023-11-19T08:31:01Z</time>
      </trkpt>
      <trkpt lat="49.21836" lon="-0.06779">
        <ele>27.7</ele>
        <time>2023-11-19T08:31:02Z</time>
      </trkpt>
      <trkpt lat="49.21836" lon="-0.06779">
        <ele>27.7</ele>
        <time>2023-11-19T08:31:03Z</time>
      </trkpt>
      <trkpt lat="49.21836" lon="-0.06779">
        <ele>27.7</ele>
        <time>2023-11-19T08:31:04Z</time>
      </trkpt>
      <trkpt lat="49.21836" lon="-0.06779">
        <ele>27.7</ele>
        <time>2023-11-19T08:31:05Z</time>
      </trkpt>
      <trkpt lat="49.21836" lon="-0.06779">
        <ele>27.7</ele>
        <time>2023-11-19T08:31:06Z</time>
      </trkpt>
      <trkpt lat="49.21836" lon="-0.06779">
        <ele>27.7</ele>
        <time>2023-11-19T08:31:07Z</time>
      </trkpt>
      <trkpt lat="49.21836" lon="-0.06779">
        <ele>27.7</ele>
        <time>2023-11-19T08:31:08Z</time>
      </trkpt>
      <trkpt lat="49.21836" lon="-0.06779">
        <ele>27.7</ele>
        <time>2023-11-19T08:31:09Z</time>
      </trkpt>
      <trkpt lat="49.21836" lon="-0.06779">
        <ele>27.7</ele>
        <time>2023-11-19T08:31:10Z</time>
      </trkpt>
      <trkpt lat="49.21836" lon="-0.06779">
        <ele>27.7</ele>
        <time>2023-11-19T08:31:11Z</time>
      </trkpt>
      <trkpt lat="49.21836" lon="-0.06779">
        <ele>27.7</ele>
        <time>2023-11-19T08:31:12Z</time>
      </trkpt>
      <trkpt lat="49.21836" lon="-0.06779">
        <ele>27.7</ele>
        <time>2023-11-19T08:31:13Z</time>
      </trkpt>
      <trkpt lat="49.21836" lon="-0.06779">
        <ele>27.7</ele>
        <time>2023-11-19T08:31:14Z</time>
      </trkpt>
      <trkpt lat="49.21836" lon="-0.06779">
        <ele>27.7</ele>
        <time>2023-11-19T08:31:15Z</time>
      </trkpt>
      <trkpt lat="49.21836" lon="-0.06779">
        <ele>27.7</ele>
        <time>2023-11-19T08:31:16Z</time>
      </trkpt>
      <trkpt lat="49.21836" lon="-0.06779">
        <ele>27.7</ele>
        <time>2023-11-19T08:31:17Z</time>
      </trkpt>
      <trkpt lat="49.21836" lon="-0.06779">
        <ele>27.7</ele>
        <time>2023-11-19T08:31:18Z</time>
      </trkpt>
      <trkpt lat="49.21836" lon="-0.06779">
        <ele>27.7</ele>
        <time>2023-11-19T08:31:19Z</time>
      </trkpt>
      <trkpt lat="49.21836" lon="-0.06779">
        <ele>27.7</ele>
        <time>2023-11-19T08:31:20Z</time>
      </trkpt>
      <trkpt lat="49.21836" lon="-0.06779">
        <ele>27.7</ele>
        <time>2023-11-19T08:31:21Z</time>
      </trkpt>
      <trkpt lat="49.21836" lon="-0.06779">
        <ele>27.7</ele>
        <time>2023-11-19T08:31:22Z</time>
      </trkpt>
      <trkpt lat="49.21836" lon="-0.06779">
        <ele>27.7</ele>
        <time>2023-11-19T08:31:23Z</time>
      </trkpt>
      <trkpt lat="49.21836" lon="-0.06779">
        <ele>27.7</ele>
        <time>2023-11-19T08:31:24Z</time>
      </trkpt>
      <trkpt lat="49.21836" lon="-0.06779">
        <ele>27.7</ele>
        <time>2023-11-19T08:31:25Z</time>
      </trkpt>
      <trkpt lat="49.21836" lon="-0.06779">
        <ele>27.7</ele>
        <time>2023-11-19T08:31:26Z</time>
      </trkpt>
      <trkpt lat="49.21836" lon="-0.06778">
        <ele>27.7</ele>
        <time>2023-11-19T08:31:27Z</time>
      </trkpt>
      <trkpt lat="49.21836" lon="-0.06777">
        <ele>27.8</ele>
        <time>2023-11-19T08:31:28Z</time>
      </trkpt>
      <trkpt lat="49.21835" lon="-0.06777">
        <ele>27.8</ele>
        <time>2023-11-19T08:31:29Z</time>
      </trkpt>
      <trkpt lat="49.21835" lon="-0.06776">
        <ele>27.8</ele>
        <time>2023-11-19T08:31:30Z</time>
      </trkpt>
      <trkpt lat="49.21835" lon="-0.06776">
        <ele>27.8</ele>
        <time>2023-11-19T08:31:31Z</time>
      </trkpt>
      <trkpt lat="49.21835" lon="-0.06776">
        <ele>27.8</ele>
        <time>2023-11-19T08:31:32Z</time>
      </trkpt>
      <trkpt lat="49.21835" lon="-0.06776">
        <ele>27.8</ele>
        <time>2023-11-19T08:31:33Z</time>
      </trkpt>
      <trkpt lat="49.21835" lon="-0.06776">
        <ele>27.8</ele>
        <time>2023-11-19T08:31:34Z</time>
      </trkpt>
      <trkpt lat="49.21835" lon="-0.06776">
        <ele>27.8</ele>
        <time>2023-11-19T08:31:35Z</time>
      </trkpt>
      <trkpt lat="49.21835" lon="-0.06776">
        <ele>27.8</ele>
        <time>2023-11-19T08:31:36Z</time>
      </trkpt>
      <trkpt lat="49.21835" lon="-0.06776">
        <ele>27.8</ele>
        <time>2023-11-19T08:31:37Z</time>
      </trkpt>
      <trkpt lat="49.21835" lon="-0.06776">
        <ele>27.8</ele>
        <time>2023-11-19T08:31:38Z</time>
      </trkpt>
      <trkpt lat="49.21835" lon="-0.06776">
        <ele>27.8</ele>
        <time>2023-11-19T08:31:39Z</time>
      </trkpt>
      <trkpt lat="49.21835" lon="-0.06776">
        <ele>27.8</ele>
        <time>2023-11-19T08:31:40Z</time>
      </trkpt>
      <trkpt lat="49.21835" lon="-0.06776">
        <ele>27.8</ele>
        <time>2023-11-19T08:31:41Z</time>
      </trkpt>
      <trkpt lat="49.21835" lon="-0.06776">
        <ele>27.8</ele>
        <time>2023-11-19T08:31:42Z</time>
      </trkpt>
      <trkpt lat="49.21835" lon="-0.06776">
        <ele>27.8</ele>
        <time>2023-11-19T08:31:43Z</time>
      </trkpt>
      <trkpt lat="49.21835" lon="-0.06776">
        <ele>27.8</ele>
        <time>2023-11-19T08:31:44Z</time>
      </trkpt>
      <trkpt lat="49.21835" lon="-0.06776">
        <ele>27.8</ele>
        <time>2023-11-19T08:31:45Z</time>
      </trkpt>
      <trkpt lat="49.21835" lon="-0.06776">
        <ele>27.8</ele>
        <time>2023-11-19T08:31:46Z</time>
      </trkpt>
      <trkpt lat="49.21835" lon="-0.06776">
        <ele>27.8</ele>
        <time>2023-11-19T08:31:47Z</time>
      </trkpt>
      <trkpt lat="49.21835" lon="-0.06776">
        <ele>27.8</ele>
        <time>2023-11-19T08:31:48Z</time>
      </trkpt>
      <trkpt lat="49.21835" lon="-0.06776">
        <ele>27.8</ele>
        <time>2023-11-19T08:31:49Z</time>
      </trkpt>
      <trkpt lat="49.21835" lon="-0.06776">
        <ele>27.8</ele>
        <time>2023-11-19T08:31:50Z</time>
      </trkpt>
      <trkpt lat="49.21835" lon="-0.06776">
        <ele>27.8</ele>
        <time>2023-11-19T08:31:51Z</time>
      </trkpt>
      <trkpt lat="49.21835" lon="-0.06776">
        <ele>27.8</ele>
        <time>2023-11-19T08:31:52Z</time>
      </trkpt>
      <trkpt lat="49.21835" lon="-0.06776">
        <ele>27.8</ele>
        <time>2023-11-19T08:31:53Z</time>
      </trkpt>
      <trkpt lat="49.21835" lon="-0.06776">
        <ele>27.8</ele>
        <time>2023-11-19T08:31:54Z</time>
      </trkpt>
      <trkpt lat="49.21835" lon="-0.06776">
        <ele>27.8</ele>
        <time>2023-11-19T08:31:55Z</time>
      </trkpt>
      <trkpt lat="49.21835" lon="-0.06776">
        <ele>27.8</ele>
        <time>2023-11-19T08:31:56Z</time>
      </trkpt>
      <trkpt lat="49.21835" lon="-0.06776">
        <ele>27.8</ele>
        <time>2023-11-19T08:31:57Z</time>
      </trkpt>
      <trkpt lat="49.21834" lon="-0.06776">
        <ele>27.8</ele>
        <time>2023-11-19T08:31:58Z</time>
      </trkpt>
      <trkpt lat="49.21834" lon="-0.06776">
        <ele>27.8</ele>
        <time>2023-11-19T08:31:59Z</time>
      </trkpt>
      <trkpt lat="49.21834" lon="-0.06776">
        <ele>27.8</ele>
        <time>2023-11-19T08:32:00Z</time>
      </trkpt>
      <trkpt lat="49.21834" lon="-0.06776">
        <ele>27.8</ele>
        <time>2023-11-19T08:32:01Z</time>
      </trkpt>
      <trkpt lat="49.21834" lon="-0.06776">
        <ele>27.8</ele>
        <time>2023-11-19T08:32:02Z</time>
      </trkpt>
      <trkpt lat="49.21834" lon="-0.06776">
        <ele>27.8</ele>
        <time>2023-11-19T08:32:03Z</time>
      </trkpt>
      <trkpt lat="49.21834" lon="-0.06776">
        <ele>27.8</ele>
        <time>2023-11-19T08:32:04Z</time>
      </trkpt>
      <trkpt lat="49.21834" lon="-0.06776">
        <ele>27.8</ele>
        <time>2023-11-19T08:32:05Z</time>
      </trkpt>
      <trkpt lat="49.21834" lon="-0.06776">
        <ele>27.8</ele>
        <time>2023-11-19T08:32:06Z</time>
      </trkpt>
      <trkpt lat="49.21834" lon="-0.06776">
        <ele>27.8</ele>
        <time>2023-11-19T08:32:07Z</time>
      </trkpt>
      <trkpt lat="49.21834" lon="-0.06776">
        <ele>27.8</ele>
        <time>2023-11-19T08:32:08Z</time>
      </trkpt>
      <trkpt lat="49.21834" lon="-0.06776">
        <ele>27.8</ele>
        <time>2023-11-19T08:32:09Z</time>
      </trkpt>
      <trkpt lat="49.21834" lon="-0.06776">
        <ele>27.8</ele>
        <time>2023-11-19T08:32:10Z</time>
      </trkpt>
      <trkpt lat="49.21834" lon="-0.06776">
        <ele>27.8</ele>
        <time>2023-11-19T08:32:11Z</time>
      </trkpt>
      <trkpt lat="49.21834" lon="-0.06776">
        <ele>27.8</ele>
        <time>2023-11-19T08:32:12Z</time>
      </trkpt>
      <trkpt lat="49.21834" lon="-0.06776">
        <ele>27.8</ele>
        <time>2023-11-19T08:32:13Z</time>
      </trkpt>
      <trkpt lat="49.21834" lon="-0.06776">
        <ele>27.8</ele>
        <time>2023-11-19T08:32:14Z</time>
      </trkpt>
      <trkpt lat="49.21834" lon="-0.06776">
        <ele>27.8</ele>
        <time>2023-11-19T08:32:15Z</time>
      </trkpt>
      <trkpt lat="49.21834" lon="-0.06776">
        <ele>27.8</ele>
        <time>2023-11-19T08:32:16Z</time>
      </trkpt>
      <trkpt lat="49.21834" lon="-0.06776">
        <ele>27.8</ele>
        <time>2023-11-19T08:32:17Z</time>
      </trkpt>
      <trkpt lat="49.21834" lon="-0.06776">
        <ele>27.8</ele>
        <time>2023-11-19T08:32:18Z</time>
      </trkpt>
      <trkpt lat="49.21835" lon="-0.06776">
        <ele>27.8</ele>
        <time>2023-11-19T08:32:19Z</time>
      </trkpt>
      <trkpt lat="49.21834" lon="-0.06777">
        <ele>27.8</ele>
        <time>2023-11-19T08:32:20Z</time>
      </trkpt>
      <trkpt lat="49.21834" lon="-0.06777">
        <ele>27.8</ele>
        <time>2023-11-19T08:32:21Z</time>
      </trkpt>
      <trkpt lat="49.21834" lon="-0.06777">
        <ele>27.8</ele>
        <time>2023-11-19T08:32:22Z</time>
      </trkpt>
      <trkpt lat="49.21835" lon="-0.06777">
        <ele>27.8</ele>
        <time>2023-11-19T08:32:23Z</time>
      </trkpt>
      <trkpt lat="49.21835" lon="-0.06777">
        <ele>27.8</ele>
        <time>2023-11-19T08:32:24Z</time>
      </trkpt>
      <trkpt lat="49.21835" lon="-0.06777">
        <ele>27.8</ele>
        <time>2023-11-19T08:32:25Z</time>
      </trkpt>
      <trkpt lat="49.21835" lon="-0.06776">
        <ele>27.8</ele>
        <time>2023-11-19T08:32:26Z</time>
      </trkpt>
      <trkpt lat="49.21835" lon="-0.06776">
        <ele>27.8</ele>
        <time>2023-11-19T08:32:27Z</time>
      </trkpt>
      <trkpt lat="49.21835" lon="-0.06776">
        <ele>27.8</ele>
        <time>2023-11-19T08:32:28Z</time>
      </trkpt>
      <trkpt lat="49.21835" lon="-0.06776">
        <ele>27.8</ele>
        <time>2023-11-19T08:32:29Z</time>
      </trkpt>
      <trkpt lat="49.21835" lon="-0.06776">
        <ele>27.8</ele>
        <time>2023-11-19T08:32:30Z</time>
      </trkpt>
      <trkpt lat="49.21835" lon="-0.06776">
        <ele>27.8</ele>
        <time>2023-11-19T08:32:31Z</time>
      </trkpt>
      <trkpt lat="49.21835" lon="-0.06776">
        <ele>27.8</ele>
        <time>2023-11-19T08:32:32Z</time>
      </trkpt>
      <trkpt lat="49.21835" lon="-0.06776">
        <ele>27.8</ele>
        <time>2023-11-19T08:32:33Z</time>
      </trkpt>
      <trkpt lat="49.21835" lon="-0.06776">
        <ele>27.8</ele>
        <time>2023-11-19T08:32:34Z</time>
      </trkpt>
      <trkpt lat="49.21835" lon="-0.06776">
        <ele>27.8</ele>
        <time>2023-11-19T08:32:35Z</time>
      </trkpt>
      <trkpt lat="49.21835" lon="-0.06776">
        <ele>27.8</ele>
        <time>2023-11-19T08:32:36Z</time>
      </trkpt>
      <trkpt lat="49.21836" lon="-0.06775">
        <ele>27.8</ele>
        <time>2023-11-19T08:32:37Z</time>
      </trkpt>
      <trkpt lat="49.21836" lon="-0.06775">
        <ele>27.8</ele>
        <time>2023-11-19T08:32:38Z</time>
      </trkpt>
      <trkpt lat="49.21836" lon="-0.06775">
        <ele>27.9</ele>
        <time>2023-11-19T08:32:39Z</time>
      </trkpt>
      <trkpt lat="49.21836" lon="-0.06775">
        <ele>27.9</ele>
        <time>2023-11-19T08:32:40Z</time>
      </trkpt>
      <trkpt lat="49.21836" lon="-0.06775">
        <ele>27.9</ele>
        <time>2023-11-19T08:32:41Z</time>
      </trkpt>
      <trkpt lat="49.21836" lon="-0.06775">
        <ele>27.9</ele>
        <time>2023-11-19T08:32:42Z</time>
      </trkpt>
      <trkpt lat="49.21836" lon="-0.06775">
        <ele>27.9</ele>
        <time>2023-11-19T08:32:43Z</time>
      </trkpt>
      <trkpt lat="49.21836" lon="-0.06775">
        <ele>27.9</ele>
        <time>2023-11-19T08:32:44Z</time>
      </trkpt>
      <trkpt lat="49.21836" lon="-0.06775">
        <ele>27.9</ele>
        <time>2023-11-19T08:32:45Z</time>
      </trkpt>
      <trkpt lat="49.21836" lon="-0.06775">
        <ele>27.9</ele>
        <time>2023-11-19T08:32:46Z</time>
      </trkpt>
      <trkpt lat="49.21836" lon="-0.06775">
        <ele>27.9</ele>
        <time>2023-11-19T08:32:47Z</time>
      </trkpt>
      <trkpt lat="49.2142" lon="-0.06901">
        <ele>14.6</ele>
        <time>2023-11-19T08:36:39Z</time>
      </trkpt>
      <trkpt lat="49.21411" lon="-0.06902">
        <ele>14.7</ele>
        <time>2023-11-19T08:36:40Z</time>
      </trkpt>
      <trkpt lat="49.21403" lon="-0.06904">
        <ele>14.8</ele>
        <time>2023-11-19T08:36:41Z</time>
      </trkpt>
      <trkpt lat="49.20325" lon="-0.06367">
        <ele>8.6</ele>
        <time>2023-11-19T08:39:03Z</time>
      </trkpt>
      <trkpt lat="49.20318" lon="-0.06364">
        <ele>8.5</ele>
        <time>2023-11-19T08:39:04Z</time>
      </trkpt>
      <trkpt lat="49.20312" lon="-0.06361">
        <ele>8.5</ele>
        <time>2023-11-19T08:39:05Z</time>
      </trkpt>
      <trkpt lat="49.20305" lon="-0.06358">
        <ele>8.4</ele>
        <time>2023-11-19T08:39:06Z</time>
      </trkpt>
      <trkpt lat="49.20298" lon="-0.06354">
        <ele>8.4</ele>
        <time>2023-11-19T08:39:07Z</time>
      </trkpt>
      <trkpt lat="49.20291" lon="-0.06351">
        <ele>8.4</ele>
        <time>2023-11-19T08:39:08Z</time>
      </trkpt>
      <trkpt lat="49.20285" lon="-0.06348">
        <ele>8.4</ele>
        <time>2023-11-19T08:39:09Z</time>
      </trkpt>
      <trkpt lat="49.20278" lon="-0.06345">
        <ele>8.4</ele>
        <time>2023-11-19T08:39:10Z</time>
      </trkpt>
      <trkpt lat="49.20271" lon="-0.06342">
        <ele>8.4</ele>
        <time>2023-11-19T08:39:11Z</time>
      </trkpt>
      <trkpt lat="49.20264" lon="-0.06339">
        <ele>8.3</ele>
        <time>2023-11-19T08:39:12Z</time>
      </trkpt>
      <trkpt lat="49.20257" lon="-0.06335">
        <ele>8.3</ele>
        <time>2023-11-19T08:39:13Z</time>
      </trkpt>
      <trkpt lat="49.2025" lon="-0.06332">
        <ele>8.3</ele>
        <time>2023-11-19T08:39:14Z</time>
      </trkpt>
      <trkpt lat="49.19207" lon="-0.07164">
        <ele>7.2</ele>
        <time>2023-11-19T08:42:05Z</time>
      </trkpt>
      <trkpt lat="49.19201" lon="-0.07171">
        <ele>7.2</ele>
        <time>2023-11-19T08:42:06Z</time>
      </trkpt>
      <trkpt lat="49.19194" lon="-0.07177">
        <ele>7.3</ele>
        <time>2023-11-19T08:42:07Z</time>
      </trkpt>
      <trkpt lat="49.19188" lon="-0.07184">
        <ele>7.4</ele>
        <time>2023-11-19T08:42:08Z</time>
      </trkpt>
      <trkpt lat="49.19182" lon="-0.0719">
        <ele>7.5</ele>
        <time>2023-11-19T08:42:09Z</time>
      </trkpt>
      <trkpt lat="49.19176" lon="-0.07197">
        <ele>7.6</ele>
        <time>2023-11-19T08:42:10Z</time>
      </trkpt>
      <trkpt lat="49.1917" lon="-0.07203">
        <ele>7.7</ele>
        <time>2023-11-19T08:42:11Z</time>
      </trkpt>
      <trkpt lat="49.19164" lon="-0.0721">
        <ele>7.7</ele>
        <time>2023-11-19T08:42:12Z</time>
      </trkpt>
      <trkpt lat="49.19158" lon="-0.07216">
        <ele>7.8</ele>
        <time>2023-11-19T08:42:13Z</time>
      </trkpt>
      <trkpt lat="49.19153" lon="-0.07222">
        <ele>7.8</ele>
        <time>2023-11-19T08:42:14Z</time>
      </trkpt>
      <trkpt lat="49.19146" lon="-0.07228">
        <ele>7.9</ele>
        <time>2023-11-19T08:42:15Z</time>
      </trkpt>
      <trkpt lat="49.1914" lon="-0.07234">
        <ele>7.9</ele>
        <time>2023-11-19T08:42:16Z</time>
      </trkpt>
      <trkpt lat="49.19134" lon="-0.0724">
        <ele>8</ele>
        <time>2023-11-19T08:42:17Z</time>
      </trkpt>
      <trkpt lat="49.19128" lon="-0.07247">
        <ele>8.1</ele>
        <time>2023-11-19T08:42:18Z</time>
      </trkpt>
      <trkpt lat="49.19122" lon="-0.07254">
        <ele>8.2</ele>
        <time>2023-11-19T08:42:19Z</time>
      </trkpt>
      <trkpt lat="49.19116" lon="-0.07261">
        <ele>8.3</ele>
        <time>2023-11-19T08:42:20Z</time>
      </trkpt>
      <trkpt lat="49.18514" lon="-0.08813">
        <ele>17.3</ele>
        <time>2023-11-19T08:45:02Z</time>
      </trkpt>
      <trkpt lat="49.18511" lon="-0.08824">
        <ele>17.3</ele>
        <time>2023-11-19T08:45:03Z</time>
      </trkpt>
      <trkpt lat="49.18509" lon="-0.08835">
        <ele>17.3</ele>
        <time>2023-11-19T08:45:04Z</time>
      </trkpt>
      <trkpt lat="49.18507" lon="-0.08847">
        <ele>17.3</ele>
        <time>2023-11-19T08:45:05Z</time>
      </trkpt>
      <trkpt lat="49.18505" lon="-0.08858">
        <ele>17.3</ele>
        <time>2023-11-19T08:45:06Z</time>
      </trkpt>
      <trkpt lat="49.18502" lon="-0.08869">
        <ele>17.3</ele>
        <time>2023-11-19T08:45:07Z</time>
      </trkpt>
      <trkpt lat="49.185" lon="-0.0888">
        <ele>17.3</ele>
        <time>2023-11-19T08:45:08Z</time>
      </trkpt>
      <trkpt lat="49.18497" lon="-0.0889">
        <ele>17.2</ele>
        <time>2023-11-19T08:45:09Z</time>
      </trkpt>
      <trkpt lat="49.18495" lon="-0.08901">
        <ele>17.2</ele>
        <time>2023-11-19T08:45:10Z</time>
      </trkpt>
      <trkpt lat="49.18402" lon="-0.09197">
        <ele>16</ele>
        <time>2023-11-19T08:47:47Z</time>
      </trkpt>
      <trkpt lat="49.18401" lon="-0.09195">
        <ele>16</ele>
        <time>2023-11-19T08:47:49Z</time>
      </trkpt>
      <trkpt lat="49.18401" lon="-0.09195">
        <ele>16</ele>
        <time>2023-11-19T08:47:50Z</time>
      </trkpt>
      <trkpt lat="49.184" lon="-0.09195">
        <ele>16</ele>
        <time>2023-11-19T08:47:51Z</time>
      </trkpt>
      <trkpt lat="49.184" lon="-0.09195">
        <ele>16</ele>
        <time>2023-11-19T08:47:52Z</time>
      </trkpt>
      <trkpt lat="49.184" lon="-0.09196">
        <ele>16</ele>
        <time>2023-11-19T08:47:53Z</time>
      </trkpt>
      <trkpt lat="49.18401" lon="-0.09196">
        <ele>16</ele>
        <time>2023-11-19T08:47:54Z</time>
      </trkpt>
      <trkpt lat="49.18401" lon="-0.09197">
        <ele>16</ele>
        <time>2023-11-19T08:47:55Z</time>
      </trkpt>
      <trkpt lat="49.18401" lon="-0.09197">
        <ele>16</ele>
        <time>2023-11-19T08:47:56Z</time>
      </trkpt>
      <trkpt lat="49.18401" lon="-0.09197">
        <ele>16</ele>
        <time>2023-11-19T08:47:57Z</time>
      </trkpt>
      <trkpt lat="49.18332" lon="-0.09703">
        <ele>15.6</ele>
        <time>2023-11-19T08:55:23Z</time>
      </trkpt>
      <trkpt lat="49.1833" lon="-0.09715">
        <ele>15.6</ele>
        <time>2023-11-19T08:55:24Z</time>
      </trkpt>
      <trkpt lat="49.17592" lon="-0.10996">
        <ele>6.4</ele>
        <time>2023-11-19T08:58:00Z</time>
      </trkpt>
      <trkpt lat="49.17588" lon="-0.11002">
        <ele>6.3</ele>
        <time>2023-11-19T08:58:01Z</time>
      </trkpt>
      <trkpt lat="49.17584" lon="-0.11009">
        <ele>6.2</ele>
        <time>2023-11-19T08:58:02Z</time>
      </trkpt>
      <trkpt lat="49.17579" lon="-0.11015">
        <ele>6.2</ele>
        <time>2023-11-19T08:58:03Z</time>
      </trkpt>
      <trkpt lat="49.17575" lon="-0.11022">
        <ele>6.1</ele>
        <time>2023-11-19T08:58:04Z</time>
      </trkpt>
      <trkpt lat="49.1757" lon="-0.11028">
        <ele>6</ele>
        <time>2023-11-19T08:58:05Z</time>
      </trkpt>
      <trkpt lat="49.17566" lon="-0.11035">
        <ele>5.9</ele>
        <time>2023-11-19T08:58:06Z</time>
      </trkpt>
      <trkpt lat="49.17562" lon="-0.11041">
        <ele>5.8</ele>
        <time>2023-11-19T08:58:07Z</time>
      </trkpt>
      <trkpt lat="49.17557" lon="-0.11048">
        <ele>5.7</ele>
        <time>2023-11-19T08:58:08Z</time>
      </trkpt>
      <trkpt lat="49.17553" lon="-0.11054">
        <ele>5.7</ele>
        <time>2023-11-19T08:58:09Z</time>
      </trkpt>
      <trkpt lat="49.17548" lon="-0.11061">
        <ele>5.6</ele>
        <time>2023-11-19T08:58:10Z</time>
      </trkpt>
      <trkpt lat="49.17544" lon="-0.11067">
        <ele>5.6</ele>
        <time>2023-11-19T08:58:11Z</time>
      </trkpt>
      <trkpt lat="49.17539" lon="-0.11072">
        <ele>5.6</ele>
        <time>2023-11-19T08:58:12Z</time>
      </trkpt>
      <trkpt lat="49.17534" lon="-0.11078">
        <ele>5.6</ele>
        <time>2023-11-19T08:58:13Z</time>
      </trkpt>
      <trkpt lat="49.17529" lon="-0.11083">
        <ele>5.6</ele>
        <time>2023-11-19T08:58:14Z</time>
      </trkpt>
      <trkpt lat="49.17523" lon="-0.11088">
        <ele>5.6</ele>
        <time>2023-11-19T08:58:15Z</time>
      </trkpt>
      <trkpt lat="49.17518" lon="-0.11092">
        <ele>5.6</ele>
        <time>2023-11-19T08:58:16Z</time>
      </trkpt>
      <trkpt lat="49.17513" lon="-0.11096">
        <ele>5.6</ele>
        <time>2023-11-19T08:58:17Z</time>
      </trkpt>
      <trkpt lat="49.17508" lon="-0.111">
        <ele>5.6</ele>
        <time>2023-11-19T08:58:18Z</time>
      </trkpt>
      <trkpt lat="49.17503" lon="-0.11103">
        <ele>5.6</ele>
        <time>2023-11-19T08:58:19Z</time>
      </trkpt>
      <trkpt lat="49.17498" lon="-0.11108">
        <ele>5.7</ele>
        <time>2023-11-19T08:58:20Z</time>
      </trkpt>
      <trkpt lat="49.17493" lon="-0.11112">
        <ele>5.7</ele>
        <time>2023-11-19T08:58:21Z</time>
      </trkpt>
      <trkpt lat="49.17488" lon="-0.11116">
        <ele>5.7</ele>
        <time>2023-11-19T08:58:22Z</time>
      </trkpt>
      <trkpt lat="49.17483" lon="-0.11119">
        <ele>5.7</ele>
        <time>2023-11-19T08:58:23Z</time>
      </trkpt>
      <trkpt lat="49.17478" lon="-0.11123">
        <ele>5.7</ele>
        <time>2023-11-19T08:58:24Z</time>
      </trkpt>
      <trkpt lat="49.17473" lon="-0.11127">
        <ele>5.7</ele>
        <time>2023-11-19T08:58:25Z</time>
      </trkpt>
      <trkpt lat="49.16656" lon="-0.10664">
        <ele>6.7</ele>
        <time>2023-11-19T09:01:02Z</time>
      </trkpt>
      <trkpt lat="49.16626" lon="-0.10671">
        <ele>6.5</ele>
        <time>2023-11-19T09:01:03Z</time>
      </trkpt>
      <trkpt lat="49.16618" lon="-0.10672">
        <ele>6.5</ele>
        <time>2023-11-19T09:01:04Z</time>
      </trkpt>
      <trkpt lat="49.16611" lon="-0.10673">
        <ele>6.5</ele>
        <time>2023-11-19T09:01:05Z</time>
      </trkpt>
      <trkpt lat="49.16603" lon="-0.10674">
        <ele>6.5</ele>
        <time>2023-11-19T09:01:06Z</time>
      </trkpt>
      <trkpt lat="49.16595" lon="-0.10675">
        <ele>6.5</ele>
        <time>2023-11-19T09:01:07Z</time>
      </trkpt>
      <trkpt lat="49.16587" lon="-0.10675">
        <ele>6.5</ele>
        <time>2023-11-19T09:01:08Z</time>
      </trkpt>
      <trkpt lat="49.1658" lon="-0.10674">
        <ele>6.5</ele>
        <time>2023-11-19T09:01:09Z</time>
      </trkpt>
      <trkpt lat="49.16567" lon="-0.10674">
        <ele>6.5</ele>
        <time>2023-11-19T09:01:10Z</time>
      </trkpt>
      <trkpt lat="49.16562" lon="-0.10673">
        <ele>6.5</ele>
        <time>2023-11-19T09:01:11Z</time>
      </trkpt>
      <trkpt lat="49.16557" lon="-0.10673">
        <ele>6.5</ele>
        <time>2023-11-19T09:01:12Z</time>
      </trkpt>
      <trkpt lat="49.16549" lon="-0.10673">
        <ele>6.5</ele>
        <time>2023-11-19T09:01:13Z</time>
      </trkpt>
      <trkpt lat="49.16542" lon="-0.10673">
        <ele>6.4</ele>
        <time>2023-11-19T09:01:14Z</time>
      </trkpt>
      <trkpt lat="49.16534" lon="-0.10674">
        <ele>6.4</ele>
        <time>2023-11-19T09:01:15Z</time>
      </trkpt>
      <trkpt lat="49.16527" lon="-0.10675">
        <ele>6.4</ele>
        <time>2023-11-19T09:01:16Z</time>
      </trkpt>
      <trkpt lat="49.16519" lon="-0.10676">
        <ele>6.4</ele>
        <time>2023-11-19T09:01:17Z</time>
      </trkpt>
      <trkpt lat="49.16512" lon="-0.10678">
        <ele>6.4</ele>
        <time>2023-11-19T09:01:18Z</time>
      </trkpt>
      <trkpt lat="49.16504" lon="-0.10679">
        <ele>6.4</ele>
        <time>2023-11-19T09:01:19Z</time>
      </trkpt>
      <trkpt lat="49.16496" lon="-0.1068">
        <ele>6.4</ele>
        <time>2023-11-19T09:01:20Z</time>
      </trkpt>
      <trkpt lat="49.16489" lon="-0.10681">
        <ele>6.4</ele>
        <time>2023-11-19T09:01:21Z</time>
      </trkpt>
      <trkpt lat="49.16481" lon="-0.10683">
        <ele>6.4</ele>
        <time>2023-11-19T09:01:22Z</time>
      </trkpt>
      <trkpt lat="49.16474" lon="-0.10684">
        <ele>6.4</ele>
        <time>2023-11-19T09:01:23Z</time>
      </trkpt>
      <trkpt lat="49.16466" lon="-0.10686">
        <ele>6.4</ele>
        <time>2023-11-19T09:01:24Z</time>
      </trkpt>
      <trkpt lat="49.16459" lon="-0.10687">
        <ele>6.4</ele>
        <time>2023-11-19T09:01:25Z</time>
      </trkpt>
      <trkpt lat="49.16452" lon="-0.10689">
        <ele>6.4</ele>
        <time>2023-11-19T09:01:26Z</time>
      </trkpt>
      <trkpt lat="49.16444" lon="-0.10691">
        <ele>6.5</ele>
        <time>2023-11-19T09:01:27Z</time>
      </trkpt>
      <trkpt lat="49.16437" lon="-0.10694">
        <ele>6.5</ele>
        <time>2023-11-19T09:01:28Z</time>
      </trkpt>
      <trkpt lat="49.16431" lon="-0.10697">
        <ele>6.6</ele>
        <time>2023-11-19T09:01:29Z</time>
      </trkpt>
      <trkpt lat="49.15647" lon="-0.11018">
        <ele>21</ele>
        <time>2023-11-19T09:04:10Z</time>
      </trkpt>
      <trkpt lat="49.15647" lon="-0.11014">
        <ele>21</ele>
        <time>2023-11-19T09:04:11Z</time>
      </trkpt>
      <trkpt lat="49.15648" lon="-0.11009">
        <ele>21</ele>
        <time>2023-11-19T09:04:12Z</time>
      </trkpt>
      <trkpt lat="49.15648" lon="-0.11005">
        <ele>21</ele>
        <time>2023-11-19T09:04:13Z</time>
      </trkpt>
      <trkpt lat="49.15649" lon="-0.11">
        <ele>21</ele>
        <time>2023-11-19T09:04:14Z</time>
      </trkpt>
      <trkpt lat="49.15649" lon="-0.10995">
        <ele>21</ele>
        <time>2023-11-19T09:04:15Z</time>
      </trkpt>
      <trkpt lat="49.1565" lon="-0.10991">
        <ele>21</ele>
        <time>2023-11-19T09:04:16Z</time>
      </trkpt>
      <trkpt lat="49.1565" lon="-0.10986">
        <ele>20.9</ele>
        <time>2023-11-19T09:04:17Z</time>
      </trkpt>
      <trkpt lat="49.1565" lon="-0.10982">
        <ele>20.9</ele>
        <time>2023-11-19T09:04:18Z</time>
      </trkpt>
      <trkpt lat="49.15651" lon="-0.10977">
        <ele>20.9</ele>
        <time>2023-11-19T09:04:19Z</time>
      </trkpt>
      <trkpt lat="49.15651" lon="-0.10972">
        <ele>20.9</ele>
        <time>2023-11-19T09:04:20Z</time>
      </trkpt>
      <trkpt lat="49.15674" lon="-0.10755">
        <ele>20</ele>
        <time>2023-11-19T09:04:41Z</time>
      </trkpt>
      <trkpt lat="49.15675" lon="-0.10745">
        <ele>19.9</ele>
        <time>2023-11-19T09:04:42Z</time>
      </trkpt>
      <trkpt lat="49.15675" lon="-0.10734">
        <ele>19.8</ele>
        <time>2023-11-19T09:04:43Z</time>
      </trkpt>
      <trkpt lat="49.15676" lon="-0.10724">
        <ele>19.7</ele>
        <time>2023-11-19T09:04:44Z</time>
      </trkpt>
      <trkpt lat="49.15676" lon="-0.10714">
        <ele>19.6</ele>
        <time>2023-11-19T09:04:45Z</time>
      </trkpt>
      <trkpt lat="49.15677" lon="-0.10704">
        <ele>19.5</ele>
        <time>2023-11-19T09:04:46Z</time>
      </trkpt>
      <trkpt lat="49.15677" lon="-0.10691">
        <ele>19.3</ele>
        <time>2023-11-19T09:04:47Z</time>
      </trkpt>
      <trkpt lat="49.15678" lon="-0.10677">
        <ele>19</ele>
        <time>2023-11-19T09:04:48Z</time>
      </trkpt>
      <trkpt lat="49.15678" lon="-0.10664">
        <ele>18.7</ele>
        <time>2023-11-19T09:04:49Z</time>
      </trkpt>
      <trkpt lat="49.15679" lon="-0.1065">
        <ele>18.4</ele>
        <time>2023-11-19T09:04:50Z</time>
      </trkpt>
      <trkpt lat="49.15232" lon="-0.09019">
        <ele>10.8</ele>
        <time>2023-11-19T09:07:26Z</time>
      </trkpt>
      <trkpt lat="49.15226" lon="-0.09014">
        <ele>10.8</ele>
        <time>2023-11-19T09:07:27Z</time>
      </trkpt>
      <trkpt lat="49.15219" lon="-0.09008">
        <ele>10.8</ele>
        <time>2023-11-19T09:07:28Z</time>
      </trkpt>
      <trkpt lat="49.15212" lon="-0.09003">
        <ele>10.8</ele>
        <time>2023-11-19T09:07:29Z</time>
      </trkpt>
      <trkpt lat="49.15206" lon="-0.08999">
        <ele>10.7</ele>
        <time>2023-11-19T09:07:30Z</time>
      </trkpt>
      <trkpt lat="49.15199" lon="-0.08994">
        <ele>10.7</ele>
        <time>2023-11-19T09:07:31Z</time>
      </trkpt>
      <trkpt lat="49.15192" lon="-0.08989">
        <ele>10.7</ele>
        <time>2023-11-19T09:07:32Z</time>
      </trkpt>
      <trkpt lat="49.15185" lon="-0.08985">
        <ele>10.7</ele>
        <time>2023-11-19T09:07:33Z</time>
      </trkpt>
      <trkpt lat="49.15178" lon="-0.0898">
        <ele>10.6</ele>
        <time>2023-11-19T09:07:34Z</time>
      </trkpt>
      <trkpt lat="49.15171" lon="-0.08976">
        <ele>10.6</ele>
        <time>2023-11-19T09:07:35Z</time>
      </trkpt>
      <trkpt lat="49.15164" lon="-0.08973">
        <ele>10.5</ele>
        <time>2023-11-19T09:07:36Z</time>
      </trkpt>
      <trkpt lat="49.14986" lon="-0.08904">
        <ele>12</ele>
        <time>2023-11-19T09:08:02Z</time>
      </trkpt>
      <trkpt lat="49.14974" lon="-0.08899">
        <ele>12.2</ele>
        <time>2023-11-19T09:08:03Z</time>
      </trkpt>
      <trkpt lat="49.14969" lon="-0.08898">
        <ele>12.3</ele>
        <time>2023-11-19T09:08:04Z</time>
      </trkpt>
      <trkpt lat="49.14965" lon="-0.08896">
        <ele>12.5</ele>
        <time>2023-11-19T09:08:05Z</time>
      </trkpt>
      <trkpt lat="49.1496" lon="-0.08895">
        <ele>12.6</ele>
        <time>2023-11-19T09:08:06Z</time>
      </trkpt>
      <trkpt lat="49.14942" lon="-0.08887">
        <ele>13.1</ele>
        <time>2023-11-19T09:08:09Z</time>
      </trkpt>
      <trkpt lat="49.14933" lon="-0.08883">
        <ele>13.3</ele>
        <time>2023-11-19T09:08:10Z</time>
      </trkpt>
      <trkpt lat="49.1493" lon="-0.08882">
        <ele>13.4</ele>
        <time>2023-11-19T09:08:11Z</time>
      </trkpt>
      <trkpt lat="49.14924" lon="-0.08879">
        <ele>13.5</ele>
        <time>2023-11-19T09:08:12Z</time>
      </trkpt>
      <trkpt lat="49.14919" lon="-0.08877">
        <ele>13.7</ele>
        <time>2023-11-19T09:08:13Z</time>
      </trkpt>
      <trkpt lat="49.14913" lon="-0.08875">
        <ele>13.8</ele>
        <time>2023-11-19T09:08:14Z</time>
      </trkpt>
      <trkpt lat="49.14908" lon="-0.08872">
        <ele>13.9</ele>
        <time>2023-11-19T09:08:15Z</time>
      </trkpt>
      <trkpt lat="49.14902" lon="-0.08869">
        <ele>13.9</ele>
        <time>2023-11-19T09:08:16Z</time>
      </trkpt>
      <trkpt lat="49.14896" lon="-0.08866">
        <ele>14</ele>
        <time>2023-11-19T09:08:17Z</time>
      </trkpt>
      <trkpt lat="49.1489" lon="-0.08863">
        <ele>14.1</ele>
        <time>2023-11-19T09:08:18Z</time>
      </trkpt>
      <trkpt lat="49.14884" lon="-0.0886">
        <ele>14.2</ele>
        <time>2023-11-19T09:08:19Z</time>
      </trkpt>
      <trkpt lat="49.14878" lon="-0.08856">
        <ele>14.3</ele>
        <time>2023-11-19T09:08:20Z</time>
      </trkpt>
      <trkpt lat="49.14872" lon="-0.08853">
        <ele>14.3</ele>
        <time>2023-11-19T09:08:21Z</time>
      </trkpt>
      <trkpt lat="49.13905" lon="-0.09278">
        <ele>27.9</ele>
        <time>2023-11-19T09:11:05Z</time>
      </trkpt>
      <trkpt lat="49.13899" lon="-0.09282">
        <ele>27.9</ele>
        <time>2023-11-19T09:11:06Z</time>
      </trkpt>
      <trkpt lat="49.13894" lon="-0.09286">
        <ele>27.9</ele>
        <time>2023-11-19T09:11:07Z</time>
      </trkpt>
      <trkpt lat="49.13888" lon="-0.09291">
        <ele>27.9</ele>
        <time>2023-11-19T09:11:08Z</time>
      </trkpt>
      <trkpt lat="49.13881" lon="-0.09294">
        <ele>27.8</ele>
        <time>2023-11-19T09:11:09Z</time>
      </trkpt>
      <trkpt lat="49.13874" lon="-0.09298">
        <ele>27.8</ele>
        <time>2023-11-19T09:11:10Z</time>
      </trkpt>
      <trkpt lat="49.13868" lon="-0.09302">
        <ele>27.8</ele>
        <time>2023-11-19T09:11:11Z</time>
      </trkpt>
      <trkpt lat="49.13861" lon="-0.09306">
        <ele>27.8</ele>
        <time>2023-11-19T09:11:12Z</time>
      </trkpt>
      <trkpt lat="49.1295" lon="-0.10154">
        <ele>31.2</ele>
        <time>2023-11-19T09:13:56Z</time>
      </trkpt>
      <trkpt lat="49.12943" lon="-0.10159">
        <ele>31.3</ele>
        <time>2023-11-19T09:13:57Z</time>
      </trkpt>
      <trkpt lat="49.12937" lon="-0.10163">
        <ele>31.4</ele>
        <time>2023-11-19T09:13:58Z</time>
      </trkpt>
      <trkpt lat="49.12931" lon="-0.10168">
        <ele>31.6</ele>
        <time>2023-11-19T09:13:59Z</time>
      </trkpt>
      <trkpt lat="49.12924" lon="-0.10173">
        <ele>31.7</ele>
        <time>2023-11-19T09:14:00Z</time>
      </trkpt>
      <trkpt lat="49.12918" lon="-0.10178">
        <ele>31.9</ele>
        <time>2023-11-19T09:14:01Z</time>
      </trkpt>
      <trkpt lat="49.12911" lon="-0.10183">
        <ele>32.1</ele>
        <time>2023-11-19T09:14:02Z</time>
      </trkpt>
      <trkpt lat="49.12905" lon="-0.10187">
        <ele>32.2</ele>
        <time>2023-11-19T09:14:03Z</time>
      </trkpt>
      <trkpt lat="49.12899" lon="-0.10192">
        <ele>32.3</ele>
        <time>2023-11-19T09:14:04Z</time>
      </trkpt>
      <trkpt lat="49.12893" lon="-0.10197">
        <ele>32.5</ele>
        <time>2023-11-19T09:14:05Z</time>
      </trkpt>
      <trkpt lat="49.12886" lon="-0.10202">
        <ele>32.6</ele>
        <time>2023-11-19T09:14:06Z</time>
      </trkpt>
      <trkpt lat="49.1201" lon="-0.10201">
        <ele>14.2</ele>
        <time>2023-11-19T09:16:45Z</time>
      </trkpt>
      <trkpt lat="49.12011" lon="-0.10182">
        <ele>14</ele>
        <time>2023-11-19T09:16:46Z</time>
      </trkpt>
      <trkpt lat="49.12012" lon="-0.10174">
        <ele>14</ele>
        <time>2023-11-19T09:16:47Z</time>
      </trkpt>
      <trkpt lat="49.12012" lon="-0.10166">
        <ele>13.9</ele>
        <time>2023-11-19T09:16:48Z</time>
      </trkpt>
      <trkpt lat="49.12013" lon="-0.10159">
        <ele>13.9</ele>
        <time>2023-11-19T09:16:49Z</time>
      </trkpt>
      <trkpt lat="49.12013" lon="-0.10151">
        <ele>13.8</ele>
        <time>2023-11-19T09:16:50Z</time>
      </trkpt>
      <trkpt lat="49.12014" lon="-0.10144">
        <ele>13.8</ele>
        <time>2023-11-19T09:16:51Z</time>
      </trkpt>
      <trkpt lat="49.12014" lon="-0.10136">
        <ele>13.8</ele>
        <time>2023-11-19T09:16:52Z</time>
      </trkpt>
      <trkpt lat="49.12014" lon="-0.10128">
        <ele>13.8</ele>
        <time>2023-11-19T09:16:53Z</time>
      </trkpt>
      <trkpt lat="49.12015" lon="-0.10121">
        <ele>13.7</ele>
        <time>2023-11-19T09:16:54Z</time>
      </trkpt>
      <trkpt lat="49.12015" lon="-0.10113">
        <ele>13.7</ele>
        <time>2023-11-19T09:16:55Z</time>
      </trkpt>
      <trkpt lat="49.12014" lon="-0.10109">
        <ele>13.7</ele>
        <time>2023-11-19T09:16:56Z</time>
      </trkpt>
      <trkpt lat="49.12011" lon="-0.10106">
        <ele>13.7</ele>
        <time>2023-11-19T09:16:57Z</time>
      </trkpt>
      <trkpt lat="49.12011" lon="-0.10105">
        <ele>13.7</ele>
        <time>2023-11-19T09:16:58Z</time>
      </trkpt>
      <trkpt lat="49.12009" lon="-0.10111">
        <ele>13.7</ele>
        <time>2023-11-19T09:16:59Z</time>
      </trkpt>
      <trkpt lat="49.12009" lon="-0.10114">
        <ele>13.7</ele>
        <time>2023-11-19T09:17:00Z</time>
      </trkpt>
      <trkpt lat="49.11108" lon="-0.10913">
        <ele>18.7</ele>
        <time>2023-11-19T09:19:47Z</time>
      </trkpt>
      <trkpt lat="49.11103" lon="-0.10917">
        <ele>19</ele>
        <time>2023-11-19T09:19:49Z</time>
      </trkpt>
      <trkpt lat="49.11098" lon="-0.10921">
        <ele>19.2</ele>
        <time>2023-11-19T09:19:50Z</time>
      </trkpt>
      <trkpt lat="49.11093" lon="-0.10925">
        <ele>19.5</ele>
        <time>2023-11-19T09:19:51Z</time>
      </trkpt>
      <trkpt lat="49.11088" lon="-0.10929">
        <ele>19.8</ele>
        <time>2023-11-19T09:19:52Z</time>
      </trkpt>
      <trkpt lat="49.11083" lon="-0.10933">
        <ele>20</ele>
        <time>2023-11-19T09:19:53Z</time>
      </trkpt>
      <trkpt lat="49.11078" lon="-0.10937">
        <ele>20.3</ele>
        <time>2023-11-19T09:19:54Z</time>
      </trkpt>
      <trkpt lat="49.11073" lon="-0.10941">
        <ele>20.5</ele>
        <time>2023-11-19T09:19:55Z</time>
      </trkpt>
      <trkpt lat="49.11068" lon="-0.10945">
        <ele>20.7</ele>
        <time>2023-11-19T09:19:56Z</time>
      </trkpt>
      <trkpt lat="49.11063" lon="-0.10949">
        <ele>20.8</ele>
        <time>2023-11-19T09:19:57Z</time>
      </trkpt>
      <trkpt lat="49.11058" lon="-0.10953">
        <ele>21</ele>
        <time>2023-11-19T09:19:58Z</time>
      </trkpt>
      <trkpt lat="49.11053" lon="-0.10957">
        <ele>21.1</ele>
        <time>2023-11-19T09:19:59Z</time>
      </trkpt>
      <trkpt lat="49.11047" lon="-0.1096">
        <ele>21.2</ele>
        <time>2023-11-19T09:20:00Z</time>
      </trkpt>
      <trkpt lat="49.11041" lon="-0.10963">
        <ele>21.2</ele>
        <time>2023-11-19T09:20:01Z</time>
      </trkpt>
      <trkpt lat="49.11035" lon="-0.10966">
        <ele>21.3</ele>
        <time>2023-11-19T09:20:02Z</time>
      </trkpt>
      <trkpt lat="49.11029" lon="-0.1097">
        <ele>21.3</ele>
        <time>2023-11-19T09:20:03Z</time>
      </trkpt>
      <trkpt lat="49.11024" lon="-0.10974">
        <ele>21.3</ele>
        <time>2023-11-19T09:20:04Z</time>
      </trkpt>
      <trkpt lat="49.11018" lon="-0.10979">
        <ele>21.4</ele>
        <time>2023-11-19T09:20:05Z</time>
      </trkpt>
      <trkpt lat="49.11013" lon="-0.10983">
        <ele>21.4</ele>
        <time>2023-11-19T09:20:06Z</time>
      </trkpt>
      <trkpt lat="49.11008" lon="-0.10988">
        <ele>21.5</ele>
        <time>2023-11-19T09:20:07Z</time>
      </trkpt>
      <trkpt lat="49.11002" lon="-0.10994">
        <ele>21.5</ele>
        <time>2023-11-19T09:20:08Z</time>
      </trkpt>
      <trkpt lat="49.10914" lon="-0.11132">
        <ele>24.1</ele>
        <time>2023-11-19T09:20:28Z</time>
      </trkpt>
      <trkpt lat="49.10911" lon="-0.11138">
        <ele>24.2</ele>
        <time>2023-11-19T09:20:29Z</time>
      </trkpt>
      <trkpt lat="49.10908" lon="-0.11144">
        <ele>24.3</ele>
        <time>2023-11-19T09:20:30Z</time>
      </trkpt>
      <trkpt lat="49.10905" lon="-0.1115">
        <ele>24.3</ele>
        <time>2023-11-19T09:20:31Z</time>
      </trkpt>
      <trkpt lat="49.10902" lon="-0.11156">
        <ele>24.3</ele>
        <time>2023-11-19T09:20:32Z</time>
      </trkpt>
      <trkpt lat="49.10898" lon="-0.11163">
        <ele>24.3</ele>
        <time>2023-11-19T09:20:33Z</time>
      </trkpt>
      <trkpt lat="49.10894" lon="-0.1117">
        <ele>24.4</ele>
        <time>2023-11-19T09:20:34Z</time>
      </trkpt>
      <trkpt lat="49.1089" lon="-0.11177">
        <ele>24.5</ele>
        <time>2023-11-19T09:20:35Z</time>
      </trkpt>
      <trkpt lat="49.10886" lon="-0.11184">
        <ele>24.5</ele>
        <time>2023-11-19T09:20:36Z</time>
      </trkpt>
      <trkpt lat="49.10882" lon="-0.11191">
        <ele>24.5</ele>
        <time>2023-11-19T09:20:37Z</time>
      </trkpt>
      <trkpt lat="49.10877" lon="-0.11198">
        <ele>24.5</ele>
        <time>2023-11-19T09:20:38Z</time>
      </trkpt>
      <trkpt lat="49.10873" lon="-0.11205">
        <ele>24.5</ele>
        <time>2023-11-19T09:20:39Z</time>
      </trkpt>
      <trkpt lat="49.09785" lon="-0.11526">
        <ele>21.2</ele>
        <time>2023-11-19T09:23:22Z</time>
      </trkpt>
      <trkpt lat="49.0978" lon="-0.11531">
        <ele>21.5</ele>
        <time>2023-11-19T09:23:23Z</time>
      </trkpt>
      <trkpt lat="49.09776" lon="-0.11536">
        <ele>21.7</ele>
        <time>2023-11-19T09:23:24Z</time>
      </trkpt>
      <trkpt lat="49.09771" lon="-0.11541">
        <ele>22</ele>
        <time>2023-11-19T09:23:25Z</time>
      </trkpt>
      <trkpt lat="49.09767" lon="-0.11546">
        <ele>22.2</ele>
        <time>2023-11-19T09:23:26Z</time>
      </trkpt>
      <trkpt lat="49.09763" lon="-0.11551">
        <ele>22.5</ele>
        <time>2023-11-19T09:23:27Z</time>
      </trkpt>
      <trkpt lat="49.09759" lon="-0.11557">
        <ele>22.7</ele>
        <time>2023-11-19T09:23:28Z</time>
      </trkpt>
      <trkpt lat="49.08977" lon="-0.12239">
        <ele>25.5</ele>
        <time>2023-11-19T09:26:14Z</time>
      </trkpt>
      <trkpt lat="49.08979" lon="-0.12245">
        <ele>25.6</ele>
        <time>2023-11-19T09:26:15Z</time>
      </trkpt>
      <trkpt lat="49.0898" lon="-0.12252">
        <ele>25.6</ele>
        <time>2023-11-19T09:26:16Z</time>
      </trkpt>
      <trkpt lat="49.08982" lon="-0.12258">
        <ele>25.7</ele>
        <time>2023-11-19T09:26:17Z</time>
      </trkpt>
      <trkpt lat="49.09373" lon="-0.13598">
        <ele>36.8</ele>
        <time>2023-11-19T09:29:00Z</time>
      </trkpt>
      <trkpt lat="49.09379" lon="-0.13615">
        <ele>37</ele>
        <time>2023-11-19T09:29:01Z</time>
      </trkpt>
      <trkpt lat="49.09382" lon="-0.13623">
        <ele>37.1</ele>
        <time>2023-11-19T09:29:02Z</time>
      </trkpt>
      <trkpt lat="49.09385" lon="-0.13631">
        <ele>37.2</ele>
        <time>2023-11-19T09:29:03Z</time>
      </trkpt>
      <trkpt lat="49.09387" lon="-0.1364">
        <ele>37.4</ele>
        <time>2023-11-19T09:29:04Z</time>
      </trkpt>
      <trkpt lat="49.0939" lon="-0.13648">
        <ele>37.5</ele>
        <time>2023-11-19T09:29:05Z</time>
      </trkpt>
      <trkpt lat="49.09393" lon="-0.13656">
        <ele>37.6</ele>
        <time>2023-11-19T09:29:06Z</time>
      </trkpt>
      <trkpt lat="49.09396" lon="-0.13664">
        <ele>37.7</ele>
        <time>2023-11-19T09:29:07Z</time>
      </trkpt>
      <trkpt lat="49.09399" lon="-0.13672">
        <ele>37.8</ele>
        <time>2023-11-19T09:29:08Z</time>
      </trkpt>
      <trkpt lat="49.09401" lon="-0.1368">
        <ele>38</ele>
        <time>2023-11-19T09:29:09Z</time>
      </trkpt>
      <trkpt lat="49.09404" lon="-0.13688">
        <ele>38.1</ele>
        <time>2023-11-19T09:29:10Z</time>
      </trkpt>
      <trkpt lat="49.09407" lon="-0.13697">
        <ele>38.2</ele>
        <time>2023-11-19T09:29:11Z</time>
      </trkpt>
      <trkpt lat="49.0941" lon="-0.13705">
        <ele>38.3</ele>
        <time>2023-11-19T09:29:12Z</time>
      </trkpt>
      <trkpt lat="49.09414" lon="-0.13713">
        <ele>38.4</ele>
        <time>2023-11-19T09:29:13Z</time>
      </trkpt>
      <trkpt lat="49.09417" lon="-0.13721">
        <ele>38.5</ele>
        <time>2023-11-19T09:29:14Z</time>
      </trkpt>
      <trkpt lat="49.0942" lon="-0.1373">
        <ele>38.6</ele>
        <time>2023-11-19T09:29:15Z</time>
      </trkpt>
      <trkpt lat="49.09424" lon="-0.13738">
        <ele>38.7</ele>
        <time>2023-11-19T09:29:16Z</time>
      </trkpt>
      <trkpt lat="49.09427" lon="-0.13746">
        <ele>38.8</ele>
        <time>2023-11-19T09:29:17Z</time>
      </trkpt>
      <trkpt lat="49.09431" lon="-0.13754">
        <ele>38.8</ele>
        <time>2023-11-19T09:29:18Z</time>
      </trkpt>
      <trkpt lat="49.09435" lon="-0.13761">
        <ele>38.9</ele>
        <time>2023-11-19T09:29:19Z</time>
      </trkpt>
      <trkpt lat="49.0944" lon="-0.13769">
        <ele>39</ele>
        <time>2023-11-19T09:29:20Z</time>
      </trkpt>
      <trkpt lat="49.09444" lon="-0.13776">
        <ele>39</ele>
        <time>2023-11-19T09:29:21Z</time>
      </trkpt>
      <trkpt lat="49.09449" lon="-0.13782">
        <ele>39.1</ele>
        <time>2023-11-19T09:29:22Z</time>
      </trkpt>
      <trkpt lat="49.10123" lon="-0.15358">
        <ele>28.5</ele>
        <time>2023-11-19T09:32:10Z</time>
      </trkpt>
      <trkpt lat="49.10123" lon="-0.15361">
        <ele>28.5</ele>
        <time>2023-11-19T09:32:11Z</time>
      </trkpt>
      <trkpt lat="49.10123" lon="-0.15364">
        <ele>28.5</ele>
        <time>2023-11-19T09:32:12Z</time>
      </trkpt>
      <trkpt lat="49.09324" lon="-0.16038">
        <ele>31.1</ele>
        <time>2023-11-19T09:34:51Z</time>
      </trkpt>
      <trkpt lat="49.09317" lon="-0.16047">
        <ele>31.1</ele>
        <time>2023-11-19T09:34:52Z</time>
      </trkpt>
      <trkpt lat="49.0931" lon="-0.16055">
        <ele>31</ele>
        <time>2023-11-19T09:34:53Z</time>
      </trkpt>
      <trkpt lat="49.09303" lon="-0.16063">
        <ele>31</ele>
        <time>2023-11-19T09:34:54Z</time>
      </trkpt>
      <trkpt lat="49.09296" lon="-0.16072">
        <ele>31</ele>
        <time>2023-11-19T09:34:55Z</time>
      </trkpt>
      <trkpt lat="49.09289" lon="-0.1608">
        <ele>31</ele>
        <time>2023-11-19T09:34:56Z</time>
      </trkpt>
      <trkpt lat="49.09282" lon="-0.16088">
        <ele>31</ele>
        <time>2023-11-19T09:34:57Z</time>
      </trkpt>
      <trkpt lat="49.09275" lon="-0.16096">
        <ele>31</ele>
        <time>2023-11-19T09:34:58Z</time>
      </trkpt>
      <trkpt lat="49.09268" lon="-0.16102">
        <ele>31</ele>
        <time>2023-11-19T09:34:59Z</time>
      </trkpt>
      <trkpt lat="49.08986" lon="-0.1629">
        <ele>32.1</ele>
        <time>2023-11-19T09:35:40Z</time>
      </trkpt>
      <trkpt lat="49.08973" lon="-0.16297">
        <ele>32.1</ele>
        <time>2023-11-19T09:35:41Z</time>
      </trkpt>
      <trkpt lat="49.08968" lon="-0.16301">
        <ele>32</ele>
        <time>2023-11-19T09:35:42Z</time>
      </trkpt>
      <trkpt lat="49.08963" lon="-0.16304">
        <ele>32</ele>
        <time>2023-11-19T09:35:43Z</time>
      </trkpt>
      <trkpt lat="49.08957" lon="-0.16307">
        <ele>32</ele>
        <time>2023-11-19T09:35:44Z</time>
      </trkpt>
      <trkpt lat="49.08952" lon="-0.16311">
        <ele>32</ele>
        <time>2023-11-19T09:35:45Z</time>
      </trkpt>
      <trkpt lat="49.08947" lon="-0.16314">
        <ele>32</ele>
        <time>2023-11-19T09:35:46Z</time>
      </trkpt>
      <trkpt lat="49.08941" lon="-0.16319">
        <ele>32</ele>
        <time>2023-11-19T09:35:47Z</time>
      </trkpt>
      <trkpt lat="49.08935" lon="-0.16324">
        <ele>32</ele>
        <time>2023-11-19T09:35:48Z</time>
      </trkpt>
      <trkpt lat="49.08929" lon="-0.16329">
        <ele>32</ele>
        <time>2023-11-19T09:35:49Z</time>
      </trkpt>
      <trkpt lat="49.08923" lon="-0.16334">
        <ele>32</ele>
        <time>2023-11-19T09:35:50Z</time>
      </trkpt>
      <trkpt lat="49.08917" lon="-0.1634">
        <ele>32</ele>
        <time>2023-11-19T09:35:51Z</time>
      </trkpt>
      <trkpt lat="49.08911" lon="-0.16345">
        <ele>32.1</ele>
        <time>2023-11-19T09:35:52Z</time>
      </trkpt>
      <trkpt lat="49.08905" lon="-0.16349">
        <ele>32.1</ele>
        <time>2023-11-19T09:35:53Z</time>
      </trkpt>
      <trkpt lat="49.089" lon="-0.16353">
        <ele>32.1</ele>
        <time>2023-11-19T09:35:54Z</time>
      </trkpt>
      <trkpt lat="49.08895" lon="-0.16357">
        <ele>32.1</ele>
        <time>2023-11-19T09:35:55Z</time>
      </trkpt>
      <trkpt lat="49.0889" lon="-0.16361">
        <ele>32.1</ele>
        <time>2023-11-19T09:35:56Z</time>
      </trkpt>
      <trkpt lat="49.08885" lon="-0.16364">
        <ele>32</ele>
        <time>2023-11-19T09:35:57Z</time>
      </trkpt>
      <trkpt lat="49.08879" lon="-0.16367">
        <ele>32</ele>
        <time>2023-11-19T09:35:58Z</time>
      </trkpt>
      <trkpt lat="49.08874" lon="-0.1637">
        <ele>31.9</ele>
        <time>2023-11-19T09:35:59Z</time>
      </trkpt>
      <trkpt lat="49.07858" lon="-0.16969">
        <ele>33.1</ele>
        <time>2023-11-19T09:38:37Z</time>
      </trkpt>
      <trkpt lat="49.07852" lon="-0.16975">
        <ele>33.1</ele>
        <time>2023-11-19T09:38:38Z</time>
      </trkpt>
      <trkpt lat="49.07847" lon="-0.16981">
        <ele>33</ele>
        <time>2023-11-19T09:38:39Z</time>
      </trkpt>
      <trkpt lat="49.07841" lon="-0.16987">
        <ele>33</ele>
        <time>2023-11-19T09:38:40Z</time>
      </trkpt>
      <trkpt lat="49.07835" lon="-0.16993">
        <ele>33</ele>
        <time>2023-11-19T09:38:41Z</time>
      </trkpt>
      <trkpt lat="49.07829" lon="-0.16999">
        <ele>33</ele>
        <time>2023-11-19T09:38:42Z</time>
      </trkpt>
      <trkpt lat="49.07823" lon="-0.17005">
        <ele>32.9</ele>
        <time>2023-11-19T09:38:43Z</time>
      </trkpt>
      <trkpt lat="49.07817" lon="-0.1701">
        <ele>32.9</ele>
        <time>2023-11-19T09:38:44Z</time>
      </trkpt>
      <trkpt lat="49.0781" lon="-0.17015">
        <ele>32.9</ele>
        <time>2023-11-19T09:38:45Z</time>
      </trkpt>
      <trkpt lat="49.07804" lon="-0.17021">
        <ele>32.9</ele>
        <time>2023-11-19T09:38:46Z</time>
      </trkpt>
      <trkpt lat="49.07798" lon="-0.17026">
        <ele>32.9</ele>
        <time>2023-11-19T09:38:47Z</time>
      </trkpt>
      <trkpt lat="49.07024" lon="-0.18051">
        <ele>42.1</ele>
        <time>2023-11-19T09:41:29Z</time>
      </trkpt>
      <trkpt lat="49.0702" lon="-0.1806">
        <ele>42.1</ele>
        <time>2023-11-19T09:41:30Z</time>
      </trkpt>
      <trkpt lat="49.07017" lon="-0.18068">
        <ele>42</ele>
        <time>2023-11-19T09:41:31Z</time>
      </trkpt>
      <trkpt lat="49.07013" lon="-0.18077">
        <ele>42</ele>
        <time>2023-11-19T09:41:32Z</time>
      </trkpt>
      <trkpt lat="49.0701" lon="-0.18087">
        <ele>41.9</ele>
        <time>2023-11-19T09:41:33Z</time>
      </trkpt>
      <trkpt lat="49.07007" lon="-0.18097">
        <ele>41.9</ele>
        <time>2023-11-19T09:41:34Z</time>
      </trkpt>
      <trkpt lat="49.07005" lon="-0.18107">
        <ele>41.8</ele>
        <time>2023-11-19T09:41:35Z</time>
      </trkpt>
      <trkpt lat="49.07003" lon="-0.18117">
        <ele>41.7</ele>
        <time>2023-11-19T09:41:36Z</time>
      </trkpt>
      <trkpt lat="49.07" lon="-0.19619">
        <ele>36.3</ele>
        <time>2023-11-19T09:44:19Z</time>
      </trkpt>
      <trkpt lat="49.07007" lon="-0.19628">
        <ele>36.4</ele>
        <time>2023-11-19T09:44:20Z</time>
      </trkpt>
      <trkpt lat="49.07013" lon="-0.19638">
        <ele>36.5</ele>
        <time>2023-11-19T09:44:21Z</time>
      </trkpt>
      <trkpt lat="49.07019" lon="-0.19648">
        <ele>36.6</ele>
        <time>2023-11-19T09:44:22Z</time>
      </trkpt>
      <trkpt lat="49.07025" lon="-0.1966">
        <ele>36.8</ele>
        <time>2023-11-19T09:44:23Z</time>
      </trkpt>
      <trkpt lat="49.07029" lon="-0.19672">
        <ele>36.9</ele>
        <time>2023-11-19T09:44:24Z</time>
      </trkpt>
      <trkpt lat="49.07033" lon="-0.19685">
        <ele>37</ele>
        <time>2023-11-19T09:44:25Z</time>
      </trkpt>
      <trkpt lat="49.07036" lon="-0.19697">
        <ele>37.1</ele>
        <time>2023-11-19T09:44:26Z</time>
      </trkpt>
      <trkpt lat="49.07038" lon="-0.19709">
        <ele>37.1</ele>
        <time>2023-11-19T09:44:27Z</time>
      </trkpt>
      <trkpt lat="49.07041" lon="-0.19719">
        <ele>37.1</ele>
        <time>2023-11-19T09:44:28Z</time>
      </trkpt>
      <trkpt lat="49.07045" lon="-0.19729">
        <ele>37.1</ele>
        <time>2023-11-19T09:44:29Z</time>
      </trkpt>
      <trkpt lat="49.07048" lon="-0.1974">
        <ele>37</ele>
        <time>2023-11-19T09:44:30Z</time>
      </trkpt>
      <trkpt lat="49.07051" lon="-0.19751">
        <ele>37</ele>
        <time>2023-11-19T09:44:31Z</time>
      </trkpt>
      <trkpt lat="49.07055" lon="-0.19762">
        <ele>37</ele>
        <time>2023-11-19T09:44:32Z</time>
      </trkpt>
      <trkpt lat="49.07059" lon="-0.19771">
        <ele>37</ele>
        <time>2023-11-19T09:44:33Z</time>
      </trkpt>
      <trkpt lat="49.07063" lon="-0.19779">
        <ele>37</ele>
        <time>2023-11-19T09:44:34Z</time>
      </trkpt>
      <trkpt lat="49.07069" lon="-0.19786">
        <ele>37</ele>
        <time>2023-11-19T09:44:35Z</time>
      </trkpt>
      <trkpt lat="49.07076" lon="-0.19791">
        <ele>37</ele>
        <time>2023-11-19T09:44:36Z</time>
      </trkpt>
      <trkpt lat="49.07083" lon="-0.19795">
        <ele>37</ele>
        <time>2023-11-19T09:44:37Z</time>
      </trkpt>
      <trkpt lat="49.0709" lon="-0.19798">
        <ele>37</ele>
        <time>2023-11-19T09:44:38Z</time>
      </trkpt>
      <trkpt lat="49.07096" lon="-0.19801">
        <ele>37</ele>
        <time>2023-11-19T09:44:39Z</time>
      </trkpt>
      <trkpt lat="49.07103" lon="-0.19803">
        <ele>37</ele>
        <time>2023-11-19T09:44:40Z</time>
      </trkpt>
      <trkpt lat="49.0711" lon="-0.19805">
        <ele>37</ele>
        <time>2023-11-19T09:44:41Z</time>
      </trkpt>
      <trkpt lat="49.07118" lon="-0.19807">
        <ele>37</ele>
        <time>2023-11-19T09:44:42Z</time>
      </trkpt>
      <trkpt lat="49.07588" lon="-0.20902">
        <ele>55.1</ele>
        <time>2023-11-19T09:47:21Z</time>
      </trkpt>
      <trkpt lat="49.07591" lon="-0.2091">
        <ele>55.2</ele>
        <time>2023-11-19T09:47:22Z</time>
      </trkpt>
      <trkpt lat="49.07595" lon="-0.20918">
        <ele>55.2</ele>
        <time>2023-11-19T09:47:23Z</time>
      </trkpt>
      <trkpt lat="49.07598" lon="-0.20926">
        <ele>55.2</ele>
        <time>2023-11-19T09:47:24Z</time>
      </trkpt>
      <trkpt lat="49.07601" lon="-0.20934">
        <ele>55.2</ele>
        <time>2023-11-19T09:47:25Z</time>
      </trkpt>
      <trkpt lat="49.07605" lon="-0.20942">
        <ele>55.2</ele>
        <time>2023-11-19T09:47:26Z</time>
      </trkpt>
      <trkpt lat="49.07609" lon="-0.20949">
        <ele>55.2</ele>
        <time>2023-11-19T09:47:27Z</time>
      </trkpt>
      <trkpt lat="49.07612" lon="-0.20957">
        <ele>55.2</ele>
        <time>2023-11-19T09:47:28Z</time>
      </trkpt>
      <trkpt lat="49.07616" lon="-0.20965">
        <ele>55.2</ele>
        <time>2023-11-19T09:47:29Z</time>
      </trkpt>
      <trkpt lat="49.08332" lon="-0.21982">
        <ele>43.9</ele>
        <time>2023-11-19T09:50:05Z</time>
      </trkpt>
      <trkpt lat="49.08336" lon="-0.21977">
        <ele>43.8</ele>
        <time>2023-11-19T09:50:06Z</time>
      </trkpt>
      <trkpt lat="49.0834" lon="-0.2197">
        <ele>43.8</ele>
        <time>2023-11-19T09:50:07Z</time>
      </trkpt>
      <trkpt lat="49.08344" lon="-0.21964">
        <ele>43.7</ele>
        <time>2023-11-19T09:50:08Z</time>
      </trkpt>
      <trkpt lat="49.08349" lon="-0.21957">
        <ele>43.7</ele>
        <time>2023-11-19T09:50:09Z</time>
      </trkpt>
      <trkpt lat="49.08353" lon="-0.2195">
        <ele>43.6</ele>
        <time>2023-11-19T09:50:10Z</time>
      </trkpt>
      <trkpt lat="49.08358" lon="-0.21943">
        <ele>43.5</ele>
        <time>2023-11-19T09:50:11Z</time>
      </trkpt>
      <trkpt lat="49.08363" lon="-0.21936">
        <ele>43.5</ele>
        <time>2023-11-19T09:50:12Z</time>
      </trkpt>
      <trkpt lat="49.08367" lon="-0.21929">
        <ele>43.5</ele>
        <time>2023-11-19T09:50:13Z</time>
      </trkpt>
      <trkpt lat="49.08372" lon="-0.21922">
        <ele>43.4</ele>
        <time>2023-11-19T09:50:14Z</time>
      </trkpt>
      <trkpt lat="49.08791" lon="-0.2153">
        <ele>35.5</ele>
        <time>2023-11-19T09:51:16Z</time>
      </trkpt>
      <trkpt lat="49.08805" lon="-0.2152">
        <ele>35.3</ele>
        <time>2023-11-19T09:51:17Z</time>
      </trkpt>
      <trkpt lat="49.08813" lon="-0.21515">
        <ele>35.2</ele>
        <time>2023-11-19T09:51:18Z</time>
      </trkpt>
      <trkpt lat="49.0882" lon="-0.2151">
        <ele>35.1</ele>
        <time>2023-11-19T09:51:19Z</time>
      </trkpt>
      <trkpt lat="49.08828" lon="-0.21505">
        <ele>35.1</ele>
        <time>2023-11-19T09:51:20Z</time>
      </trkpt>
      <trkpt lat="49.08835" lon="-0.215">
        <ele>35</ele>
        <time>2023-11-19T09:51:21Z</time>
      </trkpt>
      <trkpt lat="49.08843" lon="-0.21495">
        <ele>34.9</ele>
        <time>2023-11-19T09:51:22Z</time>
      </trkpt>
      <trkpt lat="49.0885" lon="-0.2149">
        <ele>34.9</ele>
        <time>2023-11-19T09:51:23Z</time>
      </trkpt>
      <trkpt lat="49.0886" lon="-0.21484">
        <ele>34.9</ele>
        <time>2023-11-19T09:51:24Z</time>
      </trkpt>
      <trkpt lat="49.0887" lon="-0.21477">
        <ele>34.8</ele>
        <time>2023-11-19T09:51:25Z</time>
      </trkpt>
      <trkpt lat="49.08878" lon="-0.21472">
        <ele>34.8</ele>
        <time>2023-11-19T09:51:26Z</time>
      </trkpt>
      <trkpt lat="49.08887" lon="-0.21466">
        <ele>34.9</ele>
        <time>2023-11-19T09:51:27Z</time>
      </trkpt>
      <trkpt lat="49.08896" lon="-0.21461">
        <ele>34.9</ele>
        <time>2023-11-19T09:51:28Z</time>
      </trkpt>
      <trkpt lat="49.08904" lon="-0.21455">
        <ele>34.9</ele>
        <time>2023-11-19T09:51:29Z</time>
      </trkpt>
      <trkpt lat="49.08913" lon="-0.21449">
        <ele>35</ele>
        <time>2023-11-19T09:51:30Z</time>
      </trkpt>
      <trkpt lat="49.10252" lon="-0.20207">
        <ele>32.9</ele>
        <time>2023-11-19T09:54:09Z</time>
      </trkpt>
      <trkpt lat="49.10258" lon="-0.20196">
        <ele>32.7</ele>
        <time>2023-11-19T09:54:10Z</time>
      </trkpt>
      <trkpt lat="49.10265" lon="-0.20185">
        <ele>32.5</ele>
        <time>2023-11-19T09:54:11Z</time>
      </trkpt>
      <trkpt lat="49.10271" lon="-0.20173">
        <ele>32.3</ele>
        <time>2023-11-19T09:54:12Z</time>
      </trkpt>
      <trkpt lat="49.10277" lon="-0.20161">
        <ele>32.1</ele>
        <time>2023-11-19T09:54:13Z</time>
      </trkpt>
      <trkpt lat="49.10283" lon="-0.2015">
        <ele>31.9</ele>
        <time>2023-11-19T09:54:14Z</time>
      </trkpt>
      <trkpt lat="49.1029" lon="-0.20138">
        <ele>31.6</ele>
        <time>2023-11-19T09:54:15Z</time>
      </trkpt>
      <trkpt lat="49.10296" lon="-0.20127">
        <ele>31.4</ele>
        <time>2023-11-19T09:54:16Z</time>
      </trkpt>
      <trkpt lat="49.10303" lon="-0.20115">
        <ele>31.2</ele>
        <time>2023-11-19T09:54:17Z</time>
      </trkpt>
      <trkpt lat="49.10705" lon="-0.19543">
        <ele>36.7</ele>
        <time>2023-11-19T09:56:59Z</time>
      </trkpt>
      <trkpt lat="49.10708" lon="-0.19531">
        <ele>37.2</ele>
        <time>2023-11-19T09:57:00Z</time>
      </trkpt>
      <trkpt lat="49.10709" lon="-0.19526">
        <ele>37.4</ele>
        <time>2023-11-19T09:57:01Z</time>
      </trkpt>
      <trkpt lat="49.1071" lon="-0.1952">
        <ele>37.6</ele>
        <time>2023-11-19T09:57:02Z</time>
      </trkpt>
      <trkpt lat="49.10712" lon="-0.19514">
        <ele>37.9</ele>
        <time>2023-11-19T09:57:03Z</time>
      </trkpt>
      <trkpt lat="49.10713" lon="-0.19509">
        <ele>38.1</ele>
        <time>2023-11-19T09:57:04Z</time>
      </trkpt>
      <trkpt lat="49.10715" lon="-0.19503">
        <ele>38.3</ele>
        <time>2023-11-19T09:57:05Z</time>
      </trkpt>
      <trkpt lat="49.10716" lon="-0.19498">
        <ele>38.5</ele>
        <time>2023-11-19T09:57:06Z</time>
      </trkpt>
      <trkpt lat="49.10717" lon="-0.19492">
        <ele>38.7</ele>
        <time>2023-11-19T09:57:07Z</time>
      </trkpt>
      <trkpt lat="49.10719" lon="-0.19486">
        <ele>39</ele>
        <time>2023-11-19T09:57:08Z</time>
      </trkpt>
      <trkpt lat="49.1072" lon="-0.19479">
        <ele>39.2</ele>
        <time>2023-11-19T09:57:09Z</time>
      </trkpt>
      <trkpt lat="49.10722" lon="-0.19473">
        <ele>39.4</ele>
        <time>2023-11-19T09:57:10Z</time>
      </trkpt>
      <trkpt lat="49.10724" lon="-0.19466">
        <ele>39.6</ele>
        <time>2023-11-19T09:57:11Z</time>
      </trkpt>
      <trkpt lat="49.10726" lon="-0.19459">
        <ele>39.8</ele>
        <time>2023-11-19T09:57:12Z</time>
      </trkpt>
      <trkpt lat="49.10728" lon="-0.19452">
        <ele>40</ele>
        <time>2023-11-19T09:57:13Z</time>
      </trkpt>
      <trkpt lat="49.10731" lon="-0.19445">
        <ele>40.2</ele>
        <time>2023-11-19T09:57:14Z</time>
      </trkpt>
      <trkpt lat="49.10734" lon="-0.19439">
        <ele>40.3</ele>
        <time>2023-11-19T09:57:15Z</time>
      </trkpt>
      <trkpt lat="49.10736" lon="-0.19432">
        <ele>40.5</ele>
        <time>2023-11-19T09:57:16Z</time>
      </trkpt>
      <trkpt lat="49.10739" lon="-0.19425">
        <ele>40.6</ele>
        <time>2023-11-19T09:57:17Z</time>
      </trkpt>
      <trkpt lat="49.10741" lon="-0.19419">
        <ele>40.7</ele>
        <time>2023-11-19T09:57:18Z</time>
      </trkpt>
      <trkpt lat="49.10744" lon="-0.19412">
        <ele>40.7</ele>
        <time>2023-11-19T09:57:19Z</time>
      </trkpt>
      <trkpt lat="49.10747" lon="-0.19405">
        <ele>40.8</ele>
        <time>2023-11-19T09:57:20Z</time>
      </trkpt>
      <trkpt lat="49.1075" lon="-0.19398">
        <ele>40.9</ele>
        <time>2023-11-19T09:57:21Z</time>
      </trkpt>
      <trkpt lat="49.1149" lon="-0.19121">
        <ele>30.8</ele>
        <time>2023-11-19T10:00:01Z</time>
      </trkpt>
      <trkpt lat="49.11487" lon="-0.19115">
        <ele>30.8</ele>
        <time>2023-11-19T10:00:02Z</time>
      </trkpt>
      <trkpt lat="49.11483" lon="-0.19108">
        <ele>30.9</ele>
        <time>2023-11-19T10:00:03Z</time>
      </trkpt>
      <trkpt lat="49.11479" lon="-0.19101">
        <ele>31</ele>
        <time>2023-11-19T10:00:04Z</time>
      </trkpt>
      <trkpt lat="49.11476" lon="-0.19095">
        <ele>31</ele>
        <time>2023-11-19T10:00:05Z</time>
      </trkpt>
      <trkpt lat="49.11472" lon="-0.19088">
        <ele>31.1</ele>
        <time>2023-11-19T10:00:06Z</time>
      </trkpt>
      <trkpt lat="49.11469" lon="-0.19081">
        <ele>31.1</ele>
        <time>2023-11-19T10:00:07Z</time>
      </trkpt>
      <trkpt lat="49.11465" lon="-0.19075">
        <ele>31.2</ele>
        <time>2023-11-19T10:00:08Z</time>
      </trkpt>
      <trkpt lat="49.11461" lon="-0.19068">
        <ele>31.3</ele>
        <time>2023-11-19T10:00:09Z</time>
      </trkpt>
      <trkpt lat="49.11458" lon="-0.19061">
        <ele>31.3</ele>
        <time>2023-11-19T10:00:10Z</time>
      </trkpt>
      <trkpt lat="49.11455" lon="-0.19053">
        <ele>31.4</ele>
        <time>2023-11-19T10:00:11Z</time>
      </trkpt>
      <trkpt lat="49.11452" lon="-0.19044">
        <ele>31.4</ele>
        <time>2023-11-19T10:00:12Z</time>
      </trkpt>
      <trkpt lat="49.1145" lon="-0.19036">
        <ele>31.5</ele>
        <time>2023-11-19T10:00:13Z</time>
      </trkpt>
      <trkpt lat="49.11447" lon="-0.19026">
        <ele>31.6</ele>
        <time>2023-11-19T10:00:14Z</time>
      </trkpt>
      <trkpt lat="49.11444" lon="-0.19016">
        <ele>31.7</ele>
        <time>2023-11-19T10:00:15Z</time>
      </trkpt>
      <trkpt lat="49.11442" lon="-0.19007">
        <ele>31.7</ele>
        <time>2023-11-19T10:00:16Z</time>
      </trkpt>
      <trkpt lat="49.11439" lon="-0.18997">
        <ele>31.8</ele>
        <time>2023-11-19T10:00:17Z</time>
      </trkpt>
      <trkpt lat="49.11436" lon="-0.18988">
        <ele>31.9</ele>
        <time>2023-11-19T10:00:18Z</time>
      </trkpt>
      <trkpt lat="49.11434" lon="-0.18978">
        <ele>32</ele>
        <time>2023-11-19T10:00:19Z</time>
      </trkpt>
      <trkpt lat="49.11431" lon="-0.18968">
        <ele>32.1</ele>
        <time>2023-11-19T10:00:20Z</time>
      </trkpt>
      <trkpt lat="49.11427" lon="-0.18959">
        <ele>32.2</ele>
        <time>2023-11-19T10:00:21Z</time>
      </trkpt>
      <trkpt lat="49.11424" lon="-0.18949">
        <ele>32.3</ele>
        <time>2023-11-19T10:00:22Z</time>
      </trkpt>
      <trkpt lat="49.1142" lon="-0.1894">
        <ele>32.5</ele>
        <time>2023-11-19T10:00:23Z</time>
      </trkpt>
      <trkpt lat="49.11416" lon="-0.18931">
        <ele>32.6</ele>
        <time>2023-11-19T10:00:24Z</time>
      </trkpt>
      <trkpt lat="49.11412" lon="-0.18922">
        <ele>32.6</ele>
        <time>2023-11-19T10:00:25Z</time>
      </trkpt>
      <trkpt lat="49.11817" lon="-0.19442">
        <ele>27.8</ele>
        <time>2023-11-19T10:03:07Z</time>
      </trkpt>
      <trkpt lat="49.1183" lon="-0.19452">
        <ele>27.7</ele>
        <time>2023-11-19T10:03:08Z</time>
      </trkpt>
      <trkpt lat="49.11836" lon="-0.19456">
        <ele>27.7</ele>
        <time>2023-11-19T10:03:09Z</time>
      </trkpt>
      <trkpt lat="49.11842" lon="-0.19461">
        <ele>27.7</ele>
        <time>2023-11-19T10:03:10Z</time>
      </trkpt>
      <trkpt lat="49.11849" lon="-0.19465">
        <ele>27.6</ele>
        <time>2023-11-19T10:03:11Z</time>
      </trkpt>
      <trkpt lat="49.11855" lon="-0.1947">
        <ele>27.6</ele>
        <time>2023-11-19T10:03:12Z</time>
      </trkpt>
      <trkpt lat="49.11862" lon="-0.19475">
        <ele>27.5</ele>
        <time>2023-11-19T10:03:13Z</time>
      </trkpt>
      <trkpt lat="49.11869" lon="-0.1948">
        <ele>27.5</ele>
        <time>2023-11-19T10:03:14Z</time>
      </trkpt>
      <trkpt lat="49.12476" lon="-0.20683">
        <ele>22.7</ele>
        <time>2023-11-19T10:05:54Z</time>
      </trkpt>
      <trkpt lat="49.12486" lon="-0.20676">
        <ele>22.5</ele>
        <time>2023-11-19T10:05:56Z</time>
      </trkpt>
      <trkpt lat="49.12491" lon="-0.20671">
        <ele>22.4</ele>
        <time>2023-11-19T10:05:57Z</time>
      </trkpt>
      <trkpt lat="49.12496" lon="-0.20666">
        <ele>22.3</ele>
        <time>2023-11-19T10:05:58Z</time>
      </trkpt>
      <trkpt lat="49.125" lon="-0.20662">
        <ele>22.2</ele>
        <time>2023-11-19T10:05:59Z</time>
      </trkpt>
      <trkpt lat="49.12505" lon="-0.20658">
        <ele>22.1</ele>
        <time>2023-11-19T10:06:00Z</time>
      </trkpt>
      <trkpt lat="49.12509" lon="-0.20656">
        <ele>22</ele>
        <time>2023-11-19T10:06:01Z</time>
      </trkpt>
      <trkpt lat="49.12514" lon="-0.20654">
        <ele>21.9</ele>
        <time>2023-11-19T10:06:02Z</time>
      </trkpt>
      <trkpt lat="49.12519" lon="-0.2065">
        <ele>21.8</ele>
        <time>2023-11-19T10:06:03Z</time>
      </trkpt>
      <trkpt lat="49.12524" lon="-0.20646">
        <ele>21.7</ele>
        <time>2023-11-19T10:06:04Z</time>
      </trkpt>
      <trkpt lat="49.12732" lon="-0.20512">
        <ele>18.4</ele>
        <time>2023-11-19T10:06:35Z</time>
      </trkpt>
      <trkpt lat="49.1277" lon="-0.20494">
        <ele>17.7</ele>
        <time>2023-11-19T10:06:37Z</time>
      </trkpt>
      <trkpt lat="49.12775" lon="-0.20491">
        <ele>17.7</ele>
        <time>2023-11-19T10:06:38Z</time>
      </trkpt>
      <trkpt lat="49.1278" lon="-0.20488">
        <ele>17.6</ele>
        <time>2023-11-19T10:06:39Z</time>
      </trkpt>
      <trkpt lat="49.12785" lon="-0.20485">
        <ele>17.5</ele>
        <time>2023-11-19T10:06:40Z</time>
      </trkpt>
      <trkpt lat="49.12793" lon="-0.20481">
        <ele>17.4</ele>
        <time>2023-11-19T10:06:41Z</time>
      </trkpt>
      <trkpt lat="49.12802" lon="-0.20477">
        <ele>17.3</ele>
        <time>2023-11-19T10:06:42Z</time>
      </trkpt>
      <trkpt lat="49.1281" lon="-0.20473">
        <ele>17.2</ele>
        <time>2023-11-19T10:06:43Z</time>
      </trkpt>
      <trkpt lat="49.12817" lon="-0.20469">
        <ele>17.1</ele>
        <time>2023-11-19T10:06:44Z</time>
      </trkpt>
      <trkpt lat="49.12825" lon="-0.20465">
        <ele>17</ele>
        <time>2023-11-19T10:06:45Z</time>
      </trkpt>
      <trkpt lat="49.12833" lon="-0.2046">
        <ele>16.8</ele>
        <time>2023-11-19T10:06:46Z</time>
      </trkpt>
      <trkpt lat="49.12841" lon="-0.20456">
        <ele>16.7</ele>
        <time>2023-11-19T10:06:47Z</time>
      </trkpt>
      <trkpt lat="49.12849" lon="-0.20452">
        <ele>16.6</ele>
        <time>2023-11-19T10:06:48Z</time>
      </trkpt>
      <trkpt lat="49.12858" lon="-0.20448">
        <ele>16.5</ele>
        <time>2023-11-19T10:06:49Z</time>
      </trkpt>
      <trkpt lat="49.12866" lon="-0.20443">
        <ele>16.4</ele>
        <time>2023-11-19T10:06:50Z</time>
      </trkpt>
      <trkpt lat="49.14156" lon="-0.20625">
        <ele>7</ele>
        <time>2023-11-19T10:09:29Z</time>
      </trkpt>
      <trkpt lat="49.14164" lon="-0.20628">
        <ele>7</ele>
        <time>2023-11-19T10:09:30Z</time>
      </trkpt>
      <trkpt lat="49.14173" lon="-0.2063">
        <ele>7</ele>
        <time>2023-11-19T10:09:31Z</time>
      </trkpt>
      <trkpt lat="49.14181" lon="-0.20631">
        <ele>7</ele>
        <time>2023-11-19T10:09:32Z</time>
      </trkpt>
      <trkpt lat="49.14189" lon="-0.20633">
        <ele>7</ele>
        <time>2023-11-19T10:09:33Z</time>
      </trkpt>
      <trkpt lat="49.14197" lon="-0.20635">
        <ele>7</ele>
        <time>2023-11-19T10:09:34Z</time>
      </trkpt>
      <trkpt lat="49.14204" lon="-0.20637">
        <ele>7</ele>
        <time>2023-11-19T10:09:35Z</time>
      </trkpt>
      <trkpt lat="49.14211" lon="-0.20639">
        <ele>7</ele>
        <time>2023-11-19T10:09:36Z</time>
      </trkpt>
      <trkpt lat="49.14217" lon="-0.2064">
        <ele>7</ele>
        <time>2023-11-19T10:09:37Z</time>
      </trkpt>
      <trkpt lat="49.14223" lon="-0.20641">
        <ele>7</ele>
        <time>2023-11-19T10:09:38Z</time>
      </trkpt>
      <trkpt lat="49.14229" lon="-0.20642">
        <ele>7</ele>
        <time>2023-11-19T10:09:39Z</time>
      </trkpt>
      <trkpt lat="49.14234" lon="-0.20644">
        <ele>7.1</ele>
        <time>2023-11-19T10:09:40Z</time>
      </trkpt>
      <trkpt lat="49.14795" lon="-0.21996">
        <ele>9.4</ele>
        <time>2023-11-19T10:12:22Z</time>
      </trkpt>
      <trkpt lat="49.14805" lon="-0.2202">
        <ele>9.4</ele>
        <time>2023-11-19T10:12:23Z</time>
      </trkpt>
      <trkpt lat="49.14808" lon="-0.22029">
        <ele>9.4</ele>
        <time>2023-11-19T10:12:24Z</time>
      </trkpt>
      <trkpt lat="49.1481" lon="-0.22038">
        <ele>9.4</ele>
        <time>2023-11-19T10:12:25Z</time>
      </trkpt>
      <trkpt lat="49.14813" lon="-0.22047">
        <ele>9.4</ele>
        <time>2023-11-19T10:12:26Z</time>
      </trkpt>
      <trkpt lat="49.14816" lon="-0.22056">
        <ele>9.4</ele>
        <time>2023-11-19T10:12:27Z</time>
      </trkpt>
      <trkpt lat="49.14819" lon="-0.22065">
        <ele>9.3</ele>
        <time>2023-11-19T10:12:28Z</time>
      </trkpt>
      <trkpt lat="49.14821" lon="-0.22074">
        <ele>9.3</ele>
        <time>2023-11-19T10:12:29Z</time>
      </trkpt>
      <trkpt lat="49.14824" lon="-0.22082">
        <ele>9.3</ele>
        <time>2023-11-19T10:12:30Z</time>
      </trkpt>
      <trkpt lat="49.14827" lon="-0.22092">
        <ele>9.2</ele>
        <time>2023-11-19T10:12:31Z</time>
      </trkpt>
      <trkpt lat="49.14829" lon="-0.22101">
        <ele>9.1</ele>
        <time>2023-11-19T10:12:32Z</time>
      </trkpt>
      <trkpt lat="49.15597" lon="-0.22144">
        <ele>7.3</ele>
        <time>2023-11-19T10:15:13Z</time>
      </trkpt>
      <trkpt lat="49.15623" lon="-0.22148">
        <ele>7.4</ele>
        <time>2023-11-19T10:15:14Z</time>
      </trkpt>
      <trkpt lat="49.15629" lon="-0.2215">
        <ele>7.5</ele>
        <time>2023-11-19T10:15:15Z</time>
      </trkpt>
      <trkpt lat="49.15635" lon="-0.22151">
        <ele>7.5</ele>
        <time>2023-11-19T10:15:16Z</time>
      </trkpt>
      <trkpt lat="49.15641" lon="-0.22153">
        <ele>7.6</ele>
        <time>2023-11-19T10:15:17Z</time>
      </trkpt>
      <trkpt lat="49.15647" lon="-0.22154">
        <ele>7.6</ele>
        <time>2023-11-19T10:15:18Z</time>
      </trkpt>
      <trkpt lat="49.15653" lon="-0.22155">
        <ele>7.7</ele>
        <time>2023-11-19T10:15:19Z</time>
      </trkpt>
      <trkpt lat="49.15659" lon="-0.22157">
        <ele>7.7</ele>
        <time>2023-11-19T10:15:20Z</time>
      </trkpt>
      <trkpt lat="49.15665" lon="-0.22158">
        <ele>7.8</ele>
        <time>2023-11-19T10:15:21Z</time>
      </trkpt>
      <trkpt lat="49.15671" lon="-0.2216">
        <ele>7.8</ele>
        <time>2023-11-19T10:15:22Z</time>
      </trkpt>
      <trkpt lat="49.15678" lon="-0.2216">
        <ele>7.9</ele>
        <time>2023-11-19T10:15:23Z</time>
      </trkpt>
      <trkpt lat="49.15685" lon="-0.22161">
        <ele>8</ele>
        <time>2023-11-19T10:15:24Z</time>
      </trkpt>
      <trkpt lat="49.15692" lon="-0.22163">
        <ele>8.1</ele>
        <time>2023-11-19T10:15:25Z</time>
      </trkpt>
      <trkpt lat="49.15698" lon="-0.22164">
        <ele>8.2</ele>
        <time>2023-11-19T10:15:26Z</time>
      </trkpt>
      <trkpt lat="49.16768" lon="-0.21934">
        <ele>14.3</ele>
        <time>2023-11-19T10:18:08Z</time>
      </trkpt>
      <trkpt lat="49.16773" lon="-0.21938">
        <ele>14.4</ele>
        <time>2023-11-19T10:18:09Z</time>
      </trkpt>
      <trkpt lat="49.16778" lon="-0.21942">
        <ele>14.5</ele>
        <time>2023-11-19T10:18:10Z</time>
      </trkpt>
      <trkpt lat="49.16783" lon="-0.21946">
        <ele>14.7</ele>
        <time>2023-11-19T10:18:11Z</time>
      </trkpt>
      <trkpt lat="49.16788" lon="-0.2195">
        <ele>14.9</ele>
        <time>2023-11-19T10:18:12Z</time>
      </trkpt>
      <trkpt lat="49.16793" lon="-0.21953">
        <ele>15</ele>
        <time>2023-11-19T10:18:13Z</time>
      </trkpt>
      <trkpt lat="49.16799" lon="-0.21957">
        <ele>15.1</ele>
        <time>2023-11-19T10:18:14Z</time>
      </trkpt>
      <trkpt lat="49.16804" lon="-0.21961">
        <ele>15.3</ele>
        <time>2023-11-19T10:18:15Z</time>
      </trkpt>
      <trkpt lat="49.16809" lon="-0.21965">
        <ele>15.5</ele>
        <time>2023-11-19T10:18:16Z</time>
      </trkpt>
      <trkpt lat="49.16814" lon="-0.21969">
        <ele>15.7</ele>
        <time>2023-11-19T10:18:17Z</time>
      </trkpt>
      <trkpt lat="49.16819" lon="-0.21973">
        <ele>15.9</ele>
        <time>2023-11-19T10:18:18Z</time>
      </trkpt>
      <trkpt lat="49.16824" lon="-0.21977">
        <ele>16.1</ele>
        <time>2023-11-19T10:18:19Z</time>
      </trkpt>
      <trkpt lat="49.16829" lon="-0.21979">
        <ele>16.3</ele>
        <time>2023-11-19T10:18:20Z</time>
      </trkpt>
      <trkpt lat="49.16834" lon="-0.21982">
        <ele>16.5</ele>
        <time>2023-11-19T10:18:21Z</time>
      </trkpt>
      <trkpt lat="49.16839" lon="-0.21984">
        <ele>16.8</ele>
        <time>2023-11-19T10:18:22Z</time>
      </trkpt>
      <trkpt lat="49.16845" lon="-0.21986">
        <ele>17</ele>
        <time>2023-11-19T10:18:23Z</time>
      </trkpt>
      <trkpt lat="49.1685" lon="-0.21988">
        <ele>17.2</ele>
        <time>2023-11-19T10:18:24Z</time>
      </trkpt>
      <trkpt lat="49.16855" lon="-0.21991">
        <ele>17.4</ele>
        <time>2023-11-19T10:18:25Z</time>
      </trkpt>
      <trkpt lat="49.1686" lon="-0.21993">
        <ele>17.6</ele>
        <time>2023-11-19T10:18:26Z</time>
      </trkpt>
      <trkpt lat="49.16864" lon="-0.21995">
        <ele>17.8</ele>
        <time>2023-11-19T10:18:27Z</time>
      </trkpt>
      <trkpt lat="49.16869" lon="-0.21997">
        <ele>18</ele>
        <time>2023-11-19T10:18:28Z</time>
      </trkpt>
      <trkpt lat="49.16874" lon="-0.21999">
        <ele>18.1</ele>
        <time>2023-11-19T10:18:29Z</time>
      </trkpt>
      <trkpt lat="49.16879" lon="-0.22002">
        <ele>18.3</ele>
        <time>2023-11-19T10:18:30Z</time>
      </trkpt>
      <trkpt lat="49.16885" lon="-0.22004">
        <ele>18.4</ele>
        <time>2023-11-19T10:18:31Z</time>
      </trkpt>
      <trkpt lat="49.1689" lon="-0.22007">
        <ele>18.6</ele>
        <time>2023-11-19T10:18:32Z</time>
      </trkpt>
      <trkpt lat="49.16895" lon="-0.2201">
        <ele>18.7</ele>
        <time>2023-11-19T10:18:33Z</time>
      </trkpt>
      <trkpt lat="49.16901" lon="-0.22013">
        <ele>18.8</ele>
        <time>2023-11-19T10:18:34Z</time>
      </trkpt>
      <trkpt lat="49.17831" lon="-0.22085">
        <ele>12.9</ele>
        <time>2023-11-19T10:21:16Z</time>
      </trkpt>
      <trkpt lat="49.17835" lon="-0.22086">
        <ele>12.9</ele>
        <time>2023-11-19T10:21:17Z</time>
      </trkpt>
      <trkpt lat="49.17839" lon="-0.22086">
        <ele>13</ele>
        <time>2023-11-19T10:21:18Z</time>
      </trkpt>
      <trkpt lat="49.17844" lon="-0.22088">
        <ele>13</ele>
        <time>2023-11-19T10:21:19Z</time>
      </trkpt>
      <trkpt lat="49.17849" lon="-0.2209">
        <ele>13.1</ele>
        <time>2023-11-19T10:21:20Z</time>
      </trkpt>
      <trkpt lat="49.17853" lon="-0.22091">
        <ele>13.2</ele>
        <time>2023-11-19T10:21:21Z</time>
      </trkpt>
      <trkpt lat="49.17858" lon="-0.22092">
        <ele>13.3</ele>
        <time>2023-11-19T10:21:22Z</time>
      </trkpt>
      <trkpt lat="49.17862" lon="-0.22093">
        <ele>13.3</ele>
        <time>2023-11-19T10:21:23Z</time>
      </trkpt>
      <trkpt lat="49.17867" lon="-0.22093">
        <ele>13.4</ele>
        <time>2023-11-19T10:21:24Z</time>
      </trkpt>
      <trkpt lat="49.17871" lon="-0.22094">
        <ele>13.5</ele>
        <time>2023-11-19T10:21:25Z</time>
      </trkpt>
      <trkpt lat="49.18011" lon="-0.22204">
        <ele>16.3</ele>
        <time>2023-11-19T10:22:13Z</time>
      </trkpt>
      <trkpt lat="49.18023" lon="-0.22204">
        <ele>16.3</ele>
        <time>2023-11-19T10:22:14Z</time>
      </trkpt>
      <trkpt lat="49.18028" lon="-0.22204">
        <ele>16.3</ele>
        <time>2023-11-19T10:22:15Z</time>
      </trkpt>
      <trkpt lat="49.18033" lon="-0.22204">
        <ele>16.3</ele>
        <time>2023-11-19T10:22:16Z</time>
      </trkpt>
      <trkpt lat="49.18038" lon="-0.22204">
        <ele>16.3</ele>
        <time>2023-11-19T10:22:17Z</time>
      </trkpt>
      <trkpt lat="49.18045" lon="-0.22203">
        <ele>16.4</ele>
        <time>2023-11-19T10:22:18Z</time>
      </trkpt>
      <trkpt lat="49.18051" lon="-0.22202">
        <ele>16.4</ele>
        <time>2023-11-19T10:22:19Z</time>
      </trkpt>
      <trkpt lat="49.18058" lon="-0.22202">
        <ele>16.4</ele>
        <time>2023-11-19T10:22:20Z</time>
      </trkpt>
      <trkpt lat="49.18064" lon="-0.22202">
        <ele>16.3</ele>
        <time>2023-11-19T10:22:21Z</time>
      </trkpt>
      <trkpt lat="49.18071" lon="-0.22202">
        <ele>16.3</ele>
        <time>2023-11-19T10:22:22Z</time>
      </trkpt>
      <trkpt lat="49.18081" lon="-0.22201">
        <ele>16.3</ele>
        <time>2023-11-19T10:22:23Z</time>
      </trkpt>
      <trkpt lat="49.18084" lon="-0.222">
        <ele>16.3</ele>
        <time>2023-11-19T10:22:24Z</time>
      </trkpt>
      <trkpt lat="49.18091" lon="-0.222">
        <ele>16.2</ele>
        <time>2023-11-19T10:22:25Z</time>
      </trkpt>
      <trkpt lat="49.18098" lon="-0.222">
        <ele>16.2</ele>
        <time>2023-11-19T10:22:26Z</time>
      </trkpt>
      <trkpt lat="49.18105" lon="-0.222">
        <ele>16.1</ele>
        <time>2023-11-19T10:22:27Z</time>
      </trkpt>
      <trkpt lat="49.19112" lon="-0.22566">
        <ele>16</ele>
        <time>2023-11-19T10:25:08Z</time>
      </trkpt>
      <trkpt lat="49.19114" lon="-0.22572">
        <ele>16</ele>
        <time>2023-11-19T10:25:09Z</time>
      </trkpt>
      <trkpt lat="49.19115" lon="-0.22578">
        <ele>16.1</ele>
        <time>2023-11-19T10:25:10Z</time>
      </trkpt>
      <trkpt lat="49.19117" lon="-0.22583">
        <ele>16.1</ele>
        <time>2023-11-19T10:25:11Z</time>
      </trkpt>
      <trkpt lat="49.19119" lon="-0.22589">
        <ele>16.1</ele>
        <time>2023-11-19T10:25:12Z</time>
      </trkpt>
      <trkpt lat="49.1912" lon="-0.22595">
        <ele>16.2</ele>
        <time>2023-11-19T10:25:13Z</time>
      </trkpt>
      <trkpt lat="49.19122" lon="-0.22601">
        <ele>16.2</ele>
        <time>2023-11-19T10:25:14Z</time>
      </trkpt>
      <trkpt lat="49.19124" lon="-0.22606">
        <ele>16.2</ele>
        <time>2023-11-19T10:25:15Z</time>
      </trkpt>
      <trkpt lat="49.19125" lon="-0.22612">
        <ele>16.3</ele>
        <time>2023-11-19T10:25:16Z</time>
      </trkpt>
      <trkpt lat="49.19127" lon="-0.22618">
        <ele>16.3</ele>
        <time>2023-11-19T10:25:17Z</time>
      </trkpt>
      <trkpt lat="49.19129" lon="-0.22623">
        <ele>16.3</ele>
        <time>2023-11-19T10:25:18Z</time>
      </trkpt>
      <trkpt lat="49.19131" lon="-0.22629">
        <ele>16.4</ele>
        <time>2023-11-19T10:25:19Z</time>
      </trkpt>
      <trkpt lat="49.20117" lon="-0.2345">
        <ele>32.6</ele>
        <time>2023-11-19T10:28:08Z</time>
      </trkpt>
      <trkpt lat="49.20125" lon="-0.23452">
        <ele>32.6</ele>
        <time>2023-11-19T10:28:09Z</time>
      </trkpt>
      <trkpt lat="49.20132" lon="-0.23455">
        <ele>32.7</ele>
        <time>2023-11-19T10:28:10Z</time>
      </trkpt>
      <trkpt lat="49.21056" lon="-0.2384">
        <ele>18.9</ele>
        <time>2023-11-19T10:30:52Z</time>
      </trkpt>
      <trkpt lat="49.21065" lon="-0.23846">
        <ele>18.7</ele>
        <time>2023-11-19T10:30:53Z</time>
      </trkpt>
      <trkpt lat="49.21067" lon="-0.23852">
        <ele>18.6</ele>
        <time>2023-11-19T10:30:54Z</time>
      </trkpt>
      <trkpt lat="49.21068" lon="-0.23859">
        <ele>18.5</ele>
        <time>2023-11-19T10:30:55Z</time>
      </trkpt>
      <trkpt lat="49.2107" lon="-0.23865">
        <ele>18.3</ele>
        <time>2023-11-19T10:30:56Z</time>
      </trkpt>
      <trkpt lat="49.21071" lon="-0.23872">
        <ele>18.2</ele>
        <time>2023-11-19T10:30:57Z</time>
      </trkpt>
      <trkpt lat="49.21073" lon="-0.23878">
        <ele>18</ele>
        <time>2023-11-19T10:30:58Z</time>
      </trkpt>
      <trkpt lat="49.21074" lon="-0.23885">
        <ele>17.9</ele>
        <time>2023-11-19T10:30:59Z</time>
      </trkpt>
      <trkpt lat="49.21076" lon="-0.23891">
        <ele>17.8</ele>
        <time>2023-11-19T10:31:00Z</time>
      </trkpt>
      <trkpt lat="49.21077" lon="-0.23898">
        <ele>17.7</ele>
        <time>2023-11-19T10:31:01Z</time>
      </trkpt>
      <trkpt lat="49.21079" lon="-0.23904">
        <ele>17.6</ele>
        <time>2023-11-19T10:31:02Z</time>
      </trkpt>
      <trkpt lat="49.21078" lon="-0.23915">
        <ele>17.4</ele>
        <time>2023-11-19T10:31:03Z</time>
      </trkpt>
      <trkpt lat="49.21078" lon="-0.23927">
        <ele>17.3</ele>
        <time>2023-11-19T10:31:04Z</time>
      </trkpt>
      <trkpt lat="49.21077" lon="-0.23938">
        <ele>17.2</ele>
        <time>2023-11-19T10:31:05Z</time>
      </trkpt>
      <trkpt lat="49.21077" lon="-0.2395">
        <ele>17.1</ele>
        <time>2023-11-19T10:31:06Z</time>
      </trkpt>
      <trkpt lat="49.21077" lon="-0.23962">
        <ele>17.1</ele>
        <time>2023-11-19T10:31:07Z</time>
      </trkpt>
      <trkpt lat="49.21076" lon="-0.23975">
        <ele>17.1</ele>
        <time>2023-11-19T10:31:08Z</time>
      </trkpt>
      <trkpt lat="49.21076" lon="-0.23987">
        <ele>17.1</ele>
        <time>2023-11-19T10:31:09Z</time>
      </trkpt>
      <trkpt lat="49.21075" lon="-0.23999">
        <ele>17.1</ele>
        <time>2023-11-19T10:31:10Z</time>
      </trkpt>
      <trkpt lat="49.21074" lon="-0.2401">
        <ele>17.2</ele>
        <time>2023-11-19T10:31:11Z</time>
      </trkpt>
      <trkpt lat="49.21073" lon="-0.24022">
        <ele>17.2</ele>
        <time>2023-11-19T10:31:12Z</time>
      </trkpt>
      <trkpt lat="49.21072" lon="-0.24033">
        <ele>17.3</ele>
        <time>2023-11-19T10:31:13Z</time>
      </trkpt>
      <trkpt lat="49.21071" lon="-0.24043">
        <ele>17.4</ele>
        <time>2023-11-19T10:31:14Z</time>
      </trkpt>
      <trkpt lat="49.21071" lon="-0.24053">
        <ele>17.4</ele>
        <time>2023-11-19T10:31:15Z</time>
      </trkpt>
      <trkpt lat="49.21935" lon="-0.24533">
        <ele>12.1</ele>
        <time>2023-11-19T10:33:55Z</time>
      </trkpt>
      <trkpt lat="49.21939" lon="-0.24523">
        <ele>12.1</ele>
        <time>2023-11-19T10:33:56Z</time>
      </trkpt>
      <trkpt lat="49.21942" lon="-0.24513">
        <ele>12.1</ele>
        <time>2023-11-19T10:33:57Z</time>
      </trkpt>
      <trkpt lat="49.21946" lon="-0.24503">
        <ele>12.1</ele>
        <time>2023-11-19T10:33:58Z</time>
      </trkpt>
      <trkpt lat="49.21949" lon="-0.24492">
        <ele>12.1</ele>
        <time>2023-11-19T10:33:59Z</time>
      </trkpt>
      <trkpt lat="49.21953" lon="-0.24482">
        <ele>12.1</ele>
        <time>2023-11-19T10:34:00Z</time>
      </trkpt>
      <trkpt lat="49.21956" lon="-0.24472">
        <ele>12.1</ele>
        <time>2023-11-19T10:34:01Z</time>
      </trkpt>
      <trkpt lat="49.2196" lon="-0.24462">
        <ele>12.2</ele>
        <time>2023-11-19T10:34:02Z</time>
      </trkpt>
      <trkpt lat="49.21963" lon="-0.24451">
        <ele>12.2</ele>
        <time>2023-11-19T10:34:03Z</time>
      </trkpt>
      <trkpt lat="49.21967" lon="-0.24441">
        <ele>12.2</ele>
        <time>2023-11-19T10:34:05Z</time>
      </trkpt>
      <trkpt lat="49.2197" lon="-0.24431">
        <ele>12.2</ele>
        <time>2023-11-19T10:34:06Z</time>
      </trkpt>
      <trkpt lat="49.21974" lon="-0.24422">
        <ele>12.2</ele>
        <time>2023-11-19T10:34:07Z</time>
      </trkpt>
      <trkpt lat="49.21976" lon="-0.24413">
        <ele>12.2</ele>
        <time>2023-11-19T10:34:08Z</time>
      </trkpt>
      <trkpt lat="49.21979" lon="-0.24404">
        <ele>12.3</ele>
        <time>2023-11-19T10:34:09Z</time>
      </trkpt>
      <trkpt lat="49.21982" lon="-0.24395">
        <ele>12.4</ele>
        <time>2023-11-19T10:34:10Z</time>
      </trkpt>
      <trkpt lat="49.21985" lon="-0.24387">
        <ele>12.5</ele>
        <time>2023-11-19T10:34:11Z</time>
      </trkpt>
      <trkpt lat="49.21988" lon="-0.24379">
        <ele>12.6</ele>
        <time>2023-11-19T10:34:12Z</time>
      </trkpt>
      <trkpt lat="49.21991" lon="-0.24372">
        <ele>12.7</ele>
        <time>2023-11-19T10:34:13Z</time>
      </trkpt>
      <trkpt lat="49.21995" lon="-0.24368">
        <ele>12.8</ele>
        <time>2023-11-19T10:34:14Z</time>
      </trkpt>
      <trkpt lat="49.21999" lon="-0.24368">
        <ele>12.8</ele>
        <time>2023-11-19T10:34:15Z</time>
      </trkpt>
      <trkpt lat="49.22004" lon="-0.24371">
        <ele>12.9</ele>
        <time>2023-11-19T10:34:16Z</time>
      </trkpt>
      <trkpt lat="49.22009" lon="-0.24375">
        <ele>12.9</ele>
        <time>2023-11-19T10:34:17Z</time>
      </trkpt>
      <trkpt lat="49.22013" lon="-0.2438">
        <ele>12.9</ele>
        <time>2023-11-19T10:34:18Z</time>
      </trkpt>
      <trkpt lat="49.2293" lon="-0.24319">
        <ele>10.5</ele>
        <time>2023-11-19T10:36:59Z</time>
      </trkpt>
      <trkpt lat="49.22935" lon="-0.24315">
        <ele>10.6</ele>
        <time>2023-11-19T10:37:00Z</time>
      </trkpt>
      <trkpt lat="49.2294" lon="-0.2431">
        <ele>10.8</ele>
        <time>2023-11-19T10:37:01Z</time>
      </trkpt>
      <trkpt lat="49.22946" lon="-0.24306">
        <ele>10.9</ele>
        <time>2023-11-19T10:37:02Z</time>
      </trkpt>
      <trkpt lat="49.22951" lon="-0.24301">
        <ele>10.9</ele>
        <time>2023-11-19T10:37:03Z</time>
      </trkpt>
      <trkpt lat="49.22956" lon="-0.24297">
        <ele>11</ele>
        <time>2023-11-19T10:37:04Z</time>
      </trkpt>
      <trkpt lat="49.22962" lon="-0.24293">
        <ele>11.1</ele>
        <time>2023-11-19T10:37:05Z</time>
      </trkpt>
      <trkpt lat="49.22967" lon="-0.24288">
        <ele>11.1</ele>
        <time>2023-11-19T10:37:06Z</time>
      </trkpt>
      <trkpt lat="49.22972" lon="-0.24284">
        <ele>11.1</ele>
        <time>2023-11-19T10:37:07Z</time>
      </trkpt>
      <trkpt lat="49.22978" lon="-0.24279">
        <ele>11.1</ele>
        <time>2023-11-19T10:37:08Z</time>
      </trkpt>
      <trkpt lat="49.22983" lon="-0.24275">
        <ele>11</ele>
        <time>2023-11-19T10:37:09Z</time>
      </trkpt>
      <trkpt lat="49.22989" lon="-0.24272">
        <ele>10.9</ele>
        <time>2023-11-19T10:37:10Z</time>
      </trkpt>
      <trkpt lat="49.22996" lon="-0.24269">
        <ele>10.8</ele>
        <time>2023-11-19T10:37:11Z</time>
      </trkpt>
      <trkpt lat="49.23003" lon="-0.24266">
        <ele>10.7</ele>
        <time>2023-11-19T10:37:12Z</time>
      </trkpt>
      <trkpt lat="49.2301" lon="-0.24262">
        <ele>10.6</ele>
        <time>2023-11-19T10:37:13Z</time>
      </trkpt>
      <trkpt lat="49.23016" lon="-0.24259">
        <ele>10.4</ele>
        <time>2023-11-19T10:37:14Z</time>
      </trkpt>
      <trkpt lat="49.23024" lon="-0.24256">
        <ele>10.3</ele>
        <time>2023-11-19T10:37:15Z</time>
      </trkpt>
      <trkpt lat="49.2303" lon="-0.24252">
        <ele>10.1</ele>
        <time>2023-11-19T10:37:16Z</time>
      </trkpt>
      <trkpt lat="49.23037" lon="-0.24249">
        <ele>9.9</ele>
        <time>2023-11-19T10:37:17Z</time>
      </trkpt>
      <trkpt lat="49.23044" lon="-0.24245">
        <ele>9.8</ele>
        <time>2023-11-19T10:37:18Z</time>
      </trkpt>
      <trkpt lat="49.23051" lon="-0.24241">
        <ele>9.6</ele>
        <time>2023-11-19T10:37:19Z</time>
      </trkpt>
      <trkpt lat="49.23059" lon="-0.24238">
        <ele>9.4</ele>
        <time>2023-11-19T10:37:20Z</time>
      </trkpt>
      <trkpt lat="49.23066" lon="-0.24234">
        <ele>9.2</ele>
        <time>2023-11-19T10:37:21Z</time>
      </trkpt>
      <trkpt lat="49.23074" lon="-0.2423">
        <ele>9</ele>
        <time>2023-11-19T10:37:22Z</time>
      </trkpt>
      <trkpt lat="49.23226" lon="-0.2412">
        <ele>9.1</ele>
        <time>2023-11-19T10:37:43Z</time>
      </trkpt>
      <trkpt lat="49.23232" lon="-0.24114">
        <ele>9.2</ele>
        <time>2023-11-19T10:37:44Z</time>
      </trkpt>
      <trkpt lat="49.23237" lon="-0.24107">
        <ele>9.4</ele>
        <time>2023-11-19T10:37:45Z</time>
      </trkpt>
      <trkpt lat="49.23242" lon="-0.241">
        <ele>9.5</ele>
        <time>2023-11-19T10:37:46Z</time>
      </trkpt>
      <trkpt lat="49.23247" lon="-0.24093">
        <ele>9.7</ele>
        <time>2023-11-19T10:37:47Z</time>
      </trkpt>
      <trkpt lat="49.23252" lon="-0.24086">
        <ele>9.8</ele>
        <time>2023-11-19T10:37:48Z</time>
      </trkpt>
      <trkpt lat="49.23257" lon="-0.2408">
        <ele>10</ele>
        <time>2023-11-19T10:37:49Z</time>
      </trkpt>
      <trkpt lat="49.23263" lon="-0.24072">
        <ele>10.2</ele>
        <time>2023-11-19T10:37:50Z</time>
      </trkpt>
      <trkpt lat="49.23269" lon="-0.24065">
        <ele>10.4</ele>
        <time>2023-11-19T10:37:51Z</time>
      </trkpt>
      <trkpt lat="49.23275" lon="-0.24058">
        <ele>10.6</ele>
        <time>2023-11-19T10:37:52Z</time>
      </trkpt>
      <trkpt lat="49.24149" lon="-0.23506">
        <ele>42.7</ele>
        <time>2023-11-19T10:40:33Z</time>
      </trkpt>
      <trkpt lat="49.24153" lon="-0.23503">
        <ele>43.1</ele>
        <time>2023-11-19T10:40:34Z</time>
      </trkpt>
      <trkpt lat="49.24157" lon="-0.23499">
        <ele>43.6</ele>
        <time>2023-11-19T10:40:35Z</time>
      </trkpt>
      <trkpt lat="49.24161" lon="-0.23495">
        <ele>44</ele>
        <time>2023-11-19T10:40:36Z</time>
      </trkpt>
      <trkpt lat="49.24165" lon="-0.23491">
        <ele>44.4</ele>
        <time>2023-11-19T10:40:37Z</time>
      </trkpt>
      <trkpt lat="49.24169" lon="-0.23487">
        <ele>44.8</ele>
        <time>2023-11-19T10:40:38Z</time>
      </trkpt>
      <trkpt lat="49.24173" lon="-0.23484">
        <ele>45.2</ele>
        <time>2023-11-19T10:40:39Z</time>
      </trkpt>
      <trkpt lat="49.24177" lon="-0.2348">
        <ele>45.5</ele>
        <time>2023-11-19T10:40:40Z</time>
      </trkpt>
      <trkpt lat="49.24181" lon="-0.23476">
        <ele>45.8</ele>
        <time>2023-11-19T10:40:41Z</time>
      </trkpt>
      <trkpt lat="49.24185" lon="-0.23472">
        <ele>46.1</ele>
        <time>2023-11-19T10:40:44Z</time>
      </trkpt>
      <trkpt lat="49.24188" lon="-0.23468">
        <ele>46.4</ele>
        <time>2023-11-19T10:40:45Z</time>
      </trkpt>
      <trkpt lat="49.24191" lon="-0.23464">
        <ele>46.6</ele>
        <time>2023-11-19T10:40:46Z</time>
      </trkpt>
      <trkpt lat="49.24195" lon="-0.23461">
        <ele>46.8</ele>
        <time>2023-11-19T10:40:47Z</time>
      </trkpt>
      <trkpt lat="49.24199" lon="-0.23458">
        <ele>47</ele>
        <time>2023-11-19T10:40:48Z</time>
      </trkpt>
      <trkpt lat="49.24203" lon="-0.23455">
        <ele>47.2</ele>
        <time>2023-11-19T10:40:49Z</time>
      </trkpt>
      <trkpt lat="49.24206" lon="-0.23451">
        <ele>47.4</ele>
        <time>2023-11-19T10:40:50Z</time>
      </trkpt>
      <trkpt lat="49.2421" lon="-0.23448">
        <ele>47.6</ele>
        <time>2023-11-19T10:40:51Z</time>
      </trkpt>
      <trkpt lat="49.24214" lon="-0.23445">
        <ele>47.8</ele>
        <time>2023-11-19T10:40:52Z</time>
      </trkpt>
      <trkpt lat="49.24217" lon="-0.23442">
        <ele>48</ele>
        <time>2023-11-19T10:40:53Z</time>
      </trkpt>
      <trkpt lat="49.24221" lon="-0.23439">
        <ele>48.1</ele>
        <time>2023-11-19T10:40:54Z</time>
      </trkpt>
      <trkpt lat="49.24224" lon="-0.23436">
        <ele>48.3</ele>
        <time>2023-11-19T10:40:55Z</time>
      </trkpt>
      <trkpt lat="49.24228" lon="-0.23432">
        <ele>48.5</ele>
        <time>2023-11-19T10:40:56Z</time>
      </trkpt>
      <trkpt lat="49.24231" lon="-0.23428">
        <ele>48.7</ele>
        <time>2023-11-19T10:40:57Z</time>
      </trkpt>
      <trkpt lat="49.24234" lon="-0.23424">
        <ele>48.9</ele>
        <time>2023-11-19T10:40:58Z</time>
      </trkpt>
      <trkpt lat="49.24237" lon="-0.2342">
        <ele>49.1</ele>
        <time>2023-11-19T10:40:59Z</time>
      </trkpt>
      <trkpt lat="49.24239" lon="-0.23415">
        <ele>49.3</ele>
        <time>2023-11-19T10:41:00Z</time>
      </trkpt>
      <trkpt lat="49.24241" lon="-0.23411">
        <ele>49.5</ele>
        <time>2023-11-19T10:41:01Z</time>
      </trkpt>
      <trkpt lat="49.24243" lon="-0.23407">
        <ele>49.6</ele>
        <time>2023-11-19T10:41:02Z</time>
      </trkpt>
      <trkpt lat="49.24245" lon="-0.23402">
        <ele>49.8</ele>
        <time>2023-11-19T10:41:03Z</time>
      </trkpt>
      <trkpt lat="49.24246" lon="-0.23398">
        <ele>50</ele>
        <time>2023-11-19T10:41:04Z</time>
      </trkpt>
      <trkpt lat="49.24248" lon="-0.23394">
        <ele>50.2</ele>
        <time>2023-11-19T10:41:05Z</time>
      </trkpt>
      <trkpt lat="49.24249" lon="-0.23389">
        <ele>50.5</ele>
        <time>2023-11-19T10:41:06Z</time>
      </trkpt>
      <trkpt lat="49.2425" lon="-0.23384">
        <ele>50.7</ele>
        <time>2023-11-19T10:41:07Z</time>
      </trkpt>
      <trkpt lat="49.24251" lon="-0.23379">
        <ele>50.8</ele>
        <time>2023-11-19T10:41:08Z</time>
      </trkpt>
      <trkpt lat="49.2425" lon="-0.23374">
        <ele>51</ele>
        <time>2023-11-19T10:41:09Z</time>
      </trkpt>
      <trkpt lat="49.24249" lon="-0.23368">
        <ele>51.1</ele>
        <time>2023-11-19T10:41:10Z</time>
      </trkpt>
      <trkpt lat="49.24248" lon="-0.23362">
        <ele>51.3</ele>
        <time>2023-11-19T10:41:11Z</time>
      </trkpt>
      <trkpt lat="49.24247" lon="-0.23357">
        <ele>51.5</ele>
        <time>2023-11-19T10:41:12Z</time>
      </trkpt>
      <trkpt lat="49.24208" lon="-0.22134">
        <ele>53.8</ele>
        <time>2023-11-19T10:43:55Z</time>
      </trkpt>
      <trkpt lat="49.24211" lon="-0.22123">
        <ele>53.9</ele>
        <time>2023-11-19T10:43:56Z</time>
      </trkpt>
      <trkpt lat="49.24214" lon="-0.22113">
        <ele>54</ele>
        <time>2023-11-19T10:43:57Z</time>
      </trkpt>
      <trkpt lat="49.24217" lon="-0.22102">
        <ele>54</ele>
        <time>2023-11-19T10:43:58Z</time>
      </trkpt>
      <trkpt lat="49.24221" lon="-0.22092">
        <ele>54</ele>
        <time>2023-11-19T10:43:59Z</time>
      </trkpt>
      <trkpt lat="49.24225" lon="-0.22082">
        <ele>54</ele>
        <time>2023-11-19T10:44:00Z</time>
      </trkpt>
      <trkpt lat="49.25511" lon="-0.2068">
        <ele>30.9</ele>
        <time>2023-11-19T10:46:40Z</time>
      </trkpt>
      <trkpt lat="49.2552" lon="-0.20669">
        <ele>30.7</ele>
        <time>2023-11-19T10:46:41Z</time>
      </trkpt>
      <trkpt lat="49.25529" lon="-0.20658">
        <ele>30.6</ele>
        <time>2023-11-19T10:46:42Z</time>
      </trkpt>
      <trkpt lat="49.25537" lon="-0.20647">
        <ele>30.4</ele>
        <time>2023-11-19T10:46:43Z</time>
      </trkpt>
      <trkpt lat="49.25546" lon="-0.20636">
        <ele>30.2</ele>
        <time>2023-11-19T10:46:44Z</time>
      </trkpt>
      <trkpt lat="49.25554" lon="-0.20624">
        <ele>30</ele>
        <time>2023-11-19T10:46:45Z</time>
      </trkpt>
      <trkpt lat="49.25562" lon="-0.20613">
        <ele>29.9</ele>
        <time>2023-11-19T10:46:46Z</time>
      </trkpt>
      <trkpt lat="49.25571" lon="-0.20602">
        <ele>29.7</ele>
        <time>2023-11-19T10:46:47Z</time>
      </trkpt>
      <trkpt lat="49.25579" lon="-0.20593">
        <ele>29.5</ele>
        <time>2023-11-19T10:46:48Z</time>
      </trkpt>
      <trkpt lat="49.25596" lon="-0.20576">
        <ele>29.2</ele>
        <time>2023-11-19T10:46:49Z</time>
      </trkpt>
      <trkpt lat="49.25603" lon="-0.20569">
        <ele>29</ele>
        <time>2023-11-19T10:46:50Z</time>
      </trkpt>
      <trkpt lat="49.25611" lon="-0.20562">
        <ele>28.9</ele>
        <time>2023-11-19T10:46:51Z</time>
      </trkpt>
      <trkpt lat="49.25619" lon="-0.20554">
        <ele>28.7</ele>
        <time>2023-11-19T10:46:52Z</time>
      </trkpt>
      <trkpt lat="49.25626" lon="-0.20547">
        <ele>28.5</ele>
        <time>2023-11-19T10:46:53Z</time>
      </trkpt>
      <trkpt lat="49.25634" lon="-0.2054">
        <ele>28.3</ele>
        <time>2023-11-19T10:46:54Z</time>
      </trkpt>
      <trkpt lat="49.25643" lon="-0.20531">
        <ele>28.1</ele>
        <time>2023-11-19T10:46:55Z</time>
      </trkpt>
      <trkpt lat="49.25652" lon="-0.20523">
        <ele>27.8</ele>
        <time>2023-11-19T10:46:56Z</time>
      </trkpt>
      <trkpt lat="49.25661" lon="-0.20513">
        <ele>27.6</ele>
        <time>2023-11-19T10:46:57Z</time>
      </trkpt>
      <trkpt lat="49.2567" lon="-0.20503">
        <ele>27.3</ele>
        <time>2023-11-19T10:46:58Z</time>
      </trkpt>
      <trkpt lat="49.25678" lon="-0.20492">
        <ele>27</ele>
        <time>2023-11-19T10:46:59Z</time>
      </trkpt>
      <trkpt lat="49.25687" lon="-0.20482">
        <ele>26.8</ele>
        <time>2023-11-19T10:47:00Z</time>
      </trkpt>
      <trkpt lat="49.25696" lon="-0.20472">
        <ele>26.5</ele>
        <time>2023-11-19T10:47:01Z</time>
      </trkpt>
      <trkpt lat="49.25704" lon="-0.20461">
        <ele>26.3</ele>
        <time>2023-11-19T10:47:02Z</time>
      </trkpt>
      <trkpt lat="49.25713" lon="-0.20449">
        <ele>26.1</ele>
        <time>2023-11-19T10:47:03Z</time>
      </trkpt>
      <trkpt lat="49.25722" lon="-0.20439">
        <ele>25.8</ele>
        <time>2023-11-19T10:47:04Z</time>
      </trkpt>
      <trkpt lat="49.27116" lon="-0.19071">
        <ele>11.2</ele>
        <time>2023-11-19T10:49:41Z</time>
      </trkpt>
      <trkpt lat="49.27126" lon="-0.19065">
        <ele>11</ele>
        <time>2023-11-19T10:49:42Z</time>
      </trkpt>
      <trkpt lat="49.27135" lon="-0.19059">
        <ele>10.7</ele>
        <time>2023-11-19T10:49:43Z</time>
      </trkpt>
      <trkpt lat="49.27145" lon="-0.19053">
        <ele>10.4</ele>
        <time>2023-11-19T10:49:44Z</time>
      </trkpt>
      <trkpt lat="49.27154" lon="-0.19046">
        <ele>10.1</ele>
        <time>2023-11-19T10:49:45Z</time>
      </trkpt>
      <trkpt lat="49.27163" lon="-0.19038">
        <ele>9.8</ele>
        <time>2023-11-19T10:49:46Z</time>
      </trkpt>
      <trkpt lat="49.27173" lon="-0.1903">
        <ele>9.5</ele>
        <time>2023-11-19T10:49:47Z</time>
      </trkpt>
      <trkpt lat="49.27182" lon="-0.19022">
        <ele>9.1</ele>
        <time>2023-11-19T10:49:48Z</time>
      </trkpt>
      <trkpt lat="49.27191" lon="-0.19013">
        <ele>8.8</ele>
        <time>2023-11-19T10:49:49Z</time>
      </trkpt>
      <trkpt lat="49.272" lon="-0.19005">
        <ele>8.5</ele>
        <time>2023-11-19T10:49:50Z</time>
      </trkpt>
      <trkpt lat="49.27209" lon="-0.18997">
        <ele>8.1</ele>
        <time>2023-11-19T10:49:51Z</time>
      </trkpt>
      <trkpt lat="49.28489" lon="-0.17671">
        <ele>4.8</ele>
        <time>2023-11-19T10:52:31Z</time>
      </trkpt>
      <trkpt lat="49.2849" lon="-0.17662">
        <ele>4.8</ele>
        <time>2023-11-19T10:52:32Z</time>
      </trkpt>
      <trkpt lat="49.28491" lon="-0.17652">
        <ele>4.9</ele>
        <time>2023-11-19T10:52:33Z</time>
      </trkpt>
      <trkpt lat="49.28491" lon="-0.17643">
        <ele>4.9</ele>
        <time>2023-11-19T10:52:34Z</time>
      </trkpt>
      <trkpt lat="49.28491" lon="-0.17634">
        <ele>4.9</ele>
        <time>2023-11-19T10:52:35Z</time>
      </trkpt>
      <trkpt lat="49.28491" lon="-0.17624">
        <ele>4.9</ele>
        <time>2023-11-19T10:52:36Z</time>
      </trkpt>
      <trkpt lat="49.28491" lon="-0.17614">
        <ele>4.9</ele>
        <time>2023-11-19T10:52:37Z</time>
      </trkpt>
      <trkpt lat="49.28491" lon="-0.17606">
        <ele>5</ele>
        <time>2023-11-19T10:52:38Z</time>
      </trkpt>
      <trkpt lat="49.28491" lon="-0.17598">
        <ele>5</ele>
        <time>2023-11-19T10:52:39Z</time>
      </trkpt>
      <trkpt lat="49.28461" lon="-0.17334">
        <ele>4.6</ele>
        <time>2023-11-19T10:53:05Z</time>
      </trkpt>
      <trkpt lat="49.28458" lon="-0.17313">
        <ele>4.5</ele>
        <time>2023-11-19T10:53:06Z</time>
      </trkpt>
      <trkpt lat="49.28457" lon="-0.17304">
        <ele>4.5</ele>
        <time>2023-11-19T10:53:07Z</time>
      </trkpt>
      <trkpt lat="49.28456" lon="-0.17295">
        <ele>4.5</ele>
        <time>2023-11-19T10:53:08Z</time>
      </trkpt>
      <trkpt lat="49.28455" lon="-0.17282">
        <ele>4.6</ele>
        <time>2023-11-19T10:53:09Z</time>
      </trkpt>
      <trkpt lat="49.28453" lon="-0.17268">
        <ele>4.6</ele>
        <time>2023-11-19T10:53:10Z</time>
      </trkpt>
      <trkpt lat="49.28451" lon="-0.17255">
        <ele>4.6</ele>
        <time>2023-11-19T10:53:11Z</time>
      </trkpt>
      <trkpt lat="49.2845" lon="-0.17241">
        <ele>4.6</ele>
        <time>2023-11-19T10:53:12Z</time>
      </trkpt>
      <trkpt lat="49.28448" lon="-0.17228">
        <ele>4.6</ele>
        <time>2023-11-19T10:53:13Z</time>
      </trkpt>
      <trkpt lat="49.28446" lon="-0.17215">
        <ele>4.6</ele>
        <time>2023-11-19T10:53:14Z</time>
      </trkpt>
      <trkpt lat="49.28445" lon="-0.17201">
        <ele>4.7</ele>
        <time>2023-11-19T10:53:15Z</time>
      </trkpt>
      <trkpt lat="49.28444" lon="-0.17188">
        <ele>4.7</ele>
        <time>2023-11-19T10:53:16Z</time>
      </trkpt>
      <trkpt lat="49.28442" lon="-0.17175">
        <ele>4.7</ele>
        <time>2023-11-19T10:53:17Z</time>
      </trkpt>
      <trkpt lat="49.28441" lon="-0.17162">
        <ele>4.7</ele>
        <time>2023-11-19T10:53:18Z</time>
      </trkpt>
      <trkpt lat="49.2844" lon="-0.1715">
        <ele>4.7</ele>
        <time>2023-11-19T10:53:19Z</time>
      </trkpt>
      <trkpt lat="49.28439" lon="-0.17139">
        <ele>4.8</ele>
        <time>2023-11-19T10:53:20Z</time>
      </trkpt>
      <trkpt lat="49.28437" lon="-0.17129">
        <ele>4.8</ele>
        <time>2023-11-19T10:53:21Z</time>
      </trkpt>
      <trkpt lat="49.28437" lon="-0.1712">
        <ele>4.8</ele>
        <time>2023-11-19T10:53:22Z</time>
      </trkpt>
      <trkpt lat="49.28436" lon="-0.17111">
        <ele>4.8</ele>
        <time>2023-11-19T10:53:23Z</time>
      </trkpt>
      <trkpt lat="49.28436" lon="-0.17103">
        <ele>4.8</ele>
        <time>2023-11-19T10:53:24Z</time>
      </trkpt>
      <trkpt lat="49.28435" lon="-0.17094">
        <ele>4.8</ele>
        <time>2023-11-19T10:53:25Z</time>
      </trkpt>
      <trkpt lat="49.28435" lon="-0.17084">
        <ele>4.8</ele>
        <time>2023-11-19T10:53:26Z</time>
      </trkpt>
      <trkpt lat="49.28439" lon="-0.1496">
        <ele>4.4</ele>
        <time>2023-11-19T10:56:05Z</time>
      </trkpt>
      <trkpt lat="49.2844" lon="-0.14948">
        <ele>4.4</ele>
        <time>2023-11-19T10:56:06Z</time>
      </trkpt>
      <trkpt lat="49.28441" lon="-0.14937">
        <ele>4.4</ele>
        <time>2023-11-19T10:56:07Z</time>
      </trkpt>
      <trkpt lat="49.28441" lon="-0.14925">
        <ele>4.4</ele>
        <time>2023-11-19T10:56:08Z</time>
      </trkpt>
      <trkpt lat="49.28442" lon="-0.14913">
        <ele>4.4</ele>
        <time>2023-11-19T10:56:09Z</time>
      </trkpt>
      <trkpt lat="49.28443" lon="-0.14902">
        <ele>4.4</ele>
        <time>2023-11-19T10:56:10Z</time>
      </trkpt>
      <trkpt lat="49.28443" lon="-0.14892">
        <ele>4.4</ele>
        <time>2023-11-19T10:56:11Z</time>
      </trkpt>
      <trkpt lat="49.28443" lon="-0.1488">
        <ele>4.4</ele>
        <time>2023-11-19T10:56:12Z</time>
      </trkpt>
      <trkpt lat="49.28444" lon="-0.14869">
        <ele>4.4</ele>
        <time>2023-11-19T10:56:13Z</time>
      </trkpt>
      <trkpt lat="49.28697" lon="-0.12766">
        <ele>5.2</ele>
        <time>2023-11-19T10:58:55Z</time>
      </trkpt>
      <trkpt lat="49.28698" lon="-0.12753">
        <ele>5.3</ele>
        <time>2023-11-19T10:58:56Z</time>
      </trkpt>
      <trkpt lat="49.287" lon="-0.12739">
        <ele>5.3</ele>
        <time>2023-11-19T10:58:57Z</time>
      </trkpt>
      <trkpt lat="49.28702" lon="-0.12726">
        <ele>5.3</ele>
        <time>2023-11-19T10:58:58Z</time>
      </trkpt>
      <trkpt lat="49.28704" lon="-0.12712">
        <ele>5.3</ele>
        <time>2023-11-19T10:58:59Z</time>
      </trkpt>
      <trkpt lat="49.28706" lon="-0.12699">
        <ele>5.3</ele>
        <time>2023-11-19T10:59:00Z</time>
      </trkpt>
      <trkpt lat="49.2865" lon="-0.11924">
        <ele>5.2</ele>
        <time>2023-11-19T11:01:41Z</time>
      </trkpt>
      <trkpt lat="49.2865" lon="-0.11925">
        <ele>5.2</ele>
        <time>2023-11-19T11:01:42Z</time>
      </trkpt>
      <trkpt lat="49.2865" lon="-0.11925">
        <ele>5.2</ele>
        <time>2023-11-19T11:01:43Z</time>
      </trkpt>
      <trkpt lat="49.2865" lon="-0.11926">
        <ele>5.2</ele>
        <time>2023-11-19T11:01:44Z</time>
      </trkpt>
      <trkpt lat="49.28651" lon="-0.11926">
        <ele>5.2</ele>
        <time>2023-11-19T11:01:45Z</time>
      </trkpt>
      <trkpt lat="49.28651" lon="-0.11927">
        <ele>5.2</ele>
        <time>2023-11-19T11:01:46Z</time>
      </trkpt>
      <trkpt lat="49.28651" lon="-0.11928">
        <ele>5.2</ele>
        <time>2023-11-19T11:01:47Z</time>
      </trkpt>
      <trkpt lat="49.28651" lon="-0.11928">
        <ele>5.2</ele>
        <time>2023-11-19T11:01:48Z</time>
      </trkpt>
      <trkpt lat="49.28652" lon="-0.11929">
        <ele>5.2</ele>
        <time>2023-11-19T11:01:49Z</time>
      </trkpt>
      <trkpt lat="49.28651" lon="-0.11929">
        <ele>5.2</ele>
        <time>2023-11-19T11:04:26Z</time>
      </trkpt>
    </trkseg>
  </trk>
</gpx>